     2              OBSERVATION DATA    GPS                 RINEX VERSION / TYPE
ASRINEXO V2.4.4 UX USGS 24-FEB-96 16:18                     PGM / RUN BY / DATE
                                                            COMMENT
Contact: kwendt@isdmnl.wr.usgs.gov (Ph: 415-329-4866)       COMMENT
Contact: kwendt@isdmnl.wr.usgs.gov (Ph: 415-329-4866)       COMMENT
Contact: kwendt@isdmnl.wr.usgs.gov (Ph: 415-329-4866)       COMMENT
Contact: kwendt@isdmnl.wr.usgs.gov (Ph: 415-329-4866)       COMMENT
Contact: kwendt@isdmnl.wr.usgs.gov (Ph: 415-329-4866)       COMMENT
Contact: kwendt@isdmnl.wr.usgs.gov (Ph: 415-329-4866)       COMMENT
Original Marker Name: jctn Junction_1950                    COMMENT
Campaign Name: USGS Yucca Profile                           COMMENT
4-Character Station Name: JCTN                              COMMENT
6-Character Antenna Code: ASHGD3                            COMMENT
Vertical Measurement Point: EGP                             COMMENT
Vertical Offset to Rinex Ref. Point: 0.0594                 COMMENT
Radial Measurement Point: EGP                               COMMENT
Radial Offset to Rinex Ref. Point: 0.1837                   COMMENT
Antenna Height from Field Measurement: 1.3400 m             COMMENT
Additional Antenna Identification Info.:                    COMMENT
The Whopper (700718AB)                                      COMMENT
Original XYZ: -2289336.7600 -4609023.5000 3755432.0100      COMMENT
New XYZ position is based on association with SCEC monument COMMENT
E1F4X3K1+0011. Position of that monument is believed to be  COMMENT
valid to within 1 m horizontally; vertical accuracy         COMMENT
should be no worse than 3-times this value.                 COMMENT
                                                            COMMENT
Revised Rinex header created by UCSD GPS archive for        COMMENT
GSAC on 08-Aug-2000 (2000:221) 00:08:53 GMT                 COMMENT
For assistance contact dagnew@ucsd.edu                      COMMENT
or anderson@python.ucsd.edu                                 COMMENT
                                                            COMMENT
JUNCTION 1950                                               MARKER NAME
GDH US GEOLOGICAL SURVEY                                    OBSERVER / AGENCY
*LP00141 ASHTECH Z-XII3 1F00                                REC # / TYPE / VERS
11416 ASHTECH GEODETIC III                                  ANT # / TYPE
 -2289661.7757 -4609168.1193  3755819.4674                  APPROX POSITION XYZ
        1.2679        0.0000        0.0000                  ANTENNA: DELTA H/E/N
     1     1     0                                          WAVELENGTH FACT L1/2
     5    C1    L1    L2    P1    P2                        # / TYPES OF OBSERV
    30                                                      INTERVAL
  1996     2    16    16    59    0.000000                  TIME OF FIRST OBS
  1996     2    16    23    30   30.000000                  TIME OF LAST OBS
                                                            END OF HEADER
 96  2 16 16 59  0.0000000  0  7 29 25  4 22 19 18 14
  13683942.608      -20477.48819     -9295.44359                  13683949.3494
  17388268.861       34977.37119
  17529349.017      -11048.80819
  14078528.905        2969.18219
  16983502.486      -47708.20119
  15345446.393      -40885.91719    -19616.43159                  15345451.0364
  13364050.056       17620.33519      8626.38259                  13364057.9654
 96  2 16 16 59 30.0000000  0  7 29 25  4 22 19 18 14
  13675780.678      -63369.97259    -42718.17149  13675782.7564   13675786.9894
  17402864.619      111680.526 9     76395.77359                  17402871.6364
  17526395.286      -26598.150 9    -17796.98259                  17526400.7484
  14079786.869        9582.49259      5538.27559  14079787.3884   14079792.8194
  16964421.428     -147954.048 9    -99803.17459                  16964432.9644
  15328196.710     -131531.45859    -90249.31449  15328197.4684   15328202.6354
  13368646.505       41774.75359     27447.98549  13368648.9434   13368654.3694
 96  2 16 17  0  0.0000000  0  7 29 25  4 22 19 18 14
  20862651.997     -106183.73749    -76079.54549  20862654.3874   20862658.9044
  24612430.344      188138.04059    135973.00249  24612433.9284   24612440.3104
  24718520.021      -41792.40759    -29636.69249  24718523.6314   24718527.8824
  21276152.357       16659.09449     11052.51549  21276153.2314   21276158.3494
  24140384.488     -248106.75859   -177844.19649  24140385.8574   24140393.4824
  22505974.824     -222132.15849   -160847.25249  22505975.3214   22505980.9904
  20568334.662       66307.66349     46564.52949  20568336.3334   20568341.9014
 96  2 16 17  0 30.0000000  0  7 29 25  4 22 19 18 14
  20854516.610     -148941.13959   -109397.00259  20854517.9914   20854522.1784
  24626973.716      264521.55259    195492.57959  24626970.3834   24626974.4324
  24715707.883      -56609.19959    -41182.26459  24715703.2904   24715708.2864
  21277598.962       24257.47759     16973.33459  21277598.9944   21277604.2514
  24121321.754     -348300.78659   -255917.40759  24121320.3814   24121328.2344
  22488722.515     -312788.98959   -231488.93259  22488723.7764   22488729.3984
  20573094.636       91318.76959     66053.68959  20573095.7054   20573101.2914
 96  2 16 17  1  0.0000000  0  7 29 25  4 22 19 18 14
  20846412.437     -191526.61749   -142580.49249  20846414.4404   20846418.6424
  24641493.870      340851.88349    254970.70349  24641494.5634   24641500.7804
  24712971.651      -70946.08049    -52353.89449  24712974.3834   24712981.5074
  21279153.660       32431.87149     23342.99249  21279154.5554   21279159.9214
  24102274.858     -448381.58049   -333902.38949  24102274.9364   24102282.9074
  22471486.442     -403365.77049   -302068.23349  22471487.7254   22471493.8004
  20577954.813      116860.69149     85956.46949  20577956.2724   20577961.5394
 96  2 16 17  1 30.0000000  0  7 29 25  4 22 19 18 14
  20838357.668     -233855.73549   -175564.22349  20838359.3714   20838363.5134
  24656022.605      417212.74549    314472.61749  24656025.1934   24656031.4994
  24710346.577      -84719.42249    -63086.41449  24710354.7944   24710359.9674
  21280835.487       41265.71349     30226.50349  21280835.8164   21280841.1074
  24083265.869     -548260.01749   -411729.70449  24083268.7734   24083275.9084
  22454277.065     -493798.34649   -372535.17249  22454279.2304   22454284.4874
  20582928.788      142998.62149    106323.66949  20582930.2004   20582935.5454
 96  2 16 17  2  0.0000000  0  7 29 25  4 22 19 18 14
  20830367.496     -275844.86649   -208283.03349  20830369.0004   20830373.2934
  24670580.661      493703.37849    374075.66549  24670582.2284   24670588.1594
  24707850.179      -97865.02059    -73329.69359  24707850.0774   24707858.0584
  21282657.620       50842.56749     37688.99349  21282658.1614   21282663.3984
  24064315.277     -647852.20549   -489333.94849  24064317.1254   24064325.1054
  22437112.369     -583998.49249   -442820.99249  22437114.9854   22437119.5164
  20588035.583      169834.41049    127234.65649  20588036.7874   20588042.4354
 96  2 16 17  2 30.0000000  0  7 29 25  4 22 19 18 14
  20822472.339     -317333.67449   -240611.97549  20822474.3984   20822478.4094
  24685187.304      570467.70559    433891.90759  24685189.9114   24685198.7734
  24705488.625                                    24705496.405    24705507.5294
  21284648.022       61303.10449     45840.05849  21284648.5104   21284654.0834
  24045445.759     -747000.17549   -566592.02849  24045444.7554   24045459.9314
  22420021.248     -673819.01349   -512811.02349  22420021.9204   22420026.9774
  20593299.046      197495.31749    148788.55449  20593300.7284   20593306.0774
 96  2 16 17  3  0.0000000  0  7 29 25  4 22 19 18 14
  20814700.503     -358174.93649   -272436.32949  20814702.5184   20814706.5494
  24699875.371      647647.32359    494031.90959  24699878.6224   24699880.0554
  24703321.134     -121683.34959    -91890.05459  24703320.7534   24703326.5594
  21286836.598       72802.38949     54800.53749  21286837.0254   21286842.3534
  24026695.135     -845547.36759   -643382.00759  24026697.0344   24026704.2464
  22403031.564     -763100.05249   -582380.64049  22403032.4494   22403037.4974
  20598747.872      226126.99649    171098.97149  20598749.1154   20598754.2744
 96  2 16 17  3 30.0000000  0  6 29  4 22 19 18 14
  20807080.200     -398220.40649   -303640.60149  20807082.1654   20807086.2734
  24701342.640     -132053.36149    -99970.57249  24701347.2014   24701352.5974
  21289252.452       85495.74749     64691.46549  21289252.6824   21289257.7784
  24008083.952     -943346.12349   -719588.78949  24008086.9754   24008093.9514
  22386175.200     -851686.20149   -651408.80649  22386175.5214   22386180.2814
  20604410.788      255884.17749    194286.36749  20604411.9624   20604417.1874
 96  2 16 17  4  0.0000000  0  6 29  4 22 19 18 14
  20799598.507     -437541.39949   -334280.32749  20799599.7684   20799603.8494
  24699564.581     -141418.45149   -107268.07349  24699565.3524   24699571.7374
  21291880.395       99305.83149     75452.58249  21291880.8444   21291885.6694
  23989602.022    -1040478.37549   -795276.20849  23989603.3354   23989610.2584
  22369433.671     -939663.96249   -719962.88849  22369433.8234   22369437.9574
  20610271.464      286682.28149    218284.88349  20610272.7024   20610278.0994
 96  2 16 17  4 30.0000000  0  6 29  4 22 19 18 14
  20792342.926     -475669.48549   -363990.52849  20792344.0844   20792348.1134
  24698055.386     -149331.46349   -113434.06749  24698059.1984   24698065.6364
  21294806.744      114687.92749     87438.62949  21294807.4894   21294812.7394
  23971330.622    -1136496.17249   -870095.21349  23971330.9974   23971338.0624
  22352890.949    -1026599.46849   -787704.83649  22352890.7324   22352895.6584
  20616412.921      318955.48249    243432.80949  20616413.9274   20616419.1434
 96  2 16 17  5  0.0000000  0  6 29  4 22 19 18 14
  20785347.644     -512428.70849   -392634.07749  20785349.0874   20785353.1344
  24696863.638     -155621.89149   -118335.71549  24696863.0844   24696868.2404
  21298067.313      131820.37049    100788.58749  21298067.8724   21298072.8084
  23953302.750    -1231226.60949   -943911.07449  23953304.2824   23953311.1784
  22336579.360    -1112312.80949   -854494.44549  22336579.6184   22336585.1134
  20622872.030      352896.89749    269880.64649  20622872.9574   20622878.2624
 96  2 16 17  5 30.0000000  0  6 29  4 22 19 18 14
  20778632.663     -547716.93449   -420131.39849  20778634.1134   20778638.0794
  24695984.449     -160208.73649   -121909.93249  24695990.0944   24695995.8744
  21301677.597      150790.07649    115570.18049  21301677.8124   21301682.8184
  23935540.149    -1324576.09349  -1016650.87249  23935541.2214   23935547.3284
  22320517.298    -1196719.99049   -920266.26649  22320518.1124   22320523.1544
  20629665.417      388597.45949    297699.24449  20629666.8024   20629671.8544
 96  2 16 17  6  0.0000000  0  6 29  4 22 19 18 14
  20772197.282     -581534.70249   -446482.90649  20772198.7794   20772202.6904
  24695433.698     -163111.34849   -124171.73649  24695438.3884   24695443.5094
  21305635.684      171590.37649    131778.21249  21305636.1544   21305640.8664
  23918038.076    -1416542.68849  -1088313.11349  23918041.0494   23918046.8794
  22304703.706    -1279820.24449   -985019.70649  22304704.0654   22304709.2784
  20636794.121      426058.21749    326889.42649  20636795.2044   20636800.1614
 96  2 16 17  6 30.0000000  0  6 29  4 22 19 18 14
  20766024.393     -613972.02549   -471758.74749  20766026.4174   20766030.3954
  24695189.947     -164420.88649   -125192.19149  24695189.0764   24695194.5804
  21309922.874      194119.34049    149333.24949  21309923.0224   21309928.1094
  23900785.029    -1507213.20149  -1158965.43049  23900786.1894   23900793.8074
  22289126.866    -1361676.93249  -1048804.13849  22289127.5774   22289132.8334
  20644245.038      465212.25649    357399.05049  20644246.0164   20644250.9504
 96  2 16 17  7  0.0000000  0  6 29  4 22 19 18 14
  20760077.994     -645223.46849   -496110.52449  20760079.1164   20760083.2644
  24695210.473     -164314.10349   -125109.03149  24695209.8264   24695214.7124
  21314499.736      218170.09249    168074.09849  21314499.7174   21314504.7884
  23883742.674    -1596771.23749  -1228750.86249  23883743.6964   23883750.4794
  22273754.573    -1442455.79149  -1111748.70449  22273755.4774   22273760.9124
  20651983.516      505877.16549    389085.97049  20651984.3874   20651989.4114
 96  2 16 17  7 30.0000000  0  6 29  4 22 19 18 14
  20754315.990     -675504.40349   -519706.06149  20754317.2074   20754321.0864
  24695456.000     -162998.55359   -124084.17859  24695460.1334   24695465.4164
  21319323.663      243519.36549    187826.77649  21319323.6894   21319328.5214
  23866871.799    -1685430.06449  -1297835.62249  23866872.4134   23866880.1924
  22258548.743    -1522367.35249  -1174017.44149  22258549.4144   22258554.4514
  20659966.665      547828.81249    421775.54549  20659967.3234   20659972.5994
 96  2 16 17  8  0.0000000  0  6 29  4 22 19 18 14
  20748691.486     -705060.63349   -542736.89049  20748692.5964   20748696.9334
  24695901.760     -160700.06849   -122293.18649  24695897.7984   24695902.5454
  21324349.530      269936.05649    208411.21749  21324350.5614   21324355.6564
  23850127.253    -1773418.99549  -1366398.38249  23850130.0824   23850135.0144
  22243463.479    -1601638.66549  -1235787.29549  22243464.7954   22243469.4094
  20668149.389      590830.42549    455283.28249  20668150.2694   20668155.5344
 96  2 16 17  8 30.0000000  0  6 29  4 22 19 18 14
  20743164.129     -734106.11649   -565369.73349  20743165.4334   20743169.6894
  24696479.922     -157624.89649   -119896.97849  24696482.8554   24696488.3564
  21329540.005      297205.42949    229660.08049  21329539.8984   21329544.9554
  23833470.252    -1860952.05749  -1434605.93149  23833470.5474   23833478.8624
  22228458.251    -1680492.64449  -1297231.94449  22228458.8684   22228464.3594
  20676489.524      634656.96749    489433.81749  20676490.3404   20676495.5864
 96  2 16 17  9  0.0000000  0  6 29  4 22 19 18 14
  20737702.316     -762808.62349   -587735.32449  20737703.7784   20737707.6744
  24697185.673     -153944.12449   -117028.88049  24697182.8954   24697188.2514
  21334862.169      325173.54949    251453.41949  21334862.2014   21334866.9064
  23816868.170    -1948193.81349  -1502586.47849  23816870.2834   23816877.4754
  22213498.474    -1759111.69849  -1358493.53649  22213498.5414   22213503.7564
  20684951.121      679124.31149    524083.67249  20684952.1124   20684957.3854
 96  2 16 17  9 30.0000000  0  6 29  4 22 19 18 14
  20732280.110     -791302.34649   -609938.22749  20732281.5544   20732285.5394
  24697977.046     -149784.99749   -113788.03149  24697974.8004   24697980.5094
  21340297.406      353734.83249    273708.96449  21340297.0794   21340301.8414
  23800297.374    -2035270.13549  -1570438.09949  23800299.5984   23800307.7234
  22198556.841    -1837628.33649  -1419675.32649  22198557.1104   22198562.1744
  20693510.389      724105.88649    559134.23649  20693511.9264   20693517.2364
 96  2 16 17 10  0.0000000  0  6 29  4 22 19 18 14
  20726879.766     -819682.32849   -632052.49649  20726881.0564   20726885.0844
  24698832.771     -145249.13859   -110253.64349  24698837.2264   24698843.7164
  21345826.880      382794.13349    296352.57849  21345826.9074   21345831.6374
  23783740.432    -2122283.27449  -1638240.48959  23783742.3414   23783748.7964
  22183615.378    -1916149.70149  -1480860.79049  22183614.9794   22183619.8964
  20702149.345      769502.13249    594507.90449  20702150.6634   20702155.9434
 96  2 16 17 10 30.0000000  0  6 29  4 22 19 18 14
  20721491.525     -847997.87949   -654116.56649  20721492.8474   20721496.9264
  24699761.950     -140401.65649   -106476.41349  24699759.3994   24699766.2834
  21351437.158      412274.89149    319324.58849  21351436.8944   21351441.8324
  23767183.092    -2209295.23349  -1706041.97149  23767184.4034   23767191.0874
  22168659.930    -1994739.75049  -1542099.79249  22168660.2844   22168664.6624
  20710854.973      815248.87049    630154.69849  20710855.8194   20710861.3074
 96  2 16 17 11  0.0000000  0  6 29  4 22 19 18 14
  20716108.574     -876285.16849   -676158.61049  20716109.8894   20716114.0734
  24700728.696     -135289.91349   -102493.28949  24700732.7994   24700739.0244
  21357120.318      442139.76049    342595.91149  21357120.3904   21357124.9254
  23750617.743    -2296351.16649  -1773877.73549  23750617.5864   23750625.2214
  22153686.588    -2073424.80049  -1603412.81349  22153686.4174   22153691.3054
  20719620.281      861312.05649    666048.06949  20719621.4274   20719626.7054
 96  2 16 17 11 30.0000000  0  6 29  4 22 19 18 14
  20710731.345     -904541.47649   -698176.51749  20710732.8154   20710736.8264
  24701756.822     -129917.88249    -98307.33349  24701755.3744   24701760.6234
  21362874.527      472381.18549    366160.65349  21362875.0304   21362879.8214
  23734039.985    -2383460.21549  -1841754.87949  23734041.1524   23734048.5024
  22138694.028    -2152204.51549  -1664799.59949  22138695.6284   22138700.3084
  20728446.785      907691.54349    702187.90549  20728447.0364   20728452.4004
 96  2 16 17 12  0.0000000  0  6 29  4 22 19 18 14
  20705366.431     -932738.77749   -720148.43849  20705367.1574   20705371.3034
  24702824.251     -124274.58149    -93909.96349  24702829.0544   24702834.1854
  21368704.536      503015.30149    390031.39349  21368704.3624   21368708.9884
  23717459.825    -2470595.39449  -1909652.37149  23717460.4354   23717467.5204
  22123688.303    -2231065.98849  -1726250.08649  22123688.5384   22123692.9794
  20737336.858      954409.17149    738591.23849  20737337.1194   20737342.7294
 96  2 16 17 12 30.0000000  0  6 29  4 22 19 18 14
  20700004.226     -960915.90749   -742104.64249  20700005.3824   20700009.3674
  24703948.486     -118395.05349    -89328.56949  24703949.3554   24703954.7434
  21374603.262      534011.14749    414184.00049  21374602.8394   21374607.5424
  23700866.685    -2557785.95949  -1977593.03249  23700869.3654   23700875.3994
  22108659.949    -2310038.05749  -1787786.74849  22108659.9414   22108665.5954
  20746285.732     1001434.78549    775234.55449  20746286.1534   20746291.5744
 96  2 16 17 13  0.0000000  0  6 29  4 22 19 18 14
  20694651.504     -989043.85649   -764022.52549  20694652.5074   20694656.7194
  24705121.942     -112241.78849    -84533.86549  24705119.3464   24705124.7514
  21380578.950      565412.43849    438652.53949  21380578.3074   21380583.2194
  23684270.852    -2645004.17249  -2045555.23949  23684271.8324   23684278.3264
  22093618.552    -2389081.45749  -1849378.99549  22093619.2574   22093623.7824
  20755298.715     1048801.52849    812143.69449  20755299.8304   20755305.0024
 96  2 16 17 13 30.0000000  0  6 29  4 22 19 18 14
  20689301.416    -1017159.55649   -785930.86049  20689302.4794   20689306.5734
  24706331.142     -105836.69149    -79542.92649  24706339.2394   24706342.8264
  21386624.041      597180.14949    463406.59749  21386623.3324   21386628.0324
  23667662.666    -2732273.76049  -2113557.48849  23667664.5184   23667671.5634
  22078556.664    -2468233.42149  -1911055.83749  22078557.1474   22078561.9074
  20764370.713     1096473.75949    849290.87249  20764371.2634   20764376.5674
 96  2 16 17 14  0.0000000  0  6 29  4 22 19 18 14
  20683958.684    -1045234.48549   -807807.42949  20683959.9494   20683963.9984
  24707610.691      -99140.80749    -74325.39249  24707611.9204   24707616.7414
  21392740.288      629325.95849    488455.27949  21392740.2224   21392745.2624
  23651053.625    -2819561.80549  -2181574.11349  23651053.9154   23651061.3374
  22063480.624    -2547458.76749  -1972789.86049  22063480.8574   22063486.0704
  20773505.390     1144476.04249    886695.23049  20773505.8624   20773511.0194
 96  2 16 17 14 30.0000000  0  6 29  4 22 19 18 14
  20678626.654    -1073255.48049   -829641.96849  20678627.6444   20678631.8794
  24708938.882      -92155.58049    -68882.40949  24708941.0774   24708946.5044
  21398927.224      661841.10549    513791.75849  21398927.7814   21398932.6794
  23634438.669    -2906871.08249  -2249607.26449  23634440.0464   23634446.4884
  22048395.785    -2626730.77749  -2034560.24849  22048395.9224   22048401.1934
  20782701.055     1192804.85349    924354.02949  20782702.1944   20782708.0194
 96  2 16 17 15  0.0000000  0  6 29  4 22 19 18 14
  20673311.643    -1101186.51149   -851406.40549  20673312.5994   20673316.9964
  24710330.135      -84851.94949    -63191.30049  24710330.9524   24710336.8264
  21405188.028      694741.41149    539428.35849  21405188.5964   21405193.4314
  23617825.341    -2994168.02649  -2317630.82049  23617828.3314   23617835.2824
  22033308.542    -2706016.63649  -2096341.43049  22033308.4894   22033313.3794
  20791966.214     1241493.42149    962293.15349  20791967.7564   20791973.3194
 96  2 16 17 15 30.0000000  0  6 29  4 22 19 18 14
  20668014.928    -1129017.86749   -873093.17549  20668016.4694   20668020.5464
  24711776.806      -77241.96649    -57261.49849  24711779.1904   24711785.6894
  21411520.469      728018.87749    565358.85149  21411520.7634   21411525.7884
  23601218.056    -3081444.98149  -2385638.79449  23601219.0104   23601225.6094
  22018217.473    -2785314.42949  -2158131.91349  22018218.3024   22018223.2404
  20801301.951     1290553.01849   1000521.38949  20801303.1684   20801309.0354
 96  2 16 17 16  0.0000000  0  6 29  4 22 19 18 14
  20662742.701    -1156722.08249   -894680.87049  20662744.4064   20662748.6454
  24713286.953      -69318.16049    -51087.14949  24713287.1014   24713292.5304
  21417928.392      761688.42749    591594.86149  21417927.9974   21417932.8644
  23584615.144    -3168686.94449  -2453619.48549  23584617.1784   23584624.9814
  22003129.737    -2864602.34249  -2219914.69849  22003130.1464   22003135.6224
  20810709.024     1339990.54249   1039044.11549  20810711.0794   20810716.5704
 96  2 16 17 16 30.0000000  0  6 29  4 22 19 18 14
  20657495.740    -1184294.47649   -916165.85349  20657497.6664   20657501.9194
  24714850.190      -61094.39149    -44679.05849  24714851.3194   24714856.9664
  21424412.645      795764.59349    618147.71449  21424412.4714   21424417.4274
  23568022.625    -3255882.82149  -2521564.27049  23568024.4954   23568032.0024
  21988044.249    -2943875.12349  -2281685.68649  21988045.0434   21988050.5904
  20820190.843     1389818.64349   1077871.18849  20820192.9064   20820198.4424
 96  2 16 17 17  0.0000000  0  6 29  4 22 19 18 14
  20652273.888    -1211740.93149   -937552.69549  20652274.6944   20652278.8694
  24716469.627      -52552.81549    -38023.33049  24716476.4444   24716482.5354
  21430976.774      830260.21649    645027.41749  21430976.8674   21430981.7744
  23551440.520    -3343033.42049  -2589473.79049  23551440.5534   23551447.4344
  21972957.493    -3023157.08349  -2343463.82749  21972958.6224   21972963.5594
  20829749.168     1440041.11649   1117005.56749  20829750.0914   20829755.4804
 96  2 16 17 17 30.0000000  0  6 29  4 22 19 18 14
  20647077.665    -1239044.23749   -958827.99349  20647079.0864   20647083.2564
  24718168.026      -43670.19849    -31101.85049  24718167.4914   24718174.1904
  21437629.431      865220.32749    672269.06149  21437629.8364   21437634.7764
  23534869.078    -3430119.80549  -2657333.28649  23534868.8264   23534875.2474
  21957874.880    -3102421.70449  -2405228.45549  21957874.7354   21957880.0944
  20839380.851     1490657.34449   1156446.76949  20839382.0434   20839387.5914
 96  2 16 17 18  0.0000000  0  6 29  4 22 19 18 14
  20641907.209    -1266218.62249   -980002.83849  20641908.1474   20641912.1544
  24719922.978      -34431.58649    -23902.96649  24719925.8164   24719932.1114
  21444371.530      900649.74349    699876.39749  21444371.8384   21444376.3974
  23518305.493    -3517152.27449  -2725150.75549  23518306.6314   23518313.4934
  21942792.548    -3181677.59549  -2466986.28349  21942792.8404   21942798.4334
  20849084.555     1541648.41749   1196180.05349  20849085.5874   20849091.1934
 96  2 16 17 18 30.0000000  0  6 29  4 22 19 18 14
  20636761.775    -1293256.38949  -1001071.22349  20636762.9134   20636767.1124
  24721751.427      -24829.13449    -16420.57549  24721754.9604   24721759.6014
  21451208.237      936575.93849    727870.82949  21451208.4284   21451213.1424
  23501756.183    -3604122.98249  -2792920.10449  23501756.6404   23501763.2024
  21927713.725    -3260918.69849  -2528732.58649  21927714.0094   21927719.0254
  20858863.005     1593033.79549   1236220.58649  20858863.9284   20858869.2594
 96  2 16 17 19  0.0000000  0  6 29  4 22 19 18 14
  20631642.288    -1320161.18149  -1022035.99549  20631643.3574   20631647.2944
  24723648.519      -14856.65749     -8649.87449  24723651.6104   24723656.2634
  21458140.342      973001.45549    756254.34549  21458140.0764   21458144.8934
  23485212.943    -3691049.74949  -2860655.23249  23485215.6594   23485221.4764
  21912636.719    -3340151.29849  -2590472.27149  21912636.5774   21912641.9054
  20868713.461     1644800.20149   1276558.02649  20868714.8854   20868720.2564
 96  2 16 17 19 30.0000000  0  6 29  4 22 19 18 14
  20626551.517    -1346912.20849  -1042880.94949  20626552.6404   20626556.7264
  24725614.033       -4522.52649      -597.34049  24725617.6564   24725624.5794
  21465164.553     1009913.83749    785017.23349  21465164.0694   21465169.1184
  23468683.882    -3777920.87449  -2928346.96549  23468684.1634   23468690.9084
  21897565.873    -3419346.40949  -2652182.73649  21897566.3414   21897571.3974
  20878637.533     1696949.25449   1317193.63149  20878638.3224   20878643.9044
 96  2 16 17 20  0.0000000  0  6 29  4 22 19 18 14
  20621494.236    -1373487.18249  -1063588.72049  20621495.7444   20621499.6614
  24727655.055        6176.10949      7739.23049  24727653.7214   24727660.1764
  21472278.299     1047298.16249    814147.87249  21472278.1704   21472282.9844
  23452165.345    -3864722.42249  -2995984.51049  23452166.9924   23452173.1014
  21882504.372    -3498493.84649  -2713856.05649  21882505.2234   21882509.8774
  20888641.078     1749513.22149   1358152.54249  20888641.1554   20888646.5234
 96  2 16 17 20 30.0000000  0  6 29  4 22 19 18 14
  20616471.843    -1399882.28249  -1084156.32749  20616473.0024   20616477.0704
  24729754.162       17217.00149     16342.46349  24729755.0064   24729759.6714
  21479479.388     1085142.32049    843636.82449  21479479.8214   21479484.6064
  23435663.090    -3951441.97949  -3063558.15249  23435664.9054   23435670.7684
  21867454.794    -3577581.41949  -2775482.72649  21867455.2944   21867460.1214
  20898723.781     1802502.93449   1399443.21249  20898724.6364   20898730.2404
 96  2 16 17 21  0.0000000  0  6 29  4 22 19 18 14
  20611479.957    -1426112.17049  -1104595.20149  20611481.4434   20611485.4404
  24731917.851       28593.47149     25207.20949  24731920.3304   24731923.4674
  21486761.782     1123410.04249    873455.82849  21486761.8174   21486766.5544
  23419174.919    -4038085.26949  -3131072.37949  23419176.8004   23419183.6984
  21852416.777    -3656609.44449  -2837063.00149  21852416.8594   21852421.7194
  20908884.488     1855897.34749   1441049.22949  20908885.2144   20908890.7504
 96  2 16 17 21 30.0000000  0  6 29  4 22 19 18 14
  20606528.109    -1452138.00649  -1124875.07549  20606529.1654   20606532.8864
  24734147.308       40326.71149     34349.93359  24734153.0724   24734157.7784
  21494129.139     1162123.98149    903622.53249  21494129.0074   21494133.7364
  23402712.846    -4124599.32549  -3198485.89649  23402713.7904   23402720.4644
  21837397.835    -3735535.40549  -2898563.73849  21837397.4494   21837402.3994
  20919128.645     1909727.25049   1482994.58949  20919128.6504   20919134.1804
 96  2 16 17 22  0.0000000  0  6 29  4 22 19 18 14
  20601613.228    -1477964.13149  -1144999.32749  20601614.4234   20601618.3824
  24736454.931       52421.19649     43774.16649  24736453.3934   24736459.9754
  21501584.213     1201300.86149    934149.96949  21501583.7524   21501588.5124
  23386273.851    -4210981.09549  -3265796.32649  23386275.7864   23386282.4614
  21822395.197    -3814369.34249  -2959992.77649  21822395.6814   21822400.6714
  20929455.971     1964000.18949   1525285.16849  20929456.6364   20929461.8914
 96  2 16 17 22 30.0000000  0  6 29  4 22 19 18 14
  20596733.894    -1503606.28549  -1164980.22249  20596734.7524   20596738.8894
  24738817.155       64869.06749     53473.79959  24738822.1494   24738828.6944
  21509125.799     1240935.04749    965033.74849  21509125.8964   21509131.1574
  23369859.857    -4297243.26849  -3333013.56649  23369860.2444   23369867.1004
  21807410.149    -3893121.24649  -3021357.88549  21807409.6634   21807415.1594
  20939861.830     2018683.82949   1567895.77549  20939862.5634   20939867.8194
 96  2 16 17 23  0.0000000  0  6 29  4 22 19 18 14
  20591890.922    -1529055.67449  -1184810.91349  20591892.0104   20591896.1094
  24741260.502       77682.71249     63458.41449  24741261.0134   24741266.6114
  21516753.855     1281019.24949    996268.18649  21516753.8184   21516758.6934
  23353463.851    -4383396.96849  -3400146.28549  23353466.2544   23353471.7644
  21792437.318    -3971798.05349  -3082664.47849  21792438.3554   21792443.4104
  20950343.514     2073766.62549   1610817.41349  20950344.5374   20950350.0594
 96  2 16 17 23 30.0000000  0  6 29  4 22 19 18 14
  20587082.703    -1554324.64949  -1204501.02549  20587083.3504   20587087.5514
  24743762.647       90838.92449     73709.94449  24743764.7514   24743771.0444
  21524465.311     1321546.53249   1027847.88049  21524465.8554   21524470.6994
  23337087.003    -4469465.64749  -3467212.75949  23337088.1144   23337094.5824
  21777475.100    -4050420.76449  -3143928.92549  21777476.8474   21777481.7114
  20960899.601     2129238.89349   1654042.53549  20960900.3914   20960906.0754
 96  2 16 17 24  0.0000000  0  6 29  4 22 19 18 14
  20582308.839    -1579407.34649  -1224045.98749  20582310.3834   20582314.4814
  24746334.949      104362.87849     84248.07249  24746339.0084   24746344.2714
  21532266.152     1362539.44349   1059790.40749  21532266.4334   21532271.3154
  23320723.049    -4555452.00549  -3534215.09549  23320723.9624   23320730.7834
  21762526.452    -4128982.03849  -3205145.49549  21762527.0044   21762531.9004
  20971531.496     2185112.29449   1697580.22749  20971532.5904   20971538.3364
 96  2 16 17 24 30.0000000  0  6 29  4 22 19 18 14
  20577573.099    -1604293.86349  -1243438.08049  20577574.3744   20577578.5784
  24748984.479      118265.84049     95081.49049  24748984.9594   24748990.2334
  21540155.129     1403997.02349   1092095.00649  21540155.5044   21540160.4244
  23304378.359    -4641354.67249  -3601152.21249  23304378.6384   23304384.7624
  21747591.301    -4207461.57849  -3266298.37649  21747592.9574   21747597.3704
  20982240.395     2241387.28549   1741430.84449  20982241.6324   20982246.9934
 96  2 16 17 25  0.0000000  0  6 29  4 22 19 18 14
  20572876.020    -1628977.99549  -1262672.46949  20572877.3054   20572881.2904
  24751694.748      132541.58149    106205.42449  24751700.8524   24751705.0284
  21548133.548     1445924.80749   1124766.00549  21548134.1554   21548139.2774
  23288046.516    -4727171.83949  -3668022.70049  23288048.6954   23288054.0404
  21732673.820    -4285860.57949  -3327388.49949  21732673.9174   21732679.2294
  20993027.189     2298072.69249   1785601.27149  20993028.3354   20993033.9044
 96  2 16 17 25 30.0000000  0  6 29  4 22 19 18 14
  20568217.057    -1653461.04549  -1281750.17449  20568218.4034   20568222.4184
  24754483.190      147181.61949    117613.20149  24754485.7494   24754491.7444
  21556203.004     1488328.79249   1157808.06549  21556203.3274   21556208.5974
  23271732.631    -4812900.17949  -3734823.97949  23271734.0644   23271741.1014
  21717768.938    -4364181.88749  -3388418.08349  21717769.7454   21717774.9944
  21003889.252     2355156.05849   1830081.79349  21003891.0234   21003896.4284
 96  2 16 17 26  0.0000000  0  6 29  4 22 19 18 14
  20563594.019    -1677749.95149  -1300676.59249  20563596.4614   20563600.4714
  24757342.220      162187.51749    129306.06749  24757342.6174   24757347.9364
  21564357.963     1531185.10349   1191202.58649  21564358.7064   21564363.6544
  23255436.960    -4898536.84749  -3801553.81449  23255438.6174   23255444.4514
  21702877.594    -4442432.74749  -3449392.76849  21702878.9964   21702884.3984
  21014825.542     2412626.34749   1874863.81649  21014827.1904   21014833.0324
 96  2 16 17 26 30.0000000  0  6 29  4 22 19 18 14
  20559011.388    -1701835.45149  -1319444.51949  20559013.1424   20559017.1184
  24760265.740      177559.83249    141284.45049  24760267.4284   24760272.3404
  21572597.232     1574485.00749   1224942.76249  21572598.1204   21572603.3394
  23239162.219    -4984060.59949  -3868195.66149  23239163.2044   23239169.9294
  21688003.625    -4520598.44749  -3510301.10449  21688004.8874   21688009.8314
  21025837.970     2470495.29049   1919956.47149  21025839.5234   21025845.2534
 96  2 16 17 27  0.0000000  0  6 29  4 22 19 18 14
  20554465.655    -1725722.24349  -1338057.60649  20554467.4274   20554471.4234
  24763258.217      193296.83549    153547.01149  24763261.0154   24763268.1254
  21580921.249     1618227.09149   1259027.49549  21580921.9994   21580927.2374
  23222908.492    -5069471.26249  -3934749.38349  23222910.8074   23222916.8374
  21673144.652    -4598682.74549  -3571146.00749  21673146.3374   21673151.1514
  21036925.625     2528761.49649   1965358.68749  21036927.1024   21036932.6774
 96  2 16 17 27 30.0000000  0  6 29  4 22 19 18 14
  20549958.122    -1749407.16949  -1356513.39249  20549960.3794   20549964.4274
  24766327.366      209409.98049    166102.68749  24766329.2344   24766334.8654
  21589329.827     1662414.12149   1293458.94149  21589330.8204   21589335.8404
  23206678.413    -5154757.62249  -4001206.24049  23206680.6804   23206687.2934
  21658304.495    -4676670.34649  -3631915.55849  21658305.2964   21658310.4784
  21048090.924     2587435.15049   2011078.39749  21048091.8344   21048098.0624
 96  2 16 17 28  0.0000000  0  6 29  4 22 19 18 14
  20545487.776    -1772901.78149  -1374820.88349  20545489.5044   20545493.5744
  24769463.262      225896.11949    178948.95949  24769466.0654   24769471.7044
  21597824.095     1707048.80449   1328239.20549  21597824.2514   21597829.2524
  23190473.835    -5239921.50249  -4067567.67249  23190474.3004   23190480.7474
  21643483.017    -4754557.68149  -3692606.97949  21643483.8764   21643488.7734
  21059336.795     2646533.47749   2057129.01649  21059338.1654   21059344.2874
 96  2 16 17 28 30.0000000  0  6 29  4 22 19 18 14
  20541055.820    -1796187.44749  -1392965.55949  20541058.4914   20541062.4744
  24772668.793      242750.39949    192082.10549  24772673.6314   24772677.3484
  21606408.281     1752161.98649   1363392.32649  21606409.0774   21606414.2204
  23174290.591    -5324961.86049  -4133832.86249  23174291.8884   23174298.4064
  21628683.032    -4832331.57249  -3753210.01049  21628684.0264   21628689.4024
  21070664.272     2706064.30949   2103516.65249  21070666.7034   21070672.3414
 96  2 16 17 29  0.0000000  0  6 29  4 22 19 18 14
  20536666.330    -1819257.07349  -1410941.89449  20536668.4474   20536672.6214
  24775947.927      259962.89549    205494.40849  24775948.0374   24775953.5144
  21615082.208     1797746.95749   1398913.07149  21615083.8344   21615088.7254
  23158128.880    -5409891.19449  -4200011.55249  23158130.8264   23158136.7544
  21613902.355    -4910001.69149  -3813732.17849  21613903.8684   21613908.8334
  21082073.881     2766019.11749   2150234.65649  21082075.5094   21082081.5154
 96  2 16 17 29 30.0000000  0  6 29  4 22 19 18 14
  20532317.191    -1842109.63049  -1428749.08549  20532319.6554   20532324.0474
  24779289.615      277532.01849    219184.61249  24779291.6524   24779297.3014
  21623847.009     1843804.49949   1434802.05549  21623848.2554   21623853.3374
  23141989.754    -5494701.92149  -4266097.79349  23141991.2064   23141997.9034
  21599140.569    -4987573.51349  -3874177.74649  21599142.3374   21599147.4664
  21093564.052     2826398.58149   2197283.56549  21093565.6724   21093571.4194
 96  2 16 17 30  0.0000000  0  6 29  4 22 19 18 14
  20528006.667    -1864762.79149  -1446400.89949  20528008.8364   20528012.9614
  24782695.604      295436.45849    233136.06049  24782697.5984   24782705.5854
  21632696.596     1890307.39549   1471038.07049  21632697.3314   21632702.4914
  23125869.453    -5579418.14649  -4332110.39349  23125870.6154   23125876.7284
  21584395.512    -5065058.13949  -3934555.36849  21584397.3044   21584402.6944
  21105128.335     2887169.19149   2244637.26249  21105129.9544   21105135.8204
 96  2 16 17 30 30.0000000  0  6 29  4 22 19 18 14
  20523742.214    -1887174.99149  -1463864.95449  20523743.9204   20523748.0444
  24786170.907      313696.91149    247364.95349  24786173.2694   24786179.2694
  21641631.922     1937264.82349   1507628.25849  21641632.9864   21641638.0574
  23109771.922    -5664008.60349  -4398025.00349  23109773.2364   23109779.7404
  21569674.743    -5142418.77049  -3994836.36849  21569676.1244   21569681.4074
  21116768.017     2948338.65549   2292301.75749  21116769.9454   21116775.5894
 96  2 16 17 31  0.0000000  0  6 29  4 22 19 18 14
  20519524.150    -1909338.92749  -1481135.55949  20519526.3124   20519530.3764
  24789718.998      332331.17049    261885.13549  24789720.1544   24789723.5064
  21650654.860     1984679.81249   1544574.99249  21650656.0604   21650661.1574
  23093704.183    -5748442.44149  -4463817.57349  23093706.8014   23093713.0714
  21554980.818    -5219638.93149  -4055007.91949  21554981.4224   21554986.9904
  21128486.390     3009914.39949   2340282.83349  21128487.4114   21128493.2924
 96  2 16 17 31 30.0000000  0  6 29  4 22 19 18 14
  20515349.109    -1931280.94649  -1498233.24249  20515351.3144   20515354.9744
  24793327.311      351307.61849    276671.94349  24793330.4134   24793336.5674
  21659761.512     2032538.15749   1581867.19849  21659763.1944   21659768.1874
  23077663.651    -5832733.72849  -4529499.04949  23077665.6474   23077671.8944
  21540310.294    -5296729.85949  -4115078.76649  21540311.8834   21540317.2734
  21140275.097     3071866.66749   2388557.30449  21140276.6734   21140282.5284
 96  2 16 17 32  0.0000000  0  6 29  4 22 19 18 14
  20511214.679    -1953005.85249  -1515161.74649  20511217.1944   20511221.1154
  24796998.757      370595.58649    291701.46649  24796999.3274   24797007.1584
  21668951.019     2080827.43849   1619495.19849  21668952.2424   21668957.5194
  23061648.506    -5916897.48349  -4595081.15749  23061649.5874   23061656.9044
  21525664.557    -5373693.42849  -4175050.37149  21525666.0844   21525671.1284
  21152131.612     3134174.33749   2437108.71249  21152133.4954   21152139.2434
 96  2 16 17 32 30.0000000  0  6 29  4 22 19 18 14
  20507124.503    -1974500.26449  -1531910.64049  20507126.6824   20507130.6804
  24800729.375      390196.26449    306974.68149  24800731.3854   24800738.1404
  21678226.605     2129569.71649   1657476.18149  21678227.8244   21678232.5094
  23045656.960    -6000931.33349  -4660562.02049  23045658.9164   23045666.0084
  21511042.013    -5450537.13949  -4234928.58649  21511043.3664   21511048.5244
  21164059.019     3196853.78549   2485949.81649  21164060.8934   21164066.6994
 96  2 16 17 33  0.0000000  0  5 29 22 19 18 14
  20503080.862    -1995752.51249  -1548470.84349  20503082.6314   20503086.7794
  21687591.975     2178782.11449   1695823.49349  21687592.6884   21687597.5034
  23029690.798    -6084833.19949  -4725940.05149  23029692.6644   23029699.5084
  21496443.800    -5527252.43049  -4294706.73049  21496444.9784   21496450.3244
  21176062.137     3259929.54949   2535099.74049  21176063.6774   21176069.6804
 96  2 16 17 33 30.0000000  0  5 29 22 19 18 14
  20499084.436    -2016754.02549  -1564835.66549  20499086.0164   20499089.9874
  21697045.250     2228464.33749   1734536.90449  21697046.8784   21697051.6674
  23013746.201    -6168622.82049  -4791230.62949  23013748.3544   23013754.3294
  21481870.510    -5603834.44149  -4354381.01949  21481871.8104   21481877.1584
  21188142.906     3323415.56949   2584569.34049  21188144.7314   21188150.6164
 96  2 16 17 34  0.0000000  0  5 29 22 19 18 14
  20495139.318    -2037484.48549  -1580989.27549  20495141.3264   20495145.4474
  21706591.731     2278629.28049   1773626.46049  21706592.5784   21706597.8884
  22997824.811    -6252287.81349  -4856424.07349  22997826.2464   22997834.0424
  21467323.906    -5680274.59449  -4413944.76649  21467325.8424   21467331.1414
  21200306.065     3387331.51149   2634373.94949  21200307.6874   21200313.5774
 96  2 16 17 34 30.0000000  0  5 29 22 19 18 14
  20491246.591    -2057938.15549  -1596927.20549  20491248.9074   20491253.3324
  21716227.211     2329266.47649   1813084.00849  21716228.2144   21716233.8044
  22981928.292    -6335826.79349  -4921519.34349  22981930.6934   22981937.0794
  21452805.598    -5756572.01949  -4473397.30049  21452806.7014   21452812.2674
  21212552.532     3451688.28149   2684522.05849  21212554.3134   21212560.2214
 96  2 16 17 34 59.9990000  0  5 29 22 19 18 14
  20487402.364    -2078139.28549  -1612668.35049  20487404.9074   20487409.0374
  21725946.369     2380343.30349   1852884.12349  21725948.1384   21725952.9234
  22966056.514    -6419235.60649  -4986513.18149  22966058.0034   22966064.2384
  21438312.738    -5832729.59249  -4532740.85849  21438314.2894   21438319.5804
  21224880.255     3516468.60049   2735000.20749  21224881.6564   21224887.5114
 96  2 16 17 35 29.9990000  0  5 29 22 19 18 14
  20483607.330    -2098086.84549  -1628211.91049  20483609.0444   20483613.0964
  21735752.938     2431872.98149   1893037.11249  21735754.3144   21735759.3004
  22950213.475    -6502499.96049  -5051394.45349  22950212.7894   22950219.7264
  21423847.117    -5908750.53349  -4591977.95149  21423848.3114   21423853.2444
  21237285.573     3581662.60649   2785800.70349  21237287.7514   21237293.5694
 96  2 16 17 35 59.9990000  0  5 29 22 19 18 14
  20479859.100    -2117784.96149  -1643561.09649  20479860.6284   20479864.6274
  21745640.675     2483835.64349   1933527.49149  21745642.1504   21745647.0824
  22934394.657    -6585618.00949  -5116161.73249  22934397.1264   22934403.3924
  21409406.153    -5984637.49449  -4651110.64649  21409407.4774   21409412.5564
  21249766.088     3647244.24049   2836903.25449  21249767.5274   21249773.3434
 96  2 16 17 36 29.9990000  0  5 29 22 19 18 14
  20476155.735    -2137239.77949  -1658720.70149  20476158.4274   20476162.5084
  21755608.906     2536217.39149   1974344.43549  21755610.0734   21755615.1854
  22918606.345    -6668584.85949  -5180811.18449  22918608.7004   22918615.4864
  21394991.697    -6060384.94849  -4710134.63449  21394993.3784   21394998.2114
  21262319.148     3713212.37549   2888306.97149  21262320.8934   21262326.4264
 96  2 16 17 36 59.9990000  0  5 29 22 19 18 14
  20472500.265    -2156451.81249  -1673691.12349  20472502.5484   20472506.6864
  21765656.493     2589018.71849   2015488.32249  21765657.8154   21765662.7464
  22902849.296    -6751392.96849  -5245336.94749  22902850.5674   22902857.1004
  21380603.413    -6135995.63449  -4769052.04449  21380604.9584   21380610.0504
  21274943.553     3779557.37549   2940004.35149  21274945.9744   21274951.6754
 96  2 16 17 37 29.9990000  0  5 29 22 19 18 14
  20468894.577    -2175398.94749  -1688455.13049  20468897.2174   20468901.2304
  21775784.702     2642240.33449   2056959.70449  21775785.5314   21775790.2104
  22887120.387    -6834047.79449  -5309743.26949  22887121.7894   22887128.6254
  21366242.834    -6211462.29649  -4827857.22849  21366243.8664   21366249.1454
  21287639.603     3846271.88249   2991989.65549  21287641.6064   21287646.9434
 96  2 16 17 37 59.9990000  0  5 29 22 19 18 14
  20465338.707    -2194090.36049  -1703019.87049  20465340.3694   20465344.2844
  21785989.945     2695869.95149   2098749.01149  21785991.1034   21785996.2254
  22871418.691    -6916557.11649  -5374036.21549  22871420.5584   22871427.4474
  21351909.738    -6286783.92049  -4886549.39549  21351910.9304   21351915.7494
  21300406.343     3913364.03849   3044269.23549  21300408.7624   21300414.2744
 96  2 16 17 38 29.9990000  0  5 29 22 19 18 14
  20461826.848    -2212540.93449  -1717396.94649  20461829.2124   20461833.1484
  21796272.730     2749907.48249   2140856.16449  21796273.8324   21796278.8054
  22855746.772    -6998914.45349  -5438210.73349  22855748.7914   22855755.5804
  21337601.956    -6361967.98049  -4945134.37449  21337603.6524   21337608.7754
  21313244.844     3980828.13449   3096838.63449  21313246.4344   21313252.1124
 96  2 16 17 38 59.9990000  0  6 29 22 19 18 14 28
  20458360.788    -2230754.95349  -1731589.69149  20458363.2934   20458367.1564
  21806634.198     2804356.90149   2183284.27549  21806635.4024   21806640.3074
  22840100.104    -7081135.92649  -5502279.38749  22840102.5744   22840108.5874
  21323320.075    -6437020.94149  -5003617.19649  21323321.6964   21323326.8574
  21326150.308     4048646.70549   3149684.25349  21326152.3284   21326157.6534
  24734719.659    -3129108.50119  -2230312.19319  24734719.611    24734726.373
 96  2 16 17 39 29.9990000  0  6 29 22 19 18 14 28
  20454940.387    -2248732.05349  -1745597.81949  20454942.4634   20454946.4054
  21817078.509     2859240.61349   2226050.79149  21817079.2704   21817084.3924
  22824481.029    -7163214.13049  -5566236.39549  22824483.4264   22824490.7814
  21309067.283    -6511918.99049  -5061979.30549  21309069.2114   21309074.1314
  21339124.508     4116828.31549   3202812.76049  21339126.4474   21339132.4484
  24718725.700    -3213153.652 9  -2295801.819 9  24718726.056    24718732.996
 96  2 16 17 39 59.9990000  0  6 29 22 19 18 14 28
  20451565.131    -2266468.19149  -1759418.19149  20451567.1814   20451571.4784
  21827608.966     2914579.05449   2269171.63849  21827610.0794   21827615.3224
  22808891.137    -7245139.88149  -5630074.61449  22808893.3004   22808899.4454
  21294846.920    -6586650.63049  -5120211.74849  21294848.0904   21294853.0744
  21352169.327     4185380.84449   3256230.29049  21352171.9154   21352177.6054
  24702740.538    -3297143.246 9  -2361248.158 9  24702743.780    24702750.221
 96  2 16 17 40 29.9990000  0  6 29 22 19 18 14 28
  20448233.751    -2283970.46049  -1773056.32349  20448236.4734   20448240.7254
  21838224.097     2970361.03249   2312638.09649  21838225.1314   21838229.9584
  22793324.751    -7326943.95449  -5693818.01249  22793327.2664   22793333.3244
  21280653.166    -6661233.27749  -5178328.08349  21280655.4654   21280660.5644
  21365280.363     4254280.55349   3309918.35249  21365283.0484   21365289.1114
  24686770.308    -3381088.715 9  -2426660.115 9  24686768.976    24686776.091
 96  2 16 17 40 59.9990000  0  6 29 22 19 18 14 28
  20444949.413    -2301235.25649  -1786509.41749  20444951.3874   20444955.4094
  21848921.863     3026577.64349   2356443.23249  21848922.6404   21848928.0064
  22777776.011    -7408657.05449  -5757490.53049  22777777.2594   22777783.6884
  21266489.255    -6735666.16049  -5236327.73049  21266491.3024   21266496.5034
  21378457.270     4323519.25149   3363870.55649  21378458.2974   21378464.7374
  24670798.858    -3465002.965 9  -2492047.743 9  24670800.793    24670807.783
 96  2 16 17 41 29.9990000  0  6 29 22 19 18 14 28
  20441718.521    -2318212.13549  -1799738.15749  20441720.6794   20441724.8344
  21859705.708     3083248.89449   2400602.62649  21859706.7464   21859711.8364
  22762249.023    -7490246.92249  -5821067.02649  22762250.8684   22762257.5694
  21252362.921    -6809902.47549  -5294174.20349  21252364.6574   21252369.7454
  21391705.565     4393141.16049   3418121.36849  21391707.1244   21391713.2904
  24654843.931    -3548854.377 9  -2557386.410 9  24654843.977    24654851.233
 96  2 16 17 41 59.9990000  0  6 29 22 19 18 14 28
  20438546.145    -2334881.72949  -1812727.45749  20438548.6804   20438552.8284
  21870574.032     3140362.35649   2445106.61049  21870575.2734   21870580.4434
  22746747.400    -7571711.25749  -5884545.69849  22746749.1514   22746754.9694
  21238274.740    -6883937.56849  -5351863.88049  21238276.2394   21238281.5604
  21405027.873     4463154.34249   3472677.06749  21405030.4404   21405036.2424
  24638901.021    -3632633.131 9  -2622668.468 9  24638901.713    24638908.946
 96  2 16 17 42 29.9990000  0  6 29 22 19 18 14 28
  20435424.052    -2351289.83649  -1825512.99849  20435426.1594   20435430.4604
  21881514.878     3197856.40749   2489907.15449  21881516.0274   21881521.1004
  22731260.974    -7653087.14449  -5947955.44749  22731263.5434   22731270.2434
  21224217.272    -6957810.26649  -5409427.01949  21224219.3084   21224224.2044
  21418419.552     4533525.04649   3527511.36049  21418421.5854   21418427.5294
  24622961.914    -3716379.038 9  -2687924.942 9  24622964.972    24622972.588
 96  2 16 17 42 59.9990000  0  6 29 22 19 18 14 28
  20432363.610    -2367372.17949  -1838044.69749  20432366.0484   20432370.2184
  21892534.070     3255764.01649   2535029.95249  21892535.4094   21892540.3064
  22715808.432    -7734293.54449  -6011233.13849  22715810.7274   22715816.9924
  21210200.600    -7031466.60749  -5466821.56149  21210202.2984   21210207.4514
  21431890.141     4604313.12849   3582670.87749  21431892.3014   21431897.9504
  24607044.305    -3800032.714 9  -2753109.532 9  24607046.117    24607053.097
 96  2 16 17 43 29.9990000  0  6 29 22 19 18 14 28
  20429357.183    -2383169.48149  -1850354.28649  20429360.2094   20429364.1464
  21903625.369     3314047.98049   2580446.01449  21903626.5224   21903631.7014
  22700386.596    -7815335.59949  -6074382.76349  22700389.0204   22700395.6974
  21196218.303    -7104942.86549  -5524075.78049  21196220.6804   21196225.5494
  21445432.891     4675481.42749   3638126.66649  21445435.0164   21445440.9974
  24591144.835    -3883614.351 9  -2818237.992 9  24591141.265    24591148.148
 96  2 16 17 43 59.9990000  0  6 29 22 19 18 14 28
  20426403.415    -2398694.11549  -1862451.40749  20426405.5624   20426409.5164
  21914790.668     3372721.71649   2626165.79249  21914791.7954   21914796.8654
  22684998.462    -7896196.96549  -6137391.58849  22685001.5304   22685008.0574
  21182268.587    -7178252.80949  -5581200.40849  21182269.9244   21182274.9934
  21459047.256     4747022.62649   3693873.02549  21459048.7564   21459054.8654
  24575248.087    -3967117.897 9  -2883305.604 9  24575250.306    24575258.201
 96  2 16 17 44 29.9990000  0  6 29 22 19 18 14 28
  20423500.703    -2413947.54049  -1874337.19849  20423502.8114   20423507.0384
  21926031.372     3431794.92449   2672196.85149  21926032.6504   21926038.2014
  22669647.371    -7976871.42749  -6200254.78249  22669649.8414   22669656.3384
  21168349.275    -7251397.41649  -5638196.19949  21168350.9544   21168356.2644
  21472731.140     4818936.87049   3749910.07349  21472733.5864   21472739.9554
  24559372.873    -4050539.467 9  -2948309.352 9  24559376.419    24559383.561
 96  2 16 17 44 59.9990000  0  6 29 22 19 18 14 28
  20420645.981    -2428946.80249  -1886024.94049  20420648.7544   20420653.0024
  21937348.062     3491263.63549   2718536.09149  21937349.6444   21937354.7594
  22654325.394
  21154458.530    -7324394.24149  -5695076.84249  21154460.0154   21154465.1394
  21486482.379     4891198.89949   3806218.11549  21486484.6544   21486490.9634
  24543517.109    -4133886.582 9  -3013255.078 9  24543516.145    24543522.882
 96  2 16 17 45 29.9990000  0  6 29 22 19 18 14 28
  20417838.949    -2443699.51849  -1897520.56649  20417841.4834   20417845.6184
  21948744.014     3551148.88049   2765199.90449  21948745.5974   21948750.6214
  22639040.042      -91194.12419    -54829.36859                  22639047.2694
  21140597.167    -7397234.90449  -5751835.79349  21140598.9804   21140603.9074
  21500298.304     4963799.36649   3862789.87649  21500300.4164   21500306.0324
  24527668.190    -4217152.561 9  -3078137.604 9  24527670.690    24527678.061
 96  2 16 17 45 59.9990000  0  6 29 22 19 18 14 28
  20415080.146    -2458195.70549  -1908816.29949  20415082.9814   20415087.0774
  21960218.615     3611449.34649   2812187.26949  21960220.2814   21960225.3684
  22623775.028     -171400.19759   -117327.58249  22623778.7104   22623784.2704
  21126765.297    -7469922.23549  -5808475.26849  21126766.9194   21126771.9714
  21514177.848     5036739.92249   3919626.64149  21514180.4174   21514186.2074
  24511841.415    -4300334.274 9  -3142954.457 9  24511841.980    24511849.246
 96  2 16 17 46 29.9990000  0  5 29 22 18 14 28
  20412370.021    -2472437.92349  -1919914.14049  20412372.6934   20412376.7234
  21971768.665     3672144.70449   2859482.34449  21971770.2284   21971774.9944
  21112961.982    -7542459.41149  -5864997.74049  21112963.8294   21112968.9024
  21528121.751     5110009.44749   3976719.74649  21528122.9714   21528129.2134
  24496027.483    -4383432.526 9  -3207706.303 9  24496028.874    24496035.628
 96  2 16 17 46 59.9990000  0  6 29 22 19 18 14 28
  20409707.679    -2486428.98249  -1930816.26649  20409710.0034   20409714.4174
  21983389.594     3733212.13349   2907067.34249  21983391.0384   21983396.0644
  22593315.175      -76270.22319    -42127.40759                  22593324.4194
  21099184.315    -7614860.65949  -5921414.28949  21099186.0934   21099191.3874
  21542121.212     5183582.28549   4034049.19849  21542123.6964   21542129.6254
  24480227.752    -4466456.135 9  -3272399.973 9  24480229.766    24480236.938
 96  2 16 17 47 29.9990000  0  6 29 22 19 18 14 28
  20407102.721    -2500119.37649  -1941484.11049  20407104.8924   20407109.2944
  21995086.390     3794682.17449   2954966.06249  21995088.3054   21995093.1854
  22578121.511     -156124.22159   -104351.27949  22578122.4944   22578128.7314
  21085441.448    -7687082.79449  -5977691.27449  21085442.7684   21085448.2204
  21556185.228     5257492.36049   4091641.43449  21556188.1134   21556194.1204
  24464452.289    -4549367.215 9  -3337005.967 9  24464452.362    24464459.032
 96  2 16 17 47 59.9990000  0  6 29 22 19 18 14 28
  20404553.540    -2513516.47849  -1951923.41349  20404555.5894   20404560.0474
  22006856.899     3856536.01049   3003163.84249  22006858.7164   22006863.7244
  22562944.992     -235866.23849   -166487.88949  22562947.9894   22562954.3314
  21071728.879    -7759138.60249  -6033838.64849  21071731.0354   21071736.3034
  21570312.196     5331727.33049   4149486.83749  21570314.4934   21570320.8464
  24448691.939    -4632176.681 9  -3401532.766 9  24448694.516    24448701.520
 96  2 16 17 48 29.9990000  0  6 29 22 19 18 14 28
  20402057.086    -2526631.03549  -1962142.55549  20402059.9764   20402064.3694
  22018698.233     3918760.08149   3051650.12249  22018699.5004   22018704.3764
  22547790.399     -315500.67159   -228540.66059  22547793.6974   22547800.4014
  21058049.369    -7831025.23049  -6089854.19849  21058051.3844   21058056.6334
  21584497.150     5406272.22349   4207573.73649  21584500.0274   21584506.3924
  24432952.880    -4714894.542 9  -3465988.228 9  24432953.693    24432960.312
 96  2 16 17 48 59.9990000  0  6 29 22 19 18 14 28
  20399619.613    -2539447.53549  -1972129.44049  20399621.2074   20399625.4714
  22030610.930     3981363.80349   3100432.23549  22030612.8814   22030617.7904
  22532661.773     -395010.47249   -290496.32649  22532663.9144   22532670.1984
  21044405.209    -7902728.13049  -6145726.58249  21044406.8694   21044411.6994
  21598742.742     5481133.88449   4265907.46849  21598745.6324   21598751.7514
  24417229.353    -4797515.467 9  -3530368.132 9  24417231.039    24417238.234
 96  2 16 17 49 29.9990000  0  6 29 22 19 18 14 28
  20397231.966    -2551985.79749  -1981899.52349  20397235.2624   20397239.4894
  22042594.604     4044334.53649   3149500.32649  22042595.7514   22042600.9774
  22517555.713     -474390.99249   -352351.25249  22517557.9564   22517563.8834
  21030796.420    -7974241.74949  -6201451.48049  21030798.0884   21030803.3954
  21613050.098     5556312.60349   4324488.25449  21613051.6884   21613057.7394
  24401525.573    -4880046.513 9  -3594678.018 9  24401526.358    24401533.096
 96  2 16 17 49 59.9990000  0  6 29 22 19 18 14 28
  20394906.840    -2564208.59249  -1991423.78249  20394909.3934   20394913.6744
  22054651.274     4107696.55349   3198873.31749  22054653.1684   22054658.3674
  22502486.575     -553577.93849   -414055.33549  22502489.3774   22502495.6694
  21017232.627    -8045520.57049  -6256993.41249  21017234.3924   21017239.4734
  21627422.512     5631842.99849   4383343.07749  21627424.7004   21627431.1214
  24385843.259    -4962446.459 9  -3658885.734 9  24385845.688    24385852.645
 96  2 16 17 50 29.9990000  0  5 29 22 18 14 28
  20392635.591    -2576142.01949  -2000722.56149  20392638.4564   20392642.3614
  22066775.751     4171409.69049   3248519.90249  22066777.5364   22066782.3754
  21003709.443    -8116583.64449  -6312367.22949  21003711.4284   21003716.6224
  21641857.775     5707701.30949   4442453.41049  21641860.2234   21641865.8724
  24370183.001    -5044738.953 9  -3723009.723 9  24370186.180    24370193.076
 96  2 16 17 50 59.9990000  0  6 29 22 19 18 14 28
  20390419.476    -2587787.97749  -2009797.33949  20390422.1814   20390426.4894
  22078966.398     4235475.95149   3298441.64849  22078968.9294   22078973.4704
  22472458.779      -75098.32219    -41499.50859                  22472465.9674
  20990227.464    -8187430.10549  -6367572.25849  20990229.7574   20990235.0404
  21656355.394     5783889.54549   4501820.83849  21656358.4344   21656364.2514
  24354546.046    -5126917.562 9  -3787044.981 9  24354547.826    24354554.978
 96  2 16 17 51 29.9990000  0  6 29 22 19 18 14 28
  20388254.549    -2599164.79249  -2018662.39449  20388257.4774   20388261.6224
  22091223.955     4299888.91049   3348633.55049  22091225.8794   22091231.4904
  22457491.304     -153740.89759   -102779.41749  22457494.5884   22457501.0584
  20976786.534    -8258063.26649  -6422611.07749  20976788.7584   20976793.7464
  21670915.954     5860401.57349   4561440.57049  21670918.2754   21670924.5254
  24338929.242    -5208984.627 9  -3850993.300 9  24338931.272    24338938.057
 96  2 16 17 51 59.9990000  0  6 29 22 19 18 14 28
  20386141.765    -2610267.43249  -2027313.81049  20386144.6654   20386148.9274
  22103548.019     4364649.44549   3399096.28249  22103549.4104   22103554.5754
  22442553.816     -232240.40849   -163947.83749  22442556.4984   22442562.9524
  20963382.172    -8328504.19149  -6477500.10649  20963384.4384   20963389.3504
  21685535.711     5937230.41849   4621307.16849  21685538.2624   21685544.5874
  24323334.477    -5290937.534 9  -3914852.678 9  24323336.431    24323342.782
 96  2 16 17 52 29.9990000  0  6 29 22 19 18 14 28
  20384081.556    -2621094.80649  -2035750.73149  20384084.5344   20384088.4014
  22115941.210     4429779.11149   3449846.65149  22115943.4684   22115948.5664
  22427639.639     -310615.38959   -225019.22359  22427642.6654   22427649.2794
  20950015.006    -8398751.52149  -6532238.27949  20950016.9074   20950021.9864
  21700218.600     6014389.48949   4681431.07849  21700221.0544   21700227.4274
  24307763.674    -5372762.499 9  -3978612.351 9  24307765.595    24307772.168
 96  2 16 17 52 59.9990000  0  6 29 22 19 18 14 28
  20382071.669    -2631657.25849  -2043981.21549  20382074.3324   20382078.4744
  22128406.421     4495278.80249   3500885.35149  22128407.3614   22128412.8574
  22412745.485     -388885.64849   -286009.00949  22412747.8724   22412753.9014
  20936681.785    -8468819.75649  -6586836.89749  20936683.3214   20936688.4154
  21714961.271     6091861.90149   4741799.15149  21714963.8324   21714970.1844
  24292217.235    -5454462.641 9  -4042274.749 9  24292218.592    24292225.082
 96  2 16 17 53 29.9990000  0  6 29 22 19 18 14 28
  20380114.505    -2641943.05249  -2051996.12649  20380117.1184   20380121.4674
  22140940.672     4561147.98149   3552211.96849  22140942.0254   22140947.1674
  22397874.979     -467031.52549   -346901.87149  22397877.4494   22397883.4744
  20923382.029    -8538707.91649  -6641295.19749  20923384.0244   20923388.9554
  21729763.316     6169647.71949   4802411.44149  21729765.7644   21729772.2474
  24276695.367    -5536024.371 9  -4105829.291 9  24276697.869    24276704.270
 96  2 16 17 53 59.9990000  0  6 29 22 19 18 14 28
  20378213.306    -2651933.16649  -2059780.63749  20378215.9834   20378220.4824
  22153545.014     4627386.54949   3603826.41349  22153546.6284   22153552.0324
  22383035.526     -545019.34849   -407671.56849  22383037.4024   22383043.0894
  20910119.903    -8608398.67449  -6695599.67949  20910122.1844   20910127.2774
  21744624.298     6247742.52349   4863264.49549  21744626.5094   21744633.1844
  24261203.958    -5617431.550 9  -4169263.406 9  24261206.303    24261212.380
 96  2 16 17 54 29.9990000  0  6 29 22 19 18 14 28
  20376367.155    -2661636.25949  -2067341.49549  20376369.4664   20376373.6944
  22166218.643     4693983.71449   3655720.28849  22166219.9724   22166225.1884
  22368223.589     -622853.08349   -468321.19849  22368225.5864   22368231.7394
  20896896.734    -8677889.62749  -6749748.46849  20896898.7244   20896903.5734
  21759539.667     6326120.09849   4924337.89449  21759541.3394   21759547.9574
  24245739.591    -5698696.585 9  -4232586.756 9  24245741.949    24245748.431
 96  2 16 17 54 59.9990000  0  6 29 22 19 18 14 28
  20374576.279    -2671046.80949  -2074674.39649  20374578.9044   20374583.1404
  22178958.345     4760932.95049   3707888.50249  22178959.9624   22178965.4144
  22353441.332     -700530.80249   -528849.26749  22353443.7574   22353449.6264
  20883710.689    -8747181.78149  -6803742.34649  20883712.8904   20883717.7154
  21774505.550     6404765.64749   4985620.10349  21774507.5344   21774513.7024
  24230303.025    -5779821.387 9  -4295800.838 9  24230304.541    24230311.014
 96  2 16 17 55 29.9990000  0  6 29 22 19 18 14 28
  20372843.528    -2680156.44249  -2081772.81249  20372845.3094   20372849.5334
  22191762.599     4828220.75849   3760320.53849  22191764.5194   22191769.7524
  22338686.429     -778067.28349   -589267.27249  22338689.2044   22338695.6954
  20870563.785    -8816263.32849  -6857572.12249  20870566.7114   20870571.8694
  21789521.560     6483682.82749   5047113.97149  21789524.9204   21789531.0414
  24214891.111    -5860806.561 9  -4358906.103 9  24214893.816    24214900.066
 96  2 16 17 55 59.9990000  0  6 29 22 19 18 14 28
  20371171.056    -2688940.22449  -2088617.31949  20371173.6714   20371177.9894
  22204634.571     4895860.20949   3813026.58149  22204635.6184   22204640.8814
  22323957.685     -855473.52549   -649583.78549  22323959.3064   22323965.8014
  20857463.299    -8885112.23949  -6911220.61849  20857465.2354   20857470.3314
  21804596.359     6562891.78049   5108835.19749  21804598.0144   21804603.9734
  24199509.391    -5941642.656 9  -4421895.224 9  24199511.251    24199517.063
 96  2 16 17 56 29.9990000  0  6 29 22 19 18 14 28
  20369562.041    -2697393.99049  -2095204.67749  20369565.0664   20369569.4624
  22217574.945     4963861.72049   3866014.75049  22217576.1474   22217581.4714
  22309248.656     -932764.79649   -709810.71349  22309251.0264   22309257.5204
  20844405.244    -8953731.98949  -6964690.54849  20844407.2654   20844412.2664
  21819727.066     6642411.08649   5170798.25749  21819730.0464   21819736.5764
  24184155.418    -6022325.179 9  -4484764.651 9  24184157.596    24184163.293
 96  2 16 17 56 59.9990000  0  6 29 22 19 18 14 28
  20368016.327    -2705519.52549  -2101536.26749  20368018.8464   20368023.1054
  22230579.443     5032202.13049   3919266.99049  22230581.1174   22230586.4594
  22294563.858    -1009933.65049   -769942.25449  22294566.5434   22294573.0554
  20831393.474    -9022110.51749  -7017972.51849  20831395.5354   20831400.3664
  21834921.055     6722252.76049   5233012.50949  21834923.0654   21834929.1644
  24168832.125    -6102850.628 9  -4547511.678 9  24168834.209    24168839.578
 96  2 16 17 57 29.9990000  0  6 29 22 19 18 14 28
  20366532.476    -2713316.03349  -2107611.47349  20366535.1454   20366539.4344
  22243646.599     5100867.27249   3972772.27549  22243647.3954   22243652.6074
  22279906.765    -1086961.66049   -829964.04949  22279908.4384   22279914.7334
  20818428.668    -9090242.65849  -7071062.49049  20818430.6654   20818435.5934
  21850177.177     6802420.63249   5295480.93849  21850178.5844   21850184.9054
  24153538.042    -6183217.689 9  -4610135.284 9  24153540.570    24153545.990
 96  2 16 17 57 59.9990000  0  6 29 22 19 18 14 28
  20365110.382    -2720790.39749  -2113435.65749  20365113.1684   20365117.3184
  22256774.666     5169862.29649   4026534.60849  22256776.4614   22256782.0344
  22265280.519    -1163820.33349   -889853.88849  22265282.9724   22265289.0274
  20805508.909    -9158135.16049  -7123965.73549  20805511.0774   20805515.8004
  21865489.745     6882897.03749   5358189.79849  21865493.0594   21865499.2294
  24138275.915    -6263419.615 9  -4672630.228 9  24138277.887    24138283.914
 96  2 16 17 58 29.9990000  0  6 29 22 19 18 14 28
  20363745.329    -2727962.36249  -2119024.20149  20363748.2404   20363752.0604
  22269966.777     5239185.57649   4080552.72049  22269968.6154   22269973.9294
  22250690.870    -1240488.62949   -949595.38349  22250693.6444   22250699.7504
  20792634.086    -9225792.79749  -7176685.96349  20792636.3894   20792641.2394
  21880861.126     6963669.45849   5421129.31449  21880863.2114   21880869.7724
  24123049.516    -6343446.870 9  -4734989.044 9  24123049.467    24123056.152
 96  2 16 17 58 59.9990000  0  6 29 22 19 18 14 28
  20362435.621    -2734845.01649  -2124387.31749  20362438.4134   20362442.6174
  22283218.126     5308822.61449   4134815.32649  22283220.0104   22283225.5554
  22236138.351    -1316961.65449  -1009184.71849  22236140.9634   22236147.0284
  20779801.454    -9293224.20349  -7229229.91149  20779804.2534   20779809.2624
  21896283.032     7044712.39149   5484279.60949  21896285.1084   21896292.0374
  24107849.382    -6423304.224 9  -4797215.469 9  24107852.663    24107859.092
 96  2 16 17 59 29.9990000  0  6 29 22 19 18 14 28
  20361178.217    -2741452.70949  -2129536.17549  20361181.1304   20361185.0204
  22296532.065     5378785.89749   4189332.14049  22296533.4134   22296538.6894
  22221620.731    -1393253.46849  -1068632.85549  22221623.2734   22221629.0744
  20767008.926    -9360454.67549  -7281617.28849  20767010.9554   20767015.9754
  21911750.214     7125995.90949   5547617.37349  21911752.9034   21911759.5564
  24092685.148    -6502997.206 9  -4859313.813 9  24092687.942    24092694.202
 96  2 16 17 59 59.9990000  0  6 29 22 19 18 14 28
  20359974.138    -2747782.21549  -2134468.26449  20359976.9054   20359980.8534
  22309909.801     5449086.35049   4244111.69249  22309911.1904   22309917.0264
  22207134.955    -1469376.01349  -1127949.09049  22207137.5024   22207143.4004
  20754253.193    -9427483.08849  -7333847.21749  20754255.6304   20754260.6064
  21927263.821     7207516.93149   5611140.21349  21927266.1084   21927272.2554
  24077552.745    -6582516.326 9  -4921276.679 9  24077555.657    24077562.576
 96  2 16 18  0 29.9990000  0  6 29 22 19 18 14 28
  20358824.547    -2753818.99249  -2139172.25149  20358827.8744   20358831.9324
  22323355.603     5519745.54849   4299170.77649  22323357.2504   22323362.4704
  22192680.581    -1545334.04849  -1187137.13649  22192682.8794   22192688.8074
  20741540.267    -9494291.07449  -7385905.38849  20741542.6144   20741547.5934
  21942826.057     7289297.03249   5674864.92449  21942828.3684   21942834.6644
  24062456.183    -6661848.607 9  -4983093.986 9  24062459.156    24062465.504
 96  2 16 18  0 59.9990000  0  6 29 22 19 18 14 28
  20357736.166    -2759541.65849  -2143631.48149  20357738.8994   20357743.0874
  22336870.488     5590762.33149   4354508.51349  22336871.5994   22336876.6104
  22178255.232    -1621138.96249  -1246205.87549  22178257.6714   22178263.6164
  20728871.113    -9560868.49249  -7437783.89149  20728873.2614   20728878.2544
  21958439.540     7371342.18149   5738796.16449  21958441.0254   21958447.5114
  24047395.836    -6740992.927 9  -5044764.800 9  24047398.576    24047405.210
 96  2 16 18  1 29.9990000  0  6 29 22 19 18 14 28
  20356707.445    -2764944.23749  -2147841.29049  20356710.8174   20356715.0064
  22350449.250     5662122.84549   4410114.07949  22350450.8484   22350456.5574
  22163855.549    -1696808.50349  -1305169.12149  22163858.0354   22163864.2454
  20716245.506    -9627217.86849  -7489484.69949  20716247.4264   20716252.4084
  21974104.094     7453665.18849   5802943.92349  21974106.9894   21974112.8744
  24032370.982    -6819949.462 9  -5106289.303 9  24032373.334    24032380.095
 96  2 16 18  1 59.9990000  0  6 29 22 19 18 14 28
  20355742.935    -2770016.82249  -2151793.96049  20355745.5014   20355749.6994
  22364093.837     5733829.41849   4465989.30249  22364096.2254   22364101.3334
  22149480.563    -1772351.15749  -1364033.50249  22149482.6404   22149488.9794
  20703666.116    -9693319.74749  -7540992.65149  20703668.5494   20703673.6574
  21989827.808     7536290.55249   5867327.29149  21989829.5834   21989835.7844
  24017384.669    -6898707.099 9  -5167658.809 9  24017386.115    24017393.326
 96  2 16 18  2 29.9990000  0  6 29 22 19 18 14 28
  20354841.327    -2774753.68749  -2155485.03349  20354844.1054   20354848.4694
  22377802.619     5805870.10349   4522124.88249  22377804.7994   22377810.5734
  22135128.893    -1847767.67149  -1422799.58649  22135131.5594   22135137.6074
  20691136.089    -9759168.31249  -7592303.21849  20691137.9194   20691143.4274
  22005610.797     7619225.05449   5931951.53749  22005611.7324   22005617.7634
  24002434.510    -6977264.118 9  -5228871.982 9  24002437.712    24002443.895
 96  2 16 18  2 59.9990000  0  6 29 22 19 18 14 28
  20354002.848    -2779161.27249  -2158919.52549  20354005.2844   20354009.8154
  22391568.567     5878204.92349   4578489.64649  22391570.1204   22391575.7534
  22120800.395    -1923064.24249  -1481472.20849  22120803.6764   22120809.1444
  20678652.247    -9824769.47949  -7643421.00849  20678654.5494   20678659.5304
  22021447.693     7702456.54149   5996807.20149  22021450.8374   22021456.6114
  23987525.782    -7055623.921 9  -5289931.476 9  23987526.601    23987532.435
 96  2 16 18  3 29.9990000  0  6 29 22 19 18 14 28
  20353225.727    -2783244.64949  -2162101.38249  20353228.3624   20353232.5524
  22405391.467     5950844.83749   4635092.15449  22405393.1284   22405398.7584
  22106497.882    -1998223.56649  -1540037.88749  22106500.6784   22106506.6094
  20666216.425    -9890121.93449  -7694344.99049  20666218.4854   20666223.2774
  22037339.855     7785969.92849   6061882.52649  22037342.5084   22037348.5864
  23972652.127    -7133778.025 9  -5350830.663 9  23972654.291    23972660.393
 96  2 16 18  3 59.9990000  0  6 29 22 19 18 14 28
  20352510.639    -2787005.34449  -2165031.80249  20352512.9014   20352517.1564
  22419271.395     6023786.32849   4691929.65549  22419273.0174   22419278.6724
  22092225.949    -2073224.12349  -1598479.85049  22092228.6124   22092234.5404
  20653829.184    -9955216.23849  -7745067.82049  20653831.4424   20653836.2224
  22053279.611     7869740.05949   6127157.91549  22053283.2154   22053289.9254
  23957819.915    -7211723.591 9  -5411567.341 9  23957821.385    23957827.517
 96  2 16 18  4 29.9990000  0  6 29 22 19 18 14 28
  20351856.750    -2790437.37349  -2167706.12449  20351859.7494   20351864.2314
  22433205.635     6097006.31149   4748984.16349  22433206.6924   22433212.1544
  22077989.586    -2148035.50949  -1656774.41249  22077992.6554   22077998.6064
  20641490.817   -10020055.29449  -7795591.75649  20641492.8034   20641497.8974
  22069267.398     7953748.91949   6192619.32049  22069269.8214   22069276.2894
  23943027.872    -7289455.351 9  -5472137.405 9  23943029.444    23943035.775
 96  2 16 18  4 59.9990000  0  6 29 22 19 18 14 28
  20351264.888    -2793547.64549  -2170129.71849  20351267.9004   20351272.4204
  22447193.978     6170517.36549   4806265.47949  22447194.9954   22447200.6844
  22063791.162    -2222648.41649  -1714914.31249  22063793.9004   22063800.0914
  20629201.652   -10084631.74649  -7845911.06549  20629204.6374   20629209.4234
  22085296.139     8037982.20849   6258255.61049  22085298.9224   22085304.2964
  23928277.074    -7366966.932 9  -5532535.894 9  23928279.517    23928285.902
 96  2 16 18  5 29.9990000  0  7 29 22 19 18 31 14 28
  20350729.576    -2796359.01649  -2172320.40849  20350732.7814   20350737.2174
  22461235.407     6244315.55249   4863770.53449  22461238.7324   22461244.0884
  22049626.291    -2297084.66549  -1772916.56549  22049629.3974   22049635.1834
  20616960.083   -10148964.59549  -7896040.55449  20616962.4454   20616967.2634
  24379038.226    -5693259.38059  -4188678.87659  24379042.6424   24379050.2874
  22101362.745     8122415.78649   6324047.97649  22101366.0024   22101371.9764
  23913566.956    -7444277.051 9  -5592777.382 9  23913567.619    23913574.079
 96  2 16 18  5 59.9990000  0  7 29 22 19 18 31 14 28
  20350257.199    -2798846.57049  -2174258.76849  20350259.5204   20350263.8114
  22475332.330     6318389.47449   4921490.45249  22475334.1584   22475339.4374
  22035496.151    -2371341.68349  -1830779.15249  22035498.8544   22035504.6344
  20604768.305   -10213033.87849  -7945964.66349  20604770.4784   20604775.4474
  24359526.403    -5795806.08449  -4268585.23449  24359528.6114   24359535.9304
  22117475.298     8207079.72349   6390019.82949  22117476.8834   22117483.4794
  23898896.181    -7521368.870 9  -5652848.760 9  23898897.276    23898903.820
 96  2 16 18  6 29.9990000  0  7 29 22 19 18 31 14 28
  20349845.066    -2801010.63049  -2175945.05549  20349847.9404   20349852.1564
  22489485.092     6392758.39049   4979440.23449  22489487.0334   22489491.3894
  22021395.465    -2445442.64349  -1888520.13649  22021397.8374   22021403.8844
  20592627.146   -10276834.04949  -7995679.08049  20592629.6944   20592634.6214
  24339994.412    -5898438.34849  -4348558.23349  24339997.6174   24340004.8364
  22133632.511     8291989.76049   6456183.45449  22133635.0954   22133641.7754
  23884269.189    -7598234.764 9  -5712744.106 9  23884270.359    23884276.203
 96  2 16 18  6 59.9990000  0  7 29 22 19 18 31 14 28
  20349496.742    -2802838.77949  -2177369.59849  20349499.7864   20349504.1944
  22503696.778     6467443.33349   5037636.26649  22503698.9074   22503703.5484
  22007320.655    -2519404.75449  -1946152.93449  22007323.2194   22007329.0034
  20580538.825   -10340359.71549  -8045179.59749  20580541.0834   20580546.2124
  24320447.981    -6001154.39649  -4428596.54849  24320451.2854   24320458.9314
  22149837.647     8377153.44249   6522544.71649  22149840.9624   22149847.3954
  23869684.962    -7674869.542 9  -5772459.367 9  23869687.371    23869693.333
 96  2 16 18  7 29.9990000  0  7 29 22 19 18 31 14 28
  20349218.372    -2804303.46449  -2178510.91949  20349220.9744   20349225.3684
  22517969.735     6542447.29849   5096080.88949  22517971.5354   22517976.7194
  21993274.733    -2593215.90549  -2003668.09349  21993277.5904   21993283.5384
  20568503.189   -10403603.97649  -8094460.83749  20568505.9854   20568511.3254
  24300889.188    -6103936.40249  -4508686.30649  24300891.9854   24300900.7324
  22166096.857     8462589.34049   6589118.09549  22166099.3704   22166105.4684
  23855147.964    -7751261.228 9  -5831985.196 9  23855149.822    23855155.914
 96  2 16 18  7 59.9990000  0  7 29 22 19 18 31 14 28
  20349005.862    -2805418.92849  -2179380.11549  20349008.7554   20349013.1134
  22532299.235     6617754.14349   5154761.52149  22532301.7284   22532307.0254
  21979254.948    -2666889.81649  -2061076.31849  21979257.3824   21979263.3074
  20556519.616   -10466581.78249  -8143534.44849  20556521.8124   20556526.9244
  24281320.306    -6206782.88849  -4588826.27149  24281321.5224   24281329.0264
  22182403.747     8548283.39549   6655892.63749  22182406.0734   22182412.5074
  23840655.073    -7827421.970 9  -5891331.076 9  23840657.241    23840662.966
 96  2 16 18  8 29.9990000  0  7 29 22 19 18 31 14 28
  20348862.923    -2806170.02949  -2179965.39549  20348866.0494   20348870.0394
  22546694.352     6693399.08849   5213705.60949  22546696.7714   22546702.0214
  21965266.788    -2740400.65249  -2118357.46449  21965269.0364   21965275.1924
  20544588.777   -10529278.27749  -8192388.85749  20544591.0454   20544596.1784
  24261742.324    -6309660.68549  -4668990.63449  24261744.1044   24261751.3444
  22198761.770     8634243.25249   6722874.29449  22198764.0574   22198770.2014
  23826209.632    -7903331.663 9  -5950481.352 9  23826211.860    23826217.840
 96  2 16 18  8 59.9990000  0  7 29 22 19 18 31 14 28
  20348790.915    -2806550.40649  -2180261.79949  20348793.6784   20348797.8974
  22561150.598     6769359.58449   5272895.57949  22561151.8104   22561157.1074
  21951311.920    -2813730.97449  -2175497.94849  21951314.9224   21951320.8084
  20532709.400   -10591703.48149  -8241031.87249  20532711.9704   20532717.0984
  24242160.391    -6412571.73249  -4749180.96349  24242161.3864   24242168.7234
  22215169.126     8720464.70949   6790059.80349  22215171.1694   22215177.6454
  23811810.753    -7978996.929 9  -6009441.168 9  23811813.036    23811819.011
 96  2 16 18  9 29.9990000  0  7 29 22 19 18 31 14 28
  20348786.689    -2806570.28349  -2180277.29749  20348789.9284   20348794.0374
  22575663.020     6845628.68349   5332326.02049  22575664.7984   22575669.9524
  21937394.554    -2886870.07649  -2232489.43049  21937397.1224   21937402.8874
  20520885.238   -10653843.79849  -8289452.89949  20520887.0274   20520891.9444
  24222574.140    -6515493.57849  -4829379.67049  24222574.8254   24222583.4094
  22231627.904     8806960.97849   6857459.44649  22231631.2234   22231637.1444
  23797460.628    -8054410.817 9  -6068205.117 9  23797462.414    23797468.014
 96  2 16 18  9 59.9990000  0  7 29 22 19 18 31 14 28
  20348850.096    -2806239.07049  -2180019.21649  20348853.0054   20348857.0814
  22590233.112     6922194.54949   5391987.70349  22590235.2334   22590240.0674
  21923511.711    -2959821.16149  -2289334.40449  21923514.7274   21923520.9724
  20509114.160   -10715699.84349  -8337652.41249  20509116.3464   20509121.4934
  24202989.107    -6618416.81049  -4909579.50249  24202988.5744   24202996.9314
  22248138.934     8893723.46349   6925066.53449  22248141.2254   22248147.2884
  23783158.144    -8129570.038 9  -6126770.644 9  23783159.749    23783165.601
 96  2 16 18 10 29.9990000  0  7 29 22 19 18 31 14 28
  20348979.449    -2805557.40149  -2179488.05649  20348982.2704   20348986.8254
  22604856.078     6999035.92149   5451864.07349  22604857.7944   22604862.9514
  21909666.222    -3032578.49949  -2346028.40849  21909669.4414   21909675.6804
  20497397.249   -10777272.76549  -8385631.31449  20497399.5664   20497404.5164
  24183400.197    -6721351.29149  -4989788.11949  24183401.7654   24183409.1624
  22264696.942     8980733.95949   6992866.88349  22264698.9914   22264704.7824
  23768903.244    -8204477.831 9  -6185140.268 9  23768905.515    23768911.201
 96  2 16 18 10 59.9990000  0  8 29 22 19 18 31 14 27 28
  20349173.253    -2804541.22249  -2178696.24049  20349175.7324   20349180.0424
  22619526.220     7076137.58849   5511943.26449  22619529.5244   22619534.5974
  21895858.031    -3105142.46149  -2402571.73449  21895860.8814   21895866.6724
  20485735.622   -10838552.73749  -8433381.94049  20485738.2734   20485743.2034
  24163811.061    -6824284.71749  -5069995.92149  24163814.1684   24163821.8534
  22281298.239     9067977.48749   7060848.81449  22281300.7614   22281307.3724
  24796573.142    -5598799.28559  -4349634.04259  24796574.9694   24796582.5774
  23754698.450    -8279130.325 9  -6243310.963 9  23754699.272    23754705.198
 96  2 16 18 11 29.9990000  0  8 29 22 19 18 31 14 27 28
  20349425.219    -2803213.05849  -2177661.31749  20349428.6884   20349433.0404
  22634248.211     7153497.50849   5572223.69649  22634250.3784   22634255.8784
  21882085.376    -3177520.53849  -2458970.20949  21882087.9934   21882093.4044
  20474132.040   -10899529.48449  -8480896.28649  20474134.6474   20474139.6204
  24144222.095    -6927216.90649  -5150202.77949  24144226.4524   24144234.7414
  22297940.553     9155430.95849   7128994.32849  22297942.7984   22297949.8294
  24778594.099    -5693274.85949  -4423251.30249  24778596.8274   24778603.9394
  23740542.199    -8353521.268 9  -6301277.864 9  23740543.254    23740549.114
 96  2 16 18 11 59.9990000  0  8 29 22 19 18 31 14 27 28
  20349739.386    -2801567.06749  -2176378.72949  20349741.8444   20349746.3654
  22649019.940     7231125.12349   5632712.72049  22649022.8494   22649028.2224
  21868349.006    -3249705.24149  -2515218.00049  21868351.2744   21868357.2384
  20462586.954   -10960203.79849  -8528174.96849  20462588.7514   20462593.7534
  24124633.726    -7030162.13549  -5230419.74149  24124635.7174   24124644.6354
  22314619.545     9243078.79149   7197291.29449  22314621.7994   22314628.2204
  24760626.000    -5787693.93449  -4496824.54249  24760629.2574   24760636.6174
  23726435.621    -8427642.948 9  -6359034.959 9  23726438.210    23726443.859
 96  2 16 18 12 29.9990000  0  8 29 22 19 18 31 14 27 28
  20350113.086    -2799602.13249  -2174847.62149  20350115.9324   20350120.0194
  22663845.756     7309027.57749   5693415.89649  22663847.2374   22663852.4194
  21854648.240    -3321704.28649  -2571321.13049  21854650.4554   21854656.6994
  20451098.574   -11020572.45449  -8575215.47949  20451100.8634   20451105.9784
  24105035.849    -7133138.83949  -5310661.28349  24105039.9384   24105049.1344
  22331335.930     9330921.03449   7265739.75049  22331337.5774   22331343.7684
  24742675.676    -5882024.02649  -4570328.47149  24742679.7814   24742685.7294
  23712383.624    -8501492.741 9  -6416580.204 9  23712384.914    23712390.733
 96  2 16 18 12 59.9990000  0  8 29 22 19 18 31 14 27 28
  20350545.829    -2797328.12949  -2173075.68649  20350548.7154   20350553.2004
  22678721.704     7387203.16449   5754331.91249  22678723.1384   22678728.5404
  21840976.446    -3393547.10949  -2627302.53049  21840979.3724   21840985.0554
  20439667.267   -11080646.46049  -8622026.39149  20439669.2484   20439674.2264
  24085431.930    -7236161.93949  -5390938.99249  24085436.6754   24085444.7524
  22348089.155     9418965.89149   7334346.08649  22348091.9274   22348098.7274
  24724745.637    -5976253.78749  -4643754.22649  24724747.4364   24724754.1924
  23698381.637    -8575073.633 9  -6473915.922 9  23698383.259    23698388.598
 96  2 16 18 13 29.9990000  0  8 29 22 19 18 31 14 27 28
  20351044.235    -2794707.91049  -2171033.96749  20351047.3374   20351051.6404
  22693653.024     7465663.85049   5815470.09249  22693653.9774   22693658.6744
  21827335.492    -3465233.66449  -2683162.15749  21827338.1634   21827343.6214
  20428290.541   -11140428.24049  -8668609.59149  20428293.0954   20428298.0274
  24065819.398    -7339236.98449  -5471257.16349  24065821.8974   24065828.8744
  22364889.468     9507247.79249   7403137.12449  22364891.4224   22364898.3044
  24706830.687    -6070392.61649  -4717109.12249  24706833.3874   24706841.2334
  23684432.111    -8648375.430 9  -6531034.173 9  23684434.033    23684439.326
 96  2 16 18 13 59.9990000  0  8 29 22 19 18 31 14 27 28
  20351614.740    -2791708.58649  -2168696.84249  20351618.0464   20351622.4484
  22708636.849     7544410.33549   5876830.96449  22708638.9634   22708644.3034
  21813722.235    -3536771.52949  -2738905.92449  21813724.8534   21813730.5824
  20416969.279   -11199925.09549  -8714970.77449  20416971.1494   20416976.2274
  24046198.357    -7442343.72649  -5551600.02749  24046201.2124   24046209.4124
  22381737.160     9595782.31649   7472125.01549  22381738.9914   22381745.5564
  24688929.498    -6164465.59449  -4790412.69449  24688931.0514   24688939.1064
  23670538.215    -8721390.385 9  -6587928.898 9  23670539.618    23670545.445
 96  2 16 18 14 29.9990000  0  8 29 22 19 18 31 14 27 28
  20352260.904    -2788317.95349  -2166054.79949  20352263.4904   20352267.7484
  22723674.648     7623433.42749   5938407.35749  22723676.5004   22723682.1034
  21800136.345    -3608168.86249  -2794540.19149  21800138.5604   21800144.1424
  20405701.553   -11259135.48049  -8761108.73549  20405703.8794   20405709.0134
  24026576.467    -7545457.46049  -5631948.32249  24026579.6544   24026587.3374
  22398632.241     9684574.43349   7541313.63749  22398635.8894   22398642.5274
  24671034.486    -6258503.82249  -4863689.19049  24671036.3134   24671042.3304
  23656698.001    -8794113.419 9  -6644596.147 9  23656700.931    23656706.752
 96  2 16 18 14 59.9990000  0  8 29 22 19 18 31 14 27 28
  20352978.586    -2784542.29149  -2163112.73649  20352981.3734   20352986.0104
  22738759.568     7702710.77849   6000181.89549  22738762.2464   22738767.6034
  21786575.326    -3679428.14149  -2850066.87849  21786578.0774   21786584.0494
  20394487.145   -11318067.79349  -8807030.01849  20394489.4194   20394494.4904
  24006955.669    -7648563.12749  -5712290.34649  24006959.1004   24006967.0464
  22415575.236     9773604.20549   7610687.44249  22415577.0194   22415584.3284
  24653134.595    -6352560.72849  -4936980.22849  24653138.0824   24653144.5294
  23642913.015    -8866556.957 9  -6701045.612 9  23642915.264    23642921.163
 96  2 16 18 15 29.9990000  0  8 29 22 19 18 31 14 27 28
  20353773.060    -2780369.90649  -2159861.53549  20353775.7274   20353780.0744
  22753895.834     7782244.63449   6062156.30449  22753897.5864   22753903.1234
  21773046.503    -3750522.49949  -2905465.06449  21773049.1244   21773054.9804
  20383328.109   -11376709.28649  -8852724.68349  20383330.4504   20383335.4714
  23987345.170    -7751623.98449  -5792597.41949  23987347.3254   23987354.9544
  22432560.392     9862861.78949   7680238.75849  22432562.0744   22432568.9844
  24635232.705    -6446645.12849  -5010292.69649  24635234.7734   24635242.0494
  23629182.891    -8938709.962 9  -6757268.679 9  23629184.978    23629190.683
 96  2 16 18 15 59.9990000  0  8 29 22 19 18 31 14 27 28
  20354638.763    -2775816.00449  -2156313.05049  20354642.1944   20354646.5124
  22769079.109     7862035.04349   6124330.61949  22769080.9564   22769087.0964
  21759550.981    -3821439.69949  -2960725.19649  21759553.6264   21759559.9424
  20372226.584   -11435048.12749  -8898183.52149  20372228.7684   20372233.6654
  23967742.273    -7854628.33649  -5872860.46049  23967746.3594   23967754.0244
  22449581.472     9952318.48149   7749945.22449  22449585.4924   22449592.5244
  24617327.545    -6540732.27649  -5083607.31549  24617331.1914   24617337.3964
  23615510.086    -9010566.634 9  -6813260.856 9  23615511.295    23615516.933
 96  2 16 18 16 29.9990000  0  8 29 22 19 18 31 14 27 28
  20355576.867    -2770885.97349  -2152471.47149  20355580.6204   20355584.7244
  22784312.796     7942091.76449   6186712.45749  22784315.1594   22784320.8004
  21746093.591    -3892159.61249  -3015831.60249  21746096.6084   21746102.2854
  20361186.998   -11493062.38749  -8943389.43249  20361189.0504   20361194.0884
  23948151.338    -7957580.36749  -5953082.71149  23948154.9824   23948162.6764
  22466645.096    10041975.75049   7819807.98349  22466646.9444   22466653.9024
  24599429.137    -6634796.03349  -5156903.69449  24599430.7694   24599438.1174
  23601892.668    -9082122.448 9  -6869018.582 9  23601894.608    23601900.050
 96  2 16 18 16 59.9990000  0  8 29 22 19 18 31 14 27 28
  20356584.885    -2765594.11849  -2148347.96049  20356587.3734   20356591.6984
  22799597.181     8022410.31949   6249298.32249  22799598.9284   22799605.0524
  21732673.431    -3962681.44149  -3070783.65949  21732676.5284   21732682.7174
  20350208.953   -11550750.65449  -8988341.32849  20350211.4254   20350216.4814
  23928568.158    -8060490.63349  -6033272.42549  23928572.2524   23928579.3374
  22483741.553    10131820.60949   7889816.91549  22483744.1484   22483749.9754
  24581535.211    -6728820.49049  -5230169.46049  24581538.2964   24581545.6964
  23588332.747    -9153382.117 9  -6924545.549 9  23588334.262    23588340.006
 96  2 16 18 17 29.9990000  0  8 29 22 19 18 31 14 27 28
  20357658.005    -2759951.10049  -2143950.81349  20357661.2454   20357665.6094
  22814931.980     8102994.12649   6312090.86249  22814934.3614   22814940.2344
  21719288.579    -4033026.26549  -3125597.79349  21719290.4354   21719296.2494
  20339292.584   -11608116.10549  -9033041.67449  20339295.0644   20339300.3874
  23908990.866    -8163378.61049  -6113444.76349  23908992.4704   23909000.2484
  22500872.129    10221844.96949   7959965.71949  22500875.3854   22500881.2164
  24563655.459    -6822780.62449  -5303385.08449  24563657.4754   24563665.0034
  23574828.931    -9224344.450 9  -6979840.821 9  23574830.324    23574836.433
 96  2 16 18 17 59.9990000  0  8 29 22 19 18 31 14 27 28
  20358799.931    -2753952.25149  -2139276.39149  20358802.7264   20358807.0004
  22830318.640     8183847.83649   6375093.72449  22830319.8894   22830325.7884
  21705934.775    -4103199.90749  -3180278.53649  21705936.8444   21705943.1024
  20328440.818   -11665143.48249  -9077478.58749  20328443.0034   20328448.2634
  23889412.396    -8266259.10649  -6193611.25649  23889414.4794   23889422.9214
  22518037.958    10312050.10649   8030255.39449  22518040.7944   22518047.5264
  24545790.817    -6916661.59749  -5376539.03249  24545792.8784   24545800.3124
  23561383.523    -9295000.254 9  -7034897.239 9  23561385.244    23561391.153
 96  2 16 18 18 29.9990000  0  8 29 22 19 18 31 14 27 28
  20360007.870    -2747606.46649  -2134331.63549  20360010.4874   20360014.6864
  22845751.154     8264950.47449   6438290.54949  22845753.5364   22845759.0284
  21692608.918    -4173225.29749  -3234843.75949  21692611.3444   21692617.7774
  20317651.731   -11721837.71749  -9121655.91149  20317654.5964   20317659.9384
  23869833.353    -8369143.49649  -6273780.79349  23869836.8314   23869844.1244
  22535237.661    10402434.18949   8100684.50249  22535240.0394   22535246.7214
  24527934.253    -7010496.39949  -5449656.99949  24527937.0744   24527943.2894
  23547993.543    -9365357.920 9  -7089721.346 9  23547996.550    23548002.336
 96  2 16 18 18 59.9990000  0  8 29 22 19 18 31 14 27 28
  20361281.723    -2740911.15449  -2129114.52149  20361284.4974   20361288.7064
  22861230.605     8346293.11449   6501674.39049  22861232.0184   22861238.1604
  21679312.392    -4243097.18249  -3289289.36549  21679315.0724   21679321.1004
  20306927.965   -11778194.42049  -9165570.22049  20306930.3424   20306935.4904
  23850258.312    -8472008.21849  -6353934.99849  23850261.9474   23850270.1294
  22552469.845    10492995.31049   8171251.55649  22552473.6054   22552479.4374
  24510090.299    -7104275.99149  -5522731.94649  24510091.8804   24510098.5544
  23534664.150    -9435405.600 9  -7144303.907 9  23534666.968    23534672.723
 96  2 16 18 19 29.9990000  0  8 29 22 19 18 31 14 27 28
  20362624.814    -2733852.41849  -2123614.22249  20362627.8614   20362632.1864
  22876753.896     8427869.42349   6565240.31449  22876756.1874   22876761.0134
  21666045.319    -4312811.17849  -3343611.95049  21666049.1044   21666055.0074
  20296268.631   -11834209.74049  -9209218.51649  20296270.8434   20296275.9484
  23830689.819    -8574851.14249  -6434072.22549  23830691.2314   23830698.1994
  22569739.491    10583741.30549   8241962.66849  22569742.1134   22569748.8184
  24492254.202    -7197998.03249  -5595762.08249  24492256.4934   24492263.3064
  23521394.516    -9505138.981 9  -7198641.550 9  23521397.215    23521402.490
 96  2 16 18 19 59.9990000  0  8 29 22 19 18 31 14 27 28
  20364037.814    -2726427.36349  -2117828.47349  20364040.7204   20364045.1474
  22892320.427     8509674.62249   6628984.59449  22892323.0794   22892328.4434
  21652814.473    -4382344.36749  -3397793.64049  21652817.2814   21652823.3924
  20285675.838   -11889874.14349  -9252593.37049  20285678.3874   20285683.3874
  23811124.590    -8677658.03049  -6514181.37249  23811128.1734   23811134.5194
  22587042.929    10674681.52949   8312825.12149  22587046.4064   22587053.3844
  24474427.505    -7291678.65549  -5668759.92249  24474429.6004   24474436.6374
  23508185.185    -9574553.442 9  -7252730.694 9  23508187.438    23508193.280
 96  2 16 18 20 29.9990000  0  8 29 22 19 18 31 14 27 28
  20365518.018    -2718647.75849  -2111766.45649  20365521.0974   20365525.4944
  22907929.267     8591698.32549   6692899.13449  22907931.2604   22907936.7644
  21639616.378    -4451700.66349  -3451837.49849  21639619.2154   21639625.1534
  20275145.956   -11945209.94349  -9295712.17149  20275148.1584   20275153.3694
  23791570.114    -8780422.51449  -6594257.49549  23791572.2444   23791579.3844
  22604386.320    10765808.71549   8383833.25949  22604388.1084   22604395.0534
  24456603.906    -7385330.08149  -5741735.02349  24456608.4914   24456616.3384
  23495034.108    -9643660.349 9  -7306580.181 9  23495036.909    23495042.731
 96  2 16 18 20 59.9990000  0  8 29 22 19 18 31 14 27 28
  20367066.333    -2710511.92149  -2105426.85749  20367069.3154   20367073.9714
  22923581.304     8673947.10649   6756989.05649  22923582.7284   22923588.4464
  21626453.272    -4520872.91249  -3505737.93649  21626456.1764   21626462.1234
  20264675.853   -12000228.92149  -9338584.09549  20264678.6614   20264683.8144
  23772021.774    -8883151.41049  -6674305.87249  23772023.9184   23772030.5894
  22621761.332    10857115.92549   8454981.67949  22621762.8934   22621770.3294
  24438794.956    -7478934.20149  -5814673.22949  24438796.2804   24438802.6884
  23481942.314    -9712459.599 9  -7360189.942 9  23481944.818    23481950.355
 96  2 16 18 21 29.9990000  0  8 29 22 19 18 31 14 27 28
  20368683.992    -2702010.09649  -2098802.07049  20368687.1914   20368691.6714
  22939276.812     8756434.65849   6821265.03549  22939280.2034   22939284.8694
  21613326.372    -4589854.55849  -3559489.85549  21613329.3914   21613335.0574
  20254267.323   -12054926.32749  -9381205.44649  20254270.1104   20254275.0424
  23752477.626    -8985850.82849  -6754331.27849  23752480.0624   23752488.8464
  22639171.022    10948614.96149   8526279.56249  22639174.5764   22639181.3324
  24420986.664    -7572501.99549  -5887583.12849  24420990.0544   24420997.9844
  23468911.039    -9780942.182 9  -7413552.941 9  23468912.678    23468918.856
 96  2 16 18 21 59.9990000  0  8 29 22 19 18 31 14 27 28
  20370371.514    -2693143.64949  -2091893.16449  20370374.6414   20370378.6534
  22955022.227     8839174.02549   6885737.22249  22955024.5274   22955029.8894
  21600236.240    -4658643.97649  -3613091.98949  21600239.2794   21600245.2024
  20243921.050   -12109296.29849  -9423571.65049  20243923.7254   20243928.7924
  23732946.762    -9088503.37449  -6834320.18149  23732947.1614   23732952.7164
  22656617.590    11040297.14549   8597720.16049  22656621.6584   22656628.8824
  24403191.118    -7666023.30649  -5960456.83849  24403194.0664   24403201.5454
  23455942.538    -9849093.902 9  -7466658.137 9  23455944.162    23455949.999
 96  2 16 18 22 29.9990000  0  8 29 22 19 18 31 14 27 28
  20372129.920    -2683902.81649  -2084692.52449  20372132.8554   20372137.6094
  22970816.489     8922167.42249   6950407.36649  22970817.8004   22970823.7704
  21587181.873    -4727245.77849  -3666547.92449  21587184.8124   21587190.5444
  20233638.131   -12163335.61549  -9465680.20749  20233640.2824   20233645.4034
  23713419.346    -9191104.17749  -6914268.74149  23713421.2964   23713429.0564
  22674097.899    11132151.54249   8669294.95349  22674100.8164   22674107.2674
  24385408.751    -7759468.81849  -6033271.45049  24385411.5584   24385419.2864
  23443039.107    -9916902.513 9  -7519495.953 9  23443040.706    23443046.514
 96  2 16 18 22 59.9990000  0  8 29 22 19 18 31 14 27 28
  20373956.605    -2674305.74949  -2077214.30249  20373959.2684   20373963.7774
  22986650.435     9005380.23549   7015248.46949  22986652.8344   22986657.9684
  21574158.845    -4795683.40549  -3719875.93049  21574161.4444   21574167.6814
  20223416.642   -12217046.06649  -9507532.50549  20223419.6684   20223424.5464
  23693902.579    -9293665.26349  -6994186.36649  23693904.7794   23693913.0074
  22691606.674    11224158.56949   8740988.70049  22691609.8614   22691616.2294
  24367638.529    -7852856.52649  -6106041.02949  24367640.9434   24367648.6824
  23430198.068    -9984379.159 9  -7572075.110 9  23430200.134    23430206.103
 96  2 16 18 23 29.9990000  0  8 29 22 19 18 31 14 27 28
  20375849.488    -2664355.77149  -2069461.08349  20375852.6634   20375856.9864
  23002525.576     9088801.46049   7080251.96949  23002527.5734   23002532.9324
  21561164.519    -4863968.44249  -3773085.02849  21561167.4044   21561173.1464
  20213260.242   -12270421.06449  -9549123.40549  20213262.6444   20213267.4674
  23674395.205    -9396172.72149  -7074062.20849  23674398.5444   23674405.7334
  22709143.479    11316314.19349   8812798.21649  22709146.1194   22709151.8764
  24349874.876    -7946197.04749  -6178773.87049  24349878.5464   24349885.9244
  23417421.908   -10051519.371 9  -7624392.117 9  23417424.039    23417429.311
 96  2 16 18 23 59.9990000  0  8 29 22 19 18 31 14 27 28
  20377810.652    -2654051.68349  -2061431.93349  20377813.5204   20377817.8404
  23018439.413     9172424.04849   7145412.38749  23018440.4374   23018445.9994
  21548197.982    -4932108.79849  -3826181.38849  21548200.5994   21548206.2884
  20203167.566   -12323459.23049  -9590451.84349  20203169.9154   20203174.6954
  23654901.560    -9498616.11349  -7153888.13349  23654904.6374   23654911.5464
  22726706.701    11408609.11749   8884716.28449  22726709.6094   22726716.0294
  24332124.514    -8039475.18649  -6251458.09849  24332128.3984   24332135.7834
  23404709.813   -10118320.424 9  -7676444.851 9  23404712.255    23404717.378
 96  2 16 18 24 29.9990000  0  8 29 22 19 18 31 14 27 28
  20379838.965    -2643393.03049  -2053126.49849  20379841.8114   20379846.2054
  23034383.183     9256217.20449   7210705.71849  23034385.4474   23034391.4894
  21535258.817    -5000103.98849  -3879164.63849  21535261.3724   21535267.2314
  20193135.684   -12376176.51249  -9631530.24349  20193138.0324   20193143.1294
  23635416.233    -9601007.00049  -7233673.13849  23635419.4884   23635426.7584
  22744298.234    11501049.15849   8956747.41849  22744300.2674   22744306.7844
  24314381.772    -8132720.78549  -6324116.94549  24314384.2984   24314391.8394
  23392060.036   -10184795.777 9  -7728243.802 9  23392062.043    23392067.138
 96  2 16 18 24 59.9990000  0  8 29 22 19 18 31 14 27 28
  20381939.149    -2632354.07049  -2044524.72449  20381942.3844   20381946.8434
  23050361.774     9340195.70749   7276143.46949  23050365.6634   23050371.6624
  21522352.988    -5067925.80649  -3932012.78949  21522355.3124   21522361.1524
  20183166.464   -12428564.90249  -9672352.36449  20183168.8284   20183173.7164
  23615946.369    -9703318.89249  -7313396.57249  23615950.3674   23615957.8304
  22761919.086    11593661.20549   9028912.59249  22761923.5284   22761929.7764
  24296643.487    -8225932.21949  -6396749.18149  24296646.4954   24296653.8684
  23379474.820   -10250931.416 9  -7779778.047 9  23379477.053    23379482.121
 96  2 16 18 25 29.9990000  0  8 29 22 19 18 31 14 27 28
  20384120.710    -2620889.17449  -2035591.05249  20384124.1634   20384128.5214
  23066386.360     9424396.45849   7341754.40249  23066388.9644   23066394.6324
  21509487.118    -5135531.92249  -3984692.87049  21509490.3414   21509495.9204
  20173263.569   -12480603.58349  -9712901.98749  20173266.2634   20173271.3234
  23596498.142    -9805534.85249  -7393045.25749  23596498.7484   23596506.9454
  22779581.710    11686465.16949   9101227.30749  22779584.1344   22779589.7394
  24278918.619    -8319075.42349  -6469328.25349  24278921.8904   24278929.4334
  23366959.184   -10316699.268 9  -7831025.702 9  23366961.777    23366967.064
 96  2 16 18 25 59.9990000  0  8 29 22 19 18 31 14 27 28
  20386379.975    -2609021.20849  -2026343.29749  20386382.4924   20386387.0184
  23082447.532     9508789.46549   7407515.15049  23082447.9784   23082454.6164
  21496661.375    -5202934.02749  -4037213.96849  21496664.0694   21496670.0464
  20163422.555   -12532317.87249  -9753198.83749  20163425.2364   20163430.2844
  23577055.121    -9907687.71949  -7472644.79149  23577060.7834   23577067.4384
  22797271.232    11779433.77049   9173670.30549  22797275.4884   22797282.2024
  24261202.129    -8412183.63749  -6541880.06049  24261204.2624   24261211.7384
  23354509.169   -10382128.512 9  -7882009.490 9  23354511.214    23354516.744
 96  2 16 18 26 29.9990000  0  8 29 22 19 18 31 14 27 28
  20388718.132    -2596733.94049  -2016768.80949  20388720.9504   20388725.1534
  23098549.084     9593405.68549   7473449.82049  23098550.5854   23098556.0234
  21483878.891    -5270106.90449  -4089556.45149  21483881.5094   21483887.7164
  20153648.336   -12583681.29249  -9793222.27649  20153651.2414   20153656.3234
  23557635.557   -10009760.16249  -7552181.68449  23557636.8474   23557642.9064
  22814996.777    11872582.80449   9246253.89049  22815000.8334   22815007.4224
  24243493.502    -8505242.27949  -6614393.24049  24243496.4064   24243503.2664
  23342127.059   -10447199.941 9  -7932714.468 9  23342128.476    23342133.847
 96  2 16 18 26 59.9990000  0  8 29 22 19 18 31 14 27 28
  20391127.329    -2584067.92149  -2006899.19449  20391130.9474   20391135.4204
  23114692.695     9678246.33449   7539559.39449  23114694.9384   23114700.8794
  21471133.777    -5337083.11749  -4141745.69249  21471136.4984   21471142.2964
  20143941.928   -12634693.34249  -9832971.92749  20143943.8594   20143948.7674
  23538220.111   -10111772.30749  -7631671.57649  23538224.4294   23538230.5184
  22832750.611    11965874.47549   9318948.63049  22832753.5584   22832760.4524
  24225792.097    -8598259.01649  -6686873.76549  24225795.2214   24225802.6984
  23329808.831   -10511928.372 9  -7983152.181 9  23329810.935    23329816.536
 96  2 16 18 27 29.9990000  0  8 29 22 19 18 31 14 27 28
  20393608.003    -2571034.33349  -1996743.15849  20393611.3774   20393615.9114
  23130880.598     9763315.61049   7605847.10649  23130883.0814   23130889.5634
  21458424.760    -5403867.01049  -4193785.07549  21458428.1824   21458433.6314
  20134306.513   -12685323.84549  -9872424.26649  20134309.0434   20134314.3234
  23518822.638   -10213712.17249  -7711105.12549  23518825.8084   23518832.1744
  22850530.136    12059311.20349   9391756.40049  22850534.0264   22850541.5134
  24208103.199    -8691223.90049  -6759313.88249  24208104.8814   24208111.3184
  23317559.851   -10576297.708 9  -8033310.076 9  23317561.936    23317566.834
 96  2 16 18 27 59.9990000  0  8 29 22 19 18 31 14 27 28
  20396151.914    -2557663.60449  -1986324.42149  20396155.4824   20396160.1954
  23147112.858     9848613.32949   7672312.81549  23147115.2304   23147120.1504
  21445747.944    -5470484.19549  -4245694.55149  21445750.7934   21445756.7504
  20124743.642   -12735578.22049  -9911583.51849  20124746.1524   20124750.9764
  23499440.641   -10315558.24449  -7790465.58649  23499444.4594   23499451.9244
  22868338.713    12152893.21549   9464677.38449  22868341.7884   22868349.6694
  24190417.897    -8784150.11549  -6831723.88049  24190421.4504   24190429.4974
  23305378.712   -10640307.217 9  -8083187.588 9  23305381.203    23305386.372
 96  2 16 18 28 29.9990000  0  8 29 22 19 18 31 14 27 28
  20398760.177    -2543960.84549  -1975646.95749  20398763.0874   20398767.6504
  23163384.186     9934122.45749   7738943.28049  23163387.3024   23163392.9904
  21433100.217    -5536950.13349  -4297486.17249  21433103.1184   21433108.9424
  20115251.333   -12785459.88549  -9950452.34949  20115253.7754   20115258.7374
  23480083.804   -10417291.95049  -7869738.48649  23480084.8854   23480092.6044
  22886174.009    12246610.93849   9537704.11449  22886175.9674   22886182.8664
  24172744.352    -8877029.22449  -6904097.16149  24172747.8904   24172753.9694
  23293266.839   -10703952.575 9  -8132781.358 9  23293269.440    23293274.764
 96  2 16 18 28 59.9990000  0  8 29 22 19 18 31 14 27 28
  20401429.686    -2529931.48849  -1964715.00149  20401432.8544   20401437.4284
  23179689.949    10019803.20049   7805707.45449  23179691.1304   23179697.6304
  21420477.899    -5603277.42249  -4349169.75449  21420481.3314   21420487.2284
  20105825.781   -12834991.07349  -9989048.08049  20105828.4644   20105833.5734
  23460742.382   -10518919.23149  -7948928.43749  23460746.0844   23460753.5624
  22904029.838    12340446.52349   9610822.68649  22904033.0724   22904039.6084
  24155077.755    -8969869.52949  -6976440.21349  24155080.5164   24155086.9474
  23281225.214   -10767239.470 9  -8182095.796 9  23281226.559    23281231.729
 96  2 16 18 29 29.9990000  0  8 29 22 19 18 31 14 27 28
  20404166.085    -2515552.69249  -1953510.75749  20404168.9934   20404173.6184
  23196024.208    10105644.10649   7872596.42949  23196026.0484   23196032.0784
  21407882.367    -5669470.10449  -4400748.44749  21407885.2624   21407890.9184
  20096463.754   -12884190.01249 -10027384.90949  20096466.2504   20096471.4994
  23441426.524   -10620426.86449  -8028025.12149  23441429.2954   23441437.9114
  22921907.595    12434399.25649   9684032.54349  22921912.0464   22921918.0174
  24137417.799    -9062666.35149  -7048749.36649  24137421.4764   24137428.3694
  23269251.362   -10830163.165 9  -8231127.225 9  23269252.815    23269257.944
 96  2 16 18 29 59.9990000  0  8 29 22 19 18 31 14 27 28
  20406971.976    -2500807.89149  -1942021.31249  20406974.8094   20406979.3604
  23212388.544    10191648.68749   7939612.94649  23212391.8504   23212397.8824
  21395312.156    -5735525.49149  -4452220.16349  21395315.5034   21395321.1614
  20087162.339   -12933066.00749 -10065470.10049  20087165.5014   20087170.6184
  23422133.627   -10721820.16149  -8107032.71349  23422134.8324   23422142.4114
  22939808.122    12528461.30549   9757327.58749  22939810.2854   22939816.9004
  24119768.507    -9155418.44849  -7121023.65649  24119771.1904   24119778.5024
  23257344.937   -10892724.757 9  -8279876.492 9  23257347.466    23257352.740
 96  2 16 18 30 29.9990000  0  8 29 22 19 18 31 14 27 28
  20409854.782    -2485656.65449  -1930215.16549  20409857.9934   20409862.4754
  23228788.644    10277826.80549   8006764.69349  23228791.6344   23228797.6414
  21382774.618    -5801412.20349  -4503560.43949  21382777.6054   21382783.0104
  20077928.770   -12981594.18749 -10103284.26349  20077930.7764   20077935.7464
  23402859.686   -10823103.21849  -8185954.37949  23402861.9794   23402868.2404
  22957731.216    12622637.89649   9830711.89849  22957732.0844   22957738.6204
  24102131.092    -9248106.60949  -7193248.15049  24102133.6164   24102140.3104
  23245512.172   -10954907.399 9  -8328330.476 9  23245514.729    23245519.966
 96  2 16 18 30 59.9990000  0  8 29 22 19 18 31 14 27 28
  20412818.310    -2470086.73149  -1918082.77649  20412821.0994   20412825.5764
  23245225.466    10364197.82049   8074066.74849  23245227.1194   23245232.9214
  21370269.036    -5867129.09549  -4554768.38949  21370272.0684   21370277.3434
  20068762.825   -13029759.88249 -10140815.97349  20068765.3224   20068770.1674
  23383604.866   -10924283.75949  -8264796.13549  23383607.4394   23383614.2224
  22975671.513    12716931.70449   9904187.52749  22975675.6864   22975683.4294
  24084502.477    -9340737.56549  -7265428.07449  24084506.2494   24084512.8744
  23233750.700   -11016710.789 9  -8376488.941 9  23233753.635    23233759.542
 96  2 16 18 31 29.9990000  0  8 29 22 19 18 31 14 27 28
  20415858.600    -2454107.21149  -1905631.20949  20415861.8254   20415866.3014
  23261698.435    10450764.66149   8141521.38849  23261700.4964   23261705.6904
  21357795.184    -5932679.63249  -4605846.71349  21357798.1314   21357803.7504
  20059667.260   -13077557.49849 -10178060.86649  20059669.9954   20059674.7594
  23364370.521   -11025356.83449  -8343554.16849  23364373.6924   23364380.3464
  22993635.594    12811340.39949   9977752.66249  22993640.9604   22993648.9074
  24066884.675    -9433327.99549  -7337576.40949  24066885.9514   24066893.9994
  23222061.226   -11078140.749 9  -8424356.420 9  23222064.094    23222069.465
 96  2 16 18 31 59.9990000  0  8 29 22 19 18 31 14 27 28
  20418978.075    -2437712.28649  -1892855.95449  20418981.5684   20418986.0784
  23278208.419    10537524.84849   8209126.70849  23278210.2374   23278216.5004
  21345357.622    -5998040.12649  -4656776.95249  21345360.1664   21345366.0084
  20050645.632   -13124965.29249 -10215002.00349  20050648.5184   20050653.1954
  23345159.269   -11126316.75349  -8422224.04849  23345161.0504   23345167.8784
  23011626.835    12905870.93649  10051412.73949  23011629.5624   23011635.9514
  24049271.041    -9525877.85049  -7409693.13949  24049276.0474   24049281.9204
  23210444.614   -11139187.444 9  -8471925.243 9  23210447.145    23210452.576
 96  2 16 18 32 29.9990000  0  8 29 22 19 18 31 14 27 28
  20422174.617    -2420920.98449  -1879771.83349  20422176.8904   20422181.3764
  23294750.422    10624454.95849   8276864.41249  23294752.9644   23294758.9934
  21332955.685    -6063213.09749  -4707561.07249  21332958.6914   21332964.1274
  20041698.896   -13171984.51549 -10251640.35849  20041701.1694   20041706.0454
  23325967.975   -11227166.74249  -8500808.25749  23325970.2394   23325977.6804
  23029638.466    13000518.97249  10125164.37349  23029639.6454   23029648.0114
  24031665.697    -9618398.07349  -7481786.76449  24031668.3234   24031675.3204
  23198900.042   -11199854.805 9  -8519198.488 9  23198902.520    23198908.327
 96  2 16 18 32 59.9990000  0  8 29 22 19 18 31 14 27 28
  20425440.199    -2403756.87049  -1866397.21249  20425443.0144   20425447.4974
  23311323.329    10711544.09649   8344726.03549  23311325.1644   23311330.8164
  21320587.943    -6128204.71649  -4758203.87849  21320590.8224   21320596.5554
  20032825.259   -13218614.27449 -10287975.23649  20032827.7554   20032832.4244
  23306799.743   -11327889.43249  -8579293.27449  23306802.8104   23306808.7174
  23047670.595    13095279.20149  10199003.43649  23047673.3184   23047680.2474
  24014068.825    -9710876.83749  -7553848.10449  24014071.6044   24014077.8104
  23187429.940   -11260137.199 9  -8566171.763 9  23187431.296    23187436.716
 96  2 16 18 33 29.9990000  0  8 29 22 19 18 31 14 27 28
  20428776.533    -2386226.65949  -1852737.31949  20428779.0014   20428783.5294
  23327923.582    10798782.25349   8412703.78949  23327926.3614   23327932.8374
  21308256.236    -6193009.42449  -4808701.03349  21308258.9044   21308264.6714
  20024026.269   -13264848.77749 -10324002.12149  20024029.5214   20024034.3804
  23287660.138   -11428473.58649  -8657670.35949  23287662.4184   23287667.2674
  23065722.670    13190147.22549  10272926.49349  23065725.3574   23065733.3804
  23996480.781    -9803298.01249  -7625864.55049  23996483.2164   23996490.2954
  23176031.960   -11320026.069 9  -8612838.398 9  23176034.797    23176040.232
 96  2 16 18 33 59.9990000  0  8 29 22 19 18 31 14 27 28
  20432181.081    -2368329.87049  -1838791.77549  20432184.7474   20432189.1584
  23344553.826    10886169.84449   8480797.98249  23344555.7754   23344561.3164
  21295957.996    -6257633.34249  -4859057.31449  21295961.5264   21295967.2104
  20015304.269   -13310685.15149 -10359718.77449  20015306.9664   20015311.7734
  23268542.562   -11528930.64749  -8735948.44649  23268545.1544   23268551.9884
  23083797.655    13285124.94149  10346935.02049  23083799.3674   23083807.1894
  23978905.797    -9895649.32049  -7697826.57349  23978909.7144   23978916.8184
  23164711.289   -11379517.776 9  -8659195.550 9  23164713.936    23164719.206
 96  2 16 18 34 29.9990000  0  8 29 22 19 18 31 14 27 28
  20435656.401    -2350069.39749  -1824562.84749  20435659.5614   20435663.9984
  23361214.440    10973717.24649   8549016.69549  23361215.3414   23361221.8364
  21283695.583    -6322076.82949  -4909273.00349  21283698.3114   21283703.6584
  20006658.203   -13356123.18649 -10395125.03349  20006660.5244   20006665.3604
  23249452.327   -11629258.51349  -8814125.84249  23249452.7664   23249459.6654
  23101890.088    13380209.47749  10421026.78549  23101893.1474   23101901.1204
  23961350.127    -9987914.94649  -7769721.85649  23961352.0804   23961358.4994
  23153466.470   -11438608.663 9  -8705240.377 9  23153469.344    23153474.613
 96  2 16 18 34 59.9990000  0  8 29 22 19 18 31 14 27 28
  20439202.350    -2331434.08149  -1810041.83349  20439205.4674   20439210.2384
  23377905.144    11061428.53849   8617363.12649  23377905.8764   23377912.0834
  21271464.578    -6386351.10449  -4959356.84049  21271467.3204   21271472.8994
  19998084.653   -13401172.20249 -10430228.16149  19998087.7344   19998092.7034
  23230383.214   -11729461.10149  -8892205.64049  23230385.2924   23230391.8594
  23120004.985    13475394.98449  10495197.22649  23120006.7984   23120014.6514
  23943805.454   -10080104.25249  -7841557.62449  23943808.4824   23943816.1024
  23142297.175   -11497304.836 9  -8750977.627 9  23142299.550    23142305.077
 96  2 16 18 35 29.9990000  0  8 29 22 19 18 31 14 27 28
  20442823.845    -2312402.91049  -1795212.36149  20442827.2544   20442831.9094
  23394627.465    11149311.10249   8685843.01049  23394629.6264   23394635.7884
  21259268.201    -6450440.17849  -5009296.36549  21259271.3174   21259277.1884
  19989585.044   -13445839.49149 -10465033.83949  19989588.0624   19989593.1264
  23211337.468   -11829545.88849  -8970193.66049  23211340.3804   23211346.4514
  23138138.029    13570701.39549  10569461.89449  23138142.8384   23138150.4864
  23926275.452   -10172227.82149  -7913342.19049  23926278.9854   23926285.2014
  23131204.256   -11555601.624 9  -8796403.680 9  23131206.493    23131211.748
 96  2 16 18 35 59.9990000  0  8 29 22 19 18 31 14 27 28
  20446522.327    -2292967.62549  -1780067.99449  20446525.5064   20446530.1394
  23411384.439    11237371.33749   8754461.32849  23411386.8654   23411393.7494
  21247110.331    -6514330.79149  -5059081.24649  21247113.4634   21247119.2204
  19981153.509   -13490145.50649 -10499558.00849  19981156.6064   19981161.7894
  23192313.039   -11929524.36049  -9048098.86149  23192314.8664   23192321.3824
  23156298.611    13666128.43849  10643820.55649  23156301.9644   23156309.7384
  23908757.117   -10264292.68349  -7985081.00149  23908759.2134   23908765.5074
  23120187.784   -11613493.795 9  -8841514.445 9  23120189.637    23120195.052
 96  2 16 18 36 29.9990000  0  8 29 22 19 18 31 14 27 28
  20450298.150    -2273125.61849  -1764606.70249  20450301.3664   20450306.0334
  23428176.270    11325613.48649   8823221.41949  23428179.1394   23428185.5284
  21234990.032    -6578026.44249  -5108714.20649  21234992.7494   21234998.3694
  19972789.752   -13534099.48849 -10533807.86549  19972792.6664   19972797.6764
  23173309.721   -12029384.43949  -9125911.80549  23173312.7864   23173318.5254
  23174480.792    13761669.64549  10718268.17149  23174482.9534   23174490.3704
  23891244.649   -10356313.63749  -8056785.62049  23891248.5414   23891253.8824
  23109247.963   -11670981.079 9  -8886309.712 9  23109250.394    23109255.832
 96  2 16 18 36 59.9990000  0  8 29 22 19 18 31 14 27 28
  20454149.928    -2252885.76349  -1748835.39749  20454153.1944   20454157.6994
  23445001.992    11414030.94549   8892118.09149  23445003.5574   23445009.9524
  21222902.978    -6641538.91149  -5158204.42449  21222906.7174   21222912.0384
  19964492.256   -13577704.17549 -10567785.54549  19964494.8924   19964499.8734
  23154332.626   -12129105.79049  -9203616.67749  23154336.1264   23154341.9124
  23192683.025    13857319.61949  10792800.53749  23192684.8094   23192692.2574
  23873739.821   -10448304.44249  -8128466.76949  23873743.9474   23873748.5104
  23098386.981   -11728060.409 9  -8930787.084 9  23098388.398    23098393.971
 96  2 16 18 37 29.9990000  0  8 29 22 19 18 31 14 27 28
  20458072.963    -2232269.36349  -1732770.68549  20458076.2214   20458080.6184
  23461857.218    11502607.80749   8961138.98849  23461860.1154   23461866.2124
  21210851.341    -6704877.62949  -5207559.25949  21210853.4884   21210859.0104
  19956259.039   -13620971.20849 -10601500.12049  19956261.7104   19956266.6914
  23135384.898   -12228682.32449  -9281208.70749  23135387.3344   23135393.1934
  23210900.609    13953046.97349  10867393.18649  23210901.9104   23210908.8704
  23856242.348   -10540260.20249  -8200120.56149  23856244.3184   23856250.1864
  23087600.208   -11784738.901 9  -8974952.121 9  23087602.846    23087608.116
 96  2 16 18 37 59.9990000  0  8 29 22 19 18 31 14 27 28
  20462069.002    -2211270.51049  -1716407.95749  20462072.3674   20462076.6864
  23478746.437    11591358.52049   9030295.34049  23478749.1754   23478754.8234
  21198829.792    -6768048.38749  -5256783.20749  21198832.5584   21198838.0404
  19948096.035   -13663866.19149 -10634924.77849  19948099.1954   19948104.0284
  23116468.767   -12328078.78049  -9358660.43949  23116472.1794   23116478.8604
  23229125.978    14048833.39049  10942031.86649  23229128.6024   23229135.8604
  23838752.663   -10632163.27649  -8271733.31049  23838755.2324   23838762.6694
  23076892.849   -11841005.768 9  -9018796.409 9  23076895.848    23076901.063
 96  2 16 18 38 29.9980000  0  8 29 22 19 18 31 14 27 28
  20466136.618    -2189896.59649  -1699752.97549  20466139.6344   20466144.0924
  23495666.101    11680263.70949   9099572.07349  23495666.7504   23495672.6984
  21186838.384    -6831061.19649  -5305884.08249  21186841.4914   21186847.1334
  19940009.315   -13706363.30449 -10668039.41649  19940011.9984   19940016.8674
  23097596.294   -12427260.94249  -9435945.19049  23097599.4824   23097605.4214
  23247360.812    14144667.10649  11016707.39749  23247366.0544   23247372.8454
  23821274.961   -10724004.34949  -8343297.72849  23821278.7524   23821285.8834
  23066264.858   -11896860.617 9  -9062319.639 9  23066266.619    23066272.068
 96  2 16 18 38 59.9980000  0  8 29 22 19 18 31 14 27 28
  20470271.820    -2168162.68149  -1682817.47149  20470275.3784   20470279.8854
  23512606.438    11769295.93649   9168947.79949  23512609.4634   23512614.6824
  21174877.739    -6893918.81349  -5354864.02449  21174880.2844   21174885.8214
  19931998.659   -13748462.10949 -10700843.67949  19932000.7874   19932005.7754
  23078762.243   -12526235.87749  -9513068.47249  23078765.0344   23078771.2064
  23265607.483    14240537.53349  11091411.53849  23265609.4304   23265616.2944
  23803811.552   -10815782.15149  -8414812.86149  23803813.9464   23803821.0634
  23055711.356   -11952313.248 9  -9105529.457 9  23055714.675    23055720.021
 96  2 16 18 39 29.9980000  0  8 29 22 19 18 31 14 27 28
  20474480.517    -2146048.51649  -1665585.67249  20474483.4834   20474488.2534
  23529573.560    11858447.82849   9238416.76849  23529574.6264   23529579.9404
  21162949.664    -6956596.40349  -5403703.68749  21162953.2254   21162958.7104
  19924066.455   -13790144.04549 -10733323.11049  19924068.9964   19924074.2654
  23059965.685   -12625006.37949  -9590032.46649  23059968.9494   23059973.8664
  23283859.465    14336460.36949  11166156.52249  23283861.8364   23283869.4714
  23786360.092   -10907486.53649  -8486270.78249  23786363.4214   23786369.7814
  23045238.394   -12007350.592 9  -9148415.674 9  23045240.842    23045246.620
 96  2 16 18 39 59.9980000  0  8 29 22 19 18 31 14 27 28
  20478760.560    -2123558.76549  -1648061.20749  20478763.4254   20478767.8644
  23546557.456    11947703.21749   9307966.38349  23546558.9754   23546565.1684
  21151055.511    -7019103.91649  -5452410.82549  21151058.2154   21151063.7764
  19916213.679   -13831408.15449 -10765476.96449  19916216.6574   19916221.6544
  23041207.367   -12723593.85849  -9666853.83949  23041208.6974   23041214.5194
  23302128.342    14432455.03649  11240957.46449  23302129.7474   23302137.3044
  23768920.436   -10999136.06149  -8557685.94349  23768922.8154   23768929.8184
  23034843.896   -12061973.251 9  -9190978.760 9  23034846.778    23034852.178
 96  2 16 18 40 29.9980000  0  8 29 22 19 18 31 14 27 28
  20483111.035    -2100691.28549  -1630242.41249  20483114.6974   20483119.3984
  23563559.803    12037051.53049   9377588.39049  23563560.8574   23563567.7224
  21139194.528    -7081431.74749  -5500977.94849  21139197.7124   21139203.1234
  19908438.894   -13872265.30449 -10797313.70249  19908441.8704   19908446.8294
  23022478.947   -12822003.23349  -9743536.44049  23022482.2854   23022488.0734
  23320412.455    14528549.40849  11315836.10849  23320416.5814   23320422.4814
  23751487.438   -11090739.27849  -8629065.03249  23751491.1494   23751498.5254
  23024530.095   -12116172.495 9  -9233211.912 9  23024532.915    23024538.332
 96  2 16 18 40 59.9980000  0  8 29 22 19 18 31 14 27 28
  20487532.502    -2077460.25049  -1612140.32049  20487535.5814   20487540.2604
  23580579.698    12126490.73849   9447281.24849  23580581.3014   23580587.2254
  21127365.521    -7143591.92849  -5549414.43649  21127369.0074   21127374.5454
  19900737.644   -13912734.96549 -10828848.50249  19900740.6234   19900745.6024
  23003779.025   -12920268.05149  -9820106.38149  23003782.2354   23003788.6044
  23338715.802    14624733.58749  11390784.73949  23338719.1544   23338726.6704
  23734059.099   -11182328.19349  -8700432.95449  23734062.2074   23734069.3454
  23014295.887   -12169958.598 9  -9275123.132 9  23014297.850    23014303.064
 96  2 16 18 41 29.9980000  0  8 29 22 19 18 31 14 27 28
  20492023.384    -2053858.07949  -1593749.03949  20492026.8174   20492031.4184
  23597621.393    12216042.32749   9517061.68249  23597622.0964   23597628.4094
  21115568.075    -7205588.52649  -5597723.46349  21115571.1454   21115576.8714
  19893110.816   -13952815.41549 -10860080.02049  19893113.7474   19893118.5334
  22985106.779   -13018399.31149  -9896572.26049  22985108.5444   22985115.4074
  23357037.252    14721013.83149  11465808.22449  23357041.1154   23357048.9424
  23716633.650   -11273907.53149  -8771793.44549  23716636.0074   23716642.4764
  23004139.976   -12223325.597 9  -9316707.780 9  23004142.305    23004147.713
 96  2 16 18 41 59.9980000  0  8 29 22 19 18 31 14 27 28
  20496587.450    -2029876.04649  -1575061.76049  20496590.3714   20496595.1324
  23614688.905    12305735.98649   9586952.82949  23614690.7624   23614696.8704
  21103802.871    -7267417.25949  -5645901.67749  21103805.6284   21103811.4734
  19885562.652   -13992486.11249 -10890992.25149  19885564.6224   19885569.6044
  22966460.940   -13116372.28349  -9972914.79849  22966464.4724   22966471.5534
  23375378.364    14817395.81049  11540910.96449  23375382.0934   23375389.5834
  23699210.984   -11365456.64849  -8843130.36749  23699214.1994   23699221.3634
  22994068.207   -12276256.104 9  -9357952.307 9  22994069.981    22994075.321
 96  2 16 18 42 29.9980000  0  8 29 22 19 18 31 14 27 28
  20501220.537    -2005529.28749  -1556090.28149  20501223.4994   20501228.2284
  23631780.922    12395563.87849   9656948.57249  23631784.2524   23631790.6054
  21092068.414    -7329081.89649  -5693952.03049  21092071.2044   21092077.0074
  19878088.989   -14031753.78449 -10921590.43649  19878092.3884   19878097.1974
  22947851.348   -13214175.43549 -10049125.00449  22947853.7334   22947860.3524
  23393729.199    14913839.76349  11616061.99949  23393735.1014   23393741.7724
  23681794.065   -11456987.50249  -8914453.06349  23681796.7394   23681803.6384
  22984076.342   -12328760.272 9  -9398864.619 9  22984078.739    22984084.286
 96  2 16 18 42 59.9980000  0  8 29 22 19 18 31 14 27 28
  20505923.217    -1980815.75149  -1536833.00249  20505926.4974   20505931.0394
  23648903.285    12485533.03449   9727054.37749  23648905.4744   23648911.4284
  21080364.840    -7390587.48949  -5741878.45449  21080367.2324   21080373.0304
  19870696.454   -14070605.01949 -10951864.12949  19870698.9624   19870703.9034
  22929272.922   -13311804.83949 -10125199.83349  22929276.0514   22929281.7644
  23412094.546    15010326.82249  11691246.63549  23412095.8364   23412102.8904
  23664383.874   -11548475.85949  -8985742.64049  23664386.6744   23664393.9804
  22974167.201   -12380834.717 9  -9439442.085 9  22974169.196    22974174.643
 96  2 16 18 43 29.9980000  0  8 29 22 19 18 31 14 27 28
  20510695.630    -1955737.86149  -1517291.81249  20510698.5224   20510703.3824
  23666042.240    12575608.94149   9797243.36549  23666045.7144   23666052.0794
  21068686.355    -7451956.21449  -5789698.22049  21068689.0294   21068694.7694
  19863378.917   -14109055.71649 -10981825.71149  19863382.0854   19863386.9824
  22910726.452   -13409264.60149 -10201142.46149  22910729.9864   22910735.8794
  23430457.608    15106828.45949  11766442.61049  23430458.8024   23430466.8294
  23646982.037   -11639922.48149  -9056999.69349  23646985.1404   23646991.7924
  22964336.766   -12432496.204 9  -9479697.770 9  22964338.302    22964344.101
 96  2 16 18 43 59.9980000  0  8 29 22 19 18 31 14 27 28
  20515543.668    -1930262.21549  -1497440.67949  20515546.4874   20515551.2834
  23683206.403    12665801.70049   9867523.42549  23683209.1654   23683214.8634
  21057037.797    -7513168.50249  -5837396.08849  21057040.5554   21057046.2924
  19856143.119   -14147080.92049 -11011455.73649  19856146.4284   19856151.4434
  22892219.522   -13506515.22849 -10276922.12349  22892222.6314   22892229.5984
  23448825.426    15203353.50649  11841656.84149  23448826.5444   23448835.4274
  23629593.105   -11731305.83249  -9128207.45249  23629594.9004   23629601.8674
  22954587.389   -12483721.562 9  -9519613.608 9  22954590.378    22954596.280
 96  2 16 18 44 29.9980000  0  8 29 22 19 18 31 14 27 28
  20520469.385    -1904373.58449  -1477267.74449  20520472.6774   20520477.4384
  23700391.691    12756106.26349   9937890.58849  23700392.5714   23700398.9144
  21045422.590    -7574207.58849  -5884958.99749  21045425.5914   21045431.4184
  19848989.131   -14184676.74749 -11040751.18749  19848992.1424   19848996.9834
  22873756.895   -13603539.46449 -10352525.37249  22873759.8074   22873766.7974
  23467196.193    15299900.89949  11916888.47749  23467199.8464   23467207.6934
  23612215.657   -11822616.83749  -9199358.83749  23612218.8524   23612226.3354
  22944925.875   -12534502.802 9  -9559183.387 9  22944927.329    22944932.530
 96  2 16 18 44 59.9980000  0  8 29 22 19 18 31 14 27 28
  20525474.373    -1878072.93549  -1456773.75449  20525477.6184   20525482.6814
  23717595.019    12846510.28749  10008335.28049  23717596.7884   23717602.7384
  21033839.202    -7635079.44549  -5932391.59949  21033841.8634   21033847.5834
  19841914.321   -14221854.26149 -11069720.68149  19841917.4314   19841922.1914
  22855335.012   -13700344.12949 -10427957.53249  22855338.4384   22855345.0504
  23485572.221    15396474.10549  11992140.22749  23485577.3784   23485584.8134
  23594852.871   -11913861.25549  -9270458.34149  23594855.8824   23594862.6224
  22935344.958   -12584844.886 9  -9598410.975 9  22935347.348    22935353.124
 96  2 16 18 45 29.9980000  0  8 29 22 19 18 31 14 27 28
  20530558.303    -1851358.25249  -1435957.13849  20530561.4124   20530566.0774
  23734817.425    12937009.25949  10078853.95149  23734817.6704   23734823.5384
  21022290.627    -7695765.38349  -5979679.32949  21022293.8404   21022299.3834
  19834918.212   -14258620.79949 -11098369.93049  19834921.0604   19834925.6154
  22836955.972   -13796924.07649 -10503214.57849  22836959.6034   22836966.8964
  23503959.472    15493081.85549  12067418.89649  23503960.1474   23503969.2154
  23577500.004   -12005052.79649  -9341516.64149  23577502.8924   23577509.7424
  22925849.599   -12634745.170 9  -9637294.292 9  22925851.803    22925856.971
 96  2 16 18 45 59.9980000  0  8 29 22 19 18 31 14 27 28
  20535714.543    -1824259.24149  -1414841.05049  20535718.3144   20535722.9004
  23752055.222    13027602.17749  10149445.80549  23752057.2724   23752063.8674
  21010780.621    -7756251.36849  -6026811.25149  21010783.7674   21010789.3924
  19827998.646   -14294982.97649 -11126704.09649  19828001.3204   19828006.2484
  22818621.171   -13893283.72549 -10578299.95849  22818623.0574   22818630.7734
  23522346.348    15589731.52349  12142730.21149  23522353.1304   23522361.0944
  23560154.625   -12096196.74049  -9412537.86049  23560158.4264   23560165.7334
  22916437.486   -12684202.073 9  -9675832.125 9  22916440.048    22916445.333
 96  2 16 18 46 29.9980000  0  8 29 22 19 18 31 14 27 28
  20540939.624    -1796803.15549  -1393446.71949  20540942.7164   20540947.7364
  23769311.697    13118288.80849  10220110.73749  23769314.7414   23769318.9024
  20999309.864    -7816532.87549  -6073783.83549  20999312.6164   20999318.1624
  19821153.291   -14330953.70949 -11154733.23749  19821156.4084   19821161.2244
  22800325.154   -13989433.04149 -10653221.43049  22800326.8484   22800332.7444
  23540751.837    15686419.24749  12218071.19749  23540752.7654   23540760.2354
  23542819.721   -12187294.93849  -9483523.42049  23542822.7924   23542830.4844
  22907110.645   -12733219.287 9  -9714027.340 9  22907112.759    22907117.891
 96  2 16 18 46 59.9980000  0  8 29 22 19 18 31 14 27 28
  20546233.398    -1768985.56749  -1371770.70249  20546236.5714   20546241.0394
  23786587.711    13209072.80249  10290851.51149  23786590.6494   23786595.8084
  20987876.265    -7876612.87149  -6120599.40249  20987879.4664   20987885.2514
  19814382.727   -14366534.53849 -11182458.55749  19814385.5364   19814390.4724
  22782063.877   -14085391.69849 -10727994.36149  22782066.3024   22782073.2114
  23559157.954    15783154.05149  12293448.87249  23559159.9294   23559168.3064
  23525495.575   -12278338.21749  -9554466.17749  23525498.0734   23525504.7934
  22897866.971   -12781791.117 9  -9751875.505 9  22897869.296    22897875.012
 96  2 16 18 47 29.9980000  0  8 29 22 19 18 31 14 27 28
  20551597.772    -1740795.83849  -1349804.70149  20551600.9514   20551605.5424
  23803883.492    13299963.28549  10361675.24649  23803885.6834   23803892.6454
  20976480.909    -7936497.35449  -6167262.62249  20976483.8634   20976489.6824
  19807686.983   -14401721.10949 -11209876.66649  19807689.8904   19807694.5084
  22763836.417   -14181170.48649 -10802627.13149  22763839.8074   22763846.9554
  23577572.307    15879925.95049  12368855.42949  23577574.9664   23577583.6964
  23508183.182   -12369322.75149  -9625363.16149  23508184.3854   23508191.0754
  22888709.538   -12829916.129 9  -9789375.500 9  22888711.695    22888717.162
 96  2 16 18 47 59.9980000  0  8 29 22 19 18 31 14 27 28
  20557032.252    -1712236.09449  -1327550.37749  20557035.6984   20557040.3234
  23821199.982    13390959.75049  10432581.57549  23821202.5064   23821208.0814
  20965119.638    -7996202.50149  -6213786.09849  20965122.4894   20965127.8664
  19801068.358   -14436505.85249 -11236981.65949  19801070.6654   19801075.3814
  22745646.029   -14276767.64149 -10877118.36049  22745648.6224   22745654.6314
  23595992.926    15976720.58049  12444279.73849  23595995.2624   23596002.6774
  23490880.214   -12460246.37649  -9696212.69449  23490881.9234   23490888.9334
  22879636.869   -12877594.066 9  -9826527.126 9  22879638.658    22879644.202
 96  2 16 18 48 29.9980000  0  8 29 22 19 18 31 14 27 28
  20562543.500    -1683273.01749  -1304981.76949  20562547.1264   20562551.9614
  23838539.287    13482077.48449  10503582.40049  23838542.1574   23838546.5534
  20953789.449    -8055741.71749  -6260180.27949  20953792.2494   20953798.1884
  19794528.724   -14470870.96849 -11263759.67149  19794531.0804   19794536.2114
  22727492.371   -14372168.04849 -10951456.28649  22727495.4154   22727499.6964
  23614416.617    16073538.30249  12519722.01649  23614418.9864   23614427.1094
  23473590.330   -12551100.50449  -9767008.07049  23473593.2524   23473599.9534
  22870650.687   -12924812.067 9  -9863320.348 9  22870653.601    22870658.865
 96  2 16 18 48 59.9980000  0  8 29 22 19 18 31 14 27 28
  20568132.443    -1653903.46849  -1282096.42949  20568136.0944   20568140.9454
  23855896.168    13573289.59549  10574656.76449  23855899.1104   23855904.2214
  20942487.182    -8115134.24049  -6306460.15649  20942490.4444   20942496.1474
  19788069.124   -14504814.12149 -11290208.88049  19788071.9774   19788076.8154
  22709374.387   -14467374.66749 -11025643.20649  22709378.8094   22709384.5044
  23632840.492    16170363.94549  12595170.46349  23632844.5954   23632851.5434
  23456310.264   -12641901.38749  -9837761.96649  23456314.7014   23456321.2734
  22861752.205   -12971578.995 9  -9899762.095 9  22861754.105    22861759.630
 96  2 16 18 49 29.9980000  0  8 29 22 19 18 31 14 27 28
  20573798.252    -1624132.92649  -1258898.62649  20573801.1594   20573805.9004
  23873270.770    13664595.01649  10645803.84349  23873273.0764   23873279.1434
  20931216.537    -8174363.78949  -6352613.03949  20931219.4454   20931224.8424
  19781694.016   -14538315.27749 -11316313.67849  19781696.9264   19781701.7694
  22691302.361   -14562348.28649 -11099648.58649  22691305.1324   22691311.4294
  23651271.349    16267199.37449  12670626.53449  23651271.0004   23651279.4674
  23439042.136   -12732652.52949  -9908477.08449  23439044.7154   23439051.4214
  22852941.625   -13017880.395 9  -9935841.086 9  22852943.512    22852948.597
 96  2 16 18 49 59.9980000  0  8 29 22 19 18 31 14 27 28
  20579533.573    -1593993.87549  -1235413.67149  20579536.4374   20579541.0024
  23890656.898    13755956.23049  10716994.38349  23890658.2894   23890664.7874
  20919973.251    -8233447.31449  -6398652.14149  20919976.0784   20919981.7374
  19775398.464   -14571399.40549 -11342093.51649  19775401.1044   19775405.7444
  22673273.139   -14657095.96949 -11173477.90849  22673274.8824   22673280.7514
  23669693.776    16364027.92749  12746077.26149  23669696.7244   23669704.5354
  23421778.399   -12823375.82549  -9979170.51449  23421780.7784   23421787.5614
  22844214.662   -13063734.742 9  -9971571.733 9  22844217.402    22844222.846
 96  2 16 18 50 29.9980000  0  8 29 22 19 18 31 14 27 28
  20585344.119    -1563458.81249  -1211620.14049  20585346.9494   20585351.7404
  23908057.598    13847390.03749  10788241.47449  23908058.1904   23908063.1744
  20908763.128    -8292357.58949  -6444556.24349  20908765.8424   20908771.5674
  19769185.779   -14604048.79549 -11367534.59849  19769188.2924   19769193.1074
  22655291.460   -14751588.64749 -11247108.53249  22655293.6384   22655298.4334
  23688121.957    16460868.82649  12821537.58949  23688126.1974   23688133.4334
  23404521.617   -12914059.75049 -10049833.28049  23404524.2464   23404531.4204
  22835579.039   -13109120.791 9 -10006937.466 9  22835580.906    22835586.258
 96  2 16 18 50 59.9980000  0  8 29 22 19 18 31 14 27 28
  20591226.705    -1532545.71049  -1187532.02749  20591229.7074   20591234.5234
  23925466.766    13938873.69049  10859527.42849  23925466.8284   23925472.2344
  20897587.771    -8351085.67449  -6490318.37649  20897590.3064   20897595.8294
  19763053.057   -14636272.70449 -11392644.13949  19763056.2034   19763060.9024
  22637357.977   -14845822.59649 -11320537.52949  22637361.5384   22637366.6734
  23706553.786    16557709.58349  12896997.82649  23706554.3324   23706561.8434
  23387269.396   -13004719.18149 -10120476.96049  23387272.2854   23387278.2644
  22827028.786   -13154047.545 9 -10041945.307 9  22827031.543    22827036.563
 96  2 16 18 51 29.9980000  0  8 29 22 19 18 31 14 27 28
  20597180.934    -1501254.87849  -1163149.58249  20597183.8174   20597188.6974
  23942885.309    14030416.17549  10930859.20549  23942886.7214   23942892.3284
  20886445.843    -8409637.03449  -6535942.80249  20886448.4114   20886453.7784
  19757001.174   -14668074.90149 -11417425.07849  19757004.4954   19757009.3974
  22619476.792   -14939793.47049 -11393761.55349  22619479.1714   22619484.8344
  23724979.290    16654552.08349  12972459.41349  23724982.6084   23724991.2864
  23370024.562   -13095348.61249 -10191097.26249  23370026.4244   23370032.1564
  22818568.404   -13198511.684 9 -10076592.667 9  22818570.475    22818575.517
 96  2 16 18 51 59.9980000  0  8 29 22 19 18 31 14 27 28
  20603210.499    -1469569.33749  -1138459.56649  20603213.6604   20603218.4504
  23960319.780    14122034.72749  11002250.26049  23960320.3434   23960327.2014
  20875336.679    -8468016.10249  -6581432.97049  20875339.2344   20875344.7174
  19751030.487   -14699455.40649 -11441877.42049  19751032.9974   19751037.6954
  22601646.108   -15033498.73849 -11466778.61549  22601647.3954   22601653.2894
  23743411.889    16751395.74749  13047921.90149  23743412.0854   23743419.6464
  23352785.082   -13185933.80549 -10261683.08249  23352788.6504   23352794.6194
  22810194.965   -13242509.403 9 -10110876.581 9  22810197.800    22810202.948
 96  2 16 18 52 29.9980000  0  8 29 22 19 18 31 14 27 28
  20609316.162    -1437486.27349  -1113459.79949  20609318.7964   20609323.8614
  23977770.247    14213741.52049  11073710.07949  23977772.0834   23977778.2534
  20864260.511    -8526219.92549  -6626786.58849  20864263.4164   20864268.9424
  19745141.499   -14730398.73449 -11465989.10749  19745144.6544   19745149.3994
  22583867.680   -15126923.05549 -11539576.76049  22583869.8054   22583874.9164
  23761837.662    16848246.66549  13123390.05949  23761842.4654   23761850.0234
  23335558.236   -13276457.59849 -10332221.06149  23335562.5334   23335568.0524
  22801914.329   -13286027.468 9 -10144786.731 9  22801916.470    22801921.602
 96  2 16 18 52 59.9980000  0  8 29 22 19 18 31 14 27 28
  20615493.085    -1405027.92349  -1088167.60049  20615495.4774   20615500.2034
  23995235.389    14305519.14249  11145225.07449  23995236.4104   23995243.1574
  20853214.560    -8584265.07849  -6672016.56649  20853217.8494   20853223.2964
  19739335.009   -14760911.35949 -11489765.18249  19739338.3144   19739342.9224
  22566139.490   -15220086.03449 -11612171.25649  22566140.6354   22566146.3134
  23780269.746    16945096.50149  13198857.36749  23780271.2404   23780279.6414
  23318343.303   -13366927.04049 -10402716.70449  23318347.0524   23318353.7114
  22793721.667   -13329077.528 9 -10178332.210 9  22793724.341    22793729.649
 96  2 16 18 53 29.9980000  0  8 29 22 19 18 31 14 27 28
  20621742.478    -1372184.15949  -1062575.08249  20621745.5914   20621750.5454
  24012716.000    14397389.44149  11216812.29149  24012719.6024   24012725.5534
  20842202.895    -8642133.64649  -6717108.94649  20842205.7644   20842211.3464
  19733613.977   -14790979.79049 -11513195.13049  19733616.4444   19733621.2254
  22548458.416   -15312989.21049 -11684563.30849  22548460.7114   22548466.8104
  23798699.484    17041951.42049  13274328.62549  23798703.0104   23798710.1324
  23301142.096   -13457322.77149 -10473154.88849  23301144.3164   23301151.1284
  22785620.683   -13371648.696 9 -10211504.519 9  22785623.292    22785628.446
 96  2 16 18 53 59.9980000  0  8 29 22 19 18 31 14 27 28
  20628066.139    -1338954.48649  -1036681.85549  20628068.7994   20628073.7204
  24030215.681    14489350.86249  11288470.51649  24030219.1744   24030224.5454
  20831227.896    -8699806.29149  -6762048.65949  20831230.9044   20831236.5404
  19727978.365   -14820596.31849 -11536272.94549  19727980.4744   19727985.3574
  22530831.452   -15405623.57349 -11756745.87449  22530833.1384   22530839.7214
  23817135.185    17138813.58049  13349805.52549  23817135.6264   23817142.6814
  23283955.135   -13547640.09649 -10543532.00049  23283957.6794   23283964.9874
  22777611.725   -13413735.906 9 -10244299.721 9  22777614.343    22777619.723
 96  2 16 18 54 29.9980000  0  8 29 22 19 18 31 14 27 28
  20634457.684    -1305363.67649  -1010507.22549  20634461.1634   20634465.9164
  24047727.668    14581377.35149  11360179.44249  24047730.8964   24047737.4474
  20820287.746    -8757294.49949  -6806844.65649  20820291.1784   20820297.0304
  19722427.153   -14849763.04349 -11559000.26849  19722430.2904   19722435.1134
  22513250.482   -15498010.02549 -11828735.28649  22513252.2254   22513259.7104
  23835561.714    17235661.72949  13425271.50749  23835564.3574   23835572.6634
  23266777.618   -13637902.45249 -10613866.27149  23266781.4884   23266788.4434
  22769692.369   -13455354.761 9 -10276729.969 9  22769694.720    22769699.755
 96  2 16 18 54 59.9980000  0  8 29 22 19 18 31 14 27 28
  20640920.458    -1271404.41749   -984045.49049  20640923.4884   20640928.0744
  24065251.838    14673457.08049  11431929.86049  24065253.2824   24065259.8744
  20809383.206    -8814601.45049  -6851499.41649  20809386.0374   20809391.7174
  19716961.630   -14878487.40749 -11581382.89549  19716964.2124   19716969.2664
  22495714.923   -15590157.58049 -11900538.55249  22495718.7334   22495725.2964
  23853984.551    17332478.08249  13500712.69849  23853987.6334   23853996.3004
  23249610.991   -13728123.35649 -10684168.23749  23249613.6334   23249619.8484
  22761860.240   -13496509.998 9 -10308798.959 9  22761862.935    22761868.306
 96  2 16 18 55 29.9980000  0  8 29 22 19 18 31 14 27 28
  20647456.978    -1237053.40649   -957278.48849  20647459.9084   20647464.6594
  24082785.729    14765603.03149  11503731.87449  24082788.4454   24082793.8884
  20798514.210    -8871719.76849  -6896007.18849  20798516.7734   20798522.3104
  19711580.622   -14906763.70149 -11603416.37049  19711583.5024   19711588.2674
  22478233.000   -15682030.69149 -11972127.96249  22478236.2904   22478242.0284
  23872405.297    17429280.08249  13576142.68949  23872409.7924   23872417.6904
  23232454.422   -13818274.54249 -10754415.90049  23232457.9024   23232464.7934
  22754122.080   -13537176.150 9 -10340486.840 9  22754124.630    22754129.681
 96  2 16 18 55 59.9980000  0  8 29 22 19 18 31 14 27 28
  20654066.817    -1202320.68149   -930214.04849  20654069.4544   20654074.3524
  24100330.135    14857794.64549  11575569.50349  24100332.4944   24100338.4654
  20787673.479    -8928686.81049  -6940397.08149  20787676.2494   20787681.9574
  19706283.272   -14934602.17749 -11625108.69149  19706286.0144   19706290.7274
  22460805.559   -15773618.84549 -12043495.33449  22460807.8574   22460812.6874
  23890825.929    17526060.25449  13651555.68949  23890825.6914   23890834.0414
  23215310.224   -13908368.04149 -10824618.59649  23215313.8614   23215320.3914
  22746475.949   -13577357.190 9 -10371796.717 9  22746478.126    22746483.600
 96  2 16 18 56 29.9980000  0  8 29 22 19 18 31 14 27 28
  20660746.547    -1167215.77049   -902859.59649  20660749.9164   20660754.8254
  24117877.007    14950011.08149  11647426.46549  24117879.6284   24117885.3664
  20776857.338    -8985526.85649  -6984688.01749  20776860.1464   20776865.6044
  19701066.680   -14962014.73849 -11646469.13249  19701069.4164   19701074.3504
  22443427.243   -15864936.33349 -12114651.78549  22443430.2534   22443436.4614
  23909228.277    17622801.28549  13726938.18849  23909234.6784   23909244.1264
  23198175.833   -13998411.97149 -10894782.68249  23198178.2684   23198185.7224
  22738920.081   -13617060.722 9 -10402734.507 9  22738922.908    22738928.201
 96  2 16 18 56 59.9980000  0  8 29 22 19 18 31 14 27 28
  20667499.732    -1131727.54849   -875206.45649  20667503.0804   20667507.8394
  24135429.971    15042255.91049  11719305.54949  24135433.4114   24135439.8744
  20766065.443    -9042238.31449  -7028878.75749  20766068.2764   20766073.4614
  19695930.404   -14989006.14249 -11667501.40049  19695933.6614   19695937.8944
  22426102.649   -15955980.23549 -12185595.04849  22426104.9814   22426110.5944
  23927640.068    17719514.82249  13802299.24149  23927638.7844   23927648.1074
  23181051.657   -14088399.36249 -10964902.68449  23181054.5834   23181060.7734
  22731457.155   -13656281.549 9 -10433296.166 9  22731459.140    22731464.480
 96  2 16 18 57 29.9980000  0  8 29 22 19 18 31 14 27 28
  20674324.082    -1095868.01049   -847263.98349  20674326.9374   20674331.8344
  24152992.763    15134538.16849  11791213.77649  24152993.8504   24153000.2184
  20755298.377    -9098818.32749  -7072967.06749  20755301.4764   20755307.0594
  19690876.940   -15015561.39349 -11688193.80749  19690880.0644   19690884.6414
  22408829.442   -16046745.88849 -12256321.48849  22408832.0604   22408837.7024
  23946038.454    17816202.65949  13877640.26949  23946038.2474   23946047.1734
  23163937.716   -14178331.39549 -11034979.55749  23163940.9044   23163947.7864
  22724084.809   -13695021.851 9 -10463483.395 9  22724087.604    22724092.603
 96  2 16 18 57 59.9980000  0  8 29 22 19 18 31 14 27 28
  20681219.339    -1059632.74349   -819028.73249  20681222.2474   20681226.8764
  24170562.082    15226874.51149  11863164.18049  24170564.6324   24170571.6294
  20744562.651    -9155233.60049  -7116927.01349  20744565.8584   20744571.4954
  19685912.737   -15041653.12149 -11708525.03049  19685914.8504   19685919.5084
  22391608.937   -16137237.20949 -12326834.17049  22391612.6994   22391619.1154
  23964428.078    17912855.82849  13952954.26849  23964431.1074   23964439.3744
  23146834.086   -14268209.90549 -11105014.72649  23146837.8674   23146844.5324
  22716805.309   -13733276.162 9 -10493291.931 9  22716807.717    22716812.909
 96  2 16 18 58 29.9980000  0  8 29 22 19 18 31 14 27 28
  20688186.861    -1023015.92549   -790496.17149  20688190.2164   20688194.9814
  24188146.706    15319277.99849  11935166.90649  24188148.9364   24188154.4904
  20733864.537    -9211455.38849  -7160736.18649  20733867.1924   20733872.9014
  19681037.152   -15067271.87049 -11728487.69849  19681040.0564   19681044.5284
  22374439.896   -16227465.16849 -12397141.64349  22374443.1444   22374448.6844
  23982815.848    18009483.06349  14028248.08149  23982819.1334   23982827.1874
  23129739.863   -14358041.79849 -11175013.56949  23129743.6314   23129750.7214
  22709618.306   -13771043.693 9 -10522721.162 9  22709620.559    22709625.909
 96  2 16 18 58 59.9980000  0  8 29 22 19 18 31 14 27 28
  20695226.796     -986022.33749   -761670.02449  20695229.7824   20695234.5914
  24205744.552    15411752.54749  12007224.99449  24205746.1304   24205752.4484
  20723205.059    -9267469.95749  -7204383.89349  20723208.1054   20723213.8164
  19676250.965   -15092422.36149 -11748085.48849  19676253.8244   19676258.6104
  22357323.003   -16317412.94549 -12467230.79849  22357326.4934   22357332.7154
  24001197.970    18106081.30849  14103519.29449  24001201.9394   24001208.5614
  23112652.238   -14447839.69849 -11244985.92849  23112655.2844   23112662.3574
  22702524.150   -13808326.797 9 -10551772.917 9  22702526.130    22702531.452
 96  2 16 18 59 29.9980000  0  8 29 22 19 18 31 14 27 28
  20702334.697     -948667.38049   -732562.28949  20702338.2574   20702342.8394
  24223351.052    15504282.63449  12079326.36649  24223353.4884   24223360.7734
  20712585.123    -9323276.90649  -7247869.81749  20712588.2074   20712593.8394
  19671551.276   -15117123.43649 -11767333.08849  19671553.5654   19671557.8214
  22340261.345   -16407072.42849 -12537095.29549  22340265.1274   22340271.3884
  24019569.461    18202629.16049  14178751.23949  24019573.2554   24019582.1674
  23095568.397   -14537616.18649 -11314941.59349  23095570.7634   23095578.9544
  22695518.975   -13845135.575 9 -10580455.070 9  22695521.779    22695527.105
 96  2 16 18 59 59.9980000  0  8 29 22 19 18 31 14 27 28
  20709518.850     -910916.42249   -703145.98049  20709522.1034   20709526.8364
  24240969.921    15596874.67549  12151475.98849  24240973.5364   24240979.4384
  20702010.072    -9378851.53549  -7291174.71749  20702013.0604   20702018.5144
  19666936.597   -15141370.24849 -11786226.71049  19666939.5574   19666944.2374
  22323259.366   -16496424.29049 -12606720.08949  22323261.5514   22323267.4054
  24037937.564    18299149.03849  14253961.39549  24037940.9794   24037948.0894
  23078491.586   -14627350.47049 -11384864.37249  23078495.5444   23078502.1394
  22688610.546   -13881443.929 9 -10608747.284 9  22688612.376    22688617.407
 96  2 16 19  0 29.9980000  0  7 29 19 18 31 14 27 28
  20716772.324     -872796.48449   -673442.15049  20716776.0494   20716781.1534
  20691468.463    -9434245.51649  -7334338.85149  20691471.6794   20691477.1964
  19662400.888   -15165207.31549 -11804801.05749  19662403.6994   19662408.1984
  22306312.563   -16585479.83449 -12676113.98649  22306314.3834   22306321.5244
  24056298.648    18395616.72649  14329130.87049  24056297.9364   24056305.8154
  23061418.136   -14717073.34649 -11454778.26149  23061421.7904   23061428.1034
  22681790.100   -13917282.003 9 -10636673.041 9  22681792.465    22681797.795
 96  2 16 19  0 59.9980000  0  7 29 19 18 31 14 27 28
  20724103.997     -834273.20749   -643424.03749  20724106.8804   20724111.3444
  20680966.049    -9489438.44749  -7377346.32149  20680968.7174   20680974.1014
  19657947.106   -15188613.33549 -11823039.52049  19657949.4644   19657954.2664
  22289429.897   -16674197.13949 -12745244.32149  22289432.6844   22289438.8174
  24074644.170    18492050.03349  14404273.53349  24074649.2634   24074657.1294
  23044357.766   -14806732.70249 -11524642.65749  23044359.9484   23044367.2054
  22675066.535   -13952613.616 9 -10664204.161 9  22675068.960    22675074.518
 96  2 16 19  1 29.9980000  0  7 29 19 18 31 14 27 28
  20731507.784     -795363.25249   -613104.60849  20731511.1494   20731516.0154
  20670494.101    -9544467.56449  -7420226.14849  20670497.0414   20670502.5154
  19653570.835   -15211606.43249 -11840956.22549  19653573.8714   19653578.5004
  22272604.942   -16762609.39549 -12814136.95749  22272607.9044   22272614.2424
  24092986.971    18588433.18149  14479377.13049  24092989.5964   24092998.1584
  23027306.703   -14896335.46049 -11594462.94449  23027309.4034   23027315.7554
  22668436.363   -13987455.867 9 -10691353.955 9  22668438.858    22668444.051
 96  2 16 19  1 59.9980000  0  7 29 19 18 31 14 27 28
  20738985.455     -756069.67549   -582486.26049  20738988.2774   20738993.7714
  20660050.868    -9599348.40949  -7462990.44449  20660053.6864   20660059.1594
  19649276.241   -15234176.44849 -11858543.25549  19649279.0254   19649283.8254
  22255840.381   -16850715.20449 -12882790.81049  22255841.7114   22255848.0594
  24111315.800    18684771.72549  14554445.94849  24111322.8704   24111330.7814
  23010267.697   -14985874.94749 -11664233.93149  23010270.6884   23010276.4894
  22661901.119   -14021799.963 9 -10718115.576 9  22661903.197    22661908.806
 96  2 16 19  2 29.9980000  0  7 29 19 18 31 14 27 28
  20746531.572     -716414.90549   -551586.46349  20746534.4264   20746539.6154
  20649631.366    -9654101.37149  -7505655.08349  20649634.2854   20649639.7624
  19645063.229   -15256315.21249 -11875794.24949  19645066.0374   19645070.9254
  22239130.966   -16938518.73549 -12951209.11049  22239134.0664   22239139.5834
  24129645.725    18781054.11849  14629471.00749  24129645.2394   24129653.5754
  22993241.972   -15075344.69449 -11733950.56849  22993244.5874   22993250.8294
  22655459.868   -14055650.667 9 -10744492.731 9  22655461.796    22655467.113
 96  2 16 19  2 59.9980000  0  7 29 19 18 31 14 27 28
  20754146.905     -676393.96349   -520401.33649  20754150.3634   20754155.2554
  20639238.105    -9708718.05849  -7548213.53649  20639241.3504   20639246.8184
  19640937.666   -15277997.37749 -11892689.44949  19640940.1424   19640944.8144
  22222479.078   -17026028.67049 -13019398.64449  22222480.9874   22222486.7804
  24147956.109    18877281.93949  14704453.50749  24147956.9684   24147964.6604
  22976231.515   -15164732.35649 -11803603.24549  22976235.4224   22976240.7294
  22649113.389   -14088998.471 9 -10770478.010 9  22649115.855    22649121.068
 96  2 16 19  3 29.9980000  0  7 29 19 18 31 14 27 28
  20761833.485     -636003.93849   -488928.61249  20761836.2844   20761841.5034
  20628870.262    -9763201.46449  -7590668.12849  20628873.4474   20628878.8894
  19636901.984   -15299203.95149 -11909214.05849  19636904.7604   19636909.4864
  22205883.432   -17113237.83949 -13087353.81549  22205886.2104   22205891.4374
  24166255.408    18973454.16449  14779392.68649  24166257.3774   24166267.3944
  22959235.683   -15254051.34049 -11873202.41349  22959238.0554   22959244.1444
  22642864.068   -14121839.719 9 -10796068.571 9  22642866.548    22642871.480
 96  2 16 19  3 59.9980000  0  7 29 19 18 31 14 27 28
  20769588.465     -595249.65449   -457172.05549  20769591.6924   20769596.3304
  20618529.561    -9817544.82749  -7633013.59549  20618532.1814   20618537.8844
  19632958.861   -15319925.32649 -11925360.58849  19632961.6724   19632966.2924
  22189345.851   -17200140.90249 -13155070.45049  22189348.8354   22189354.5884
  24184541.608    19069552.09949  14854273.99249  24184544.5714   24184553.0834
  22942249.254   -15343315.59949 -11942758.93949  22942251.4184   22942257.5134
  22636709.873   -14154179.163 9 -10821268.113 9  22636712.119    22636717.707
 96  2 16 19  4 29.9980000  0  6 29 19 18 31 27 28
  20777415.109     -554120.77449   -425123.60049  20777418.1024   20777422.9544
  20608216.264    -9871738.83049  -7675242.67949  20608219.5214   20608224.9274
  19629109.272   -15340157.62249 -11941126.02349  19629111.6694   19629116.1374
  22172867.009   -17286735.53549 -13222546.73949  22172869.3074   22172875.8634
  22925270.450   -15432534.44449 -12012280.06949  22925273.7134   22925280.1534
  22630650.109   -14186021.518 9 -10846080.311 9  22630652.774    22630658.144
 96  2 16 19  4 59.9980000  0  6 29 19 18 31 27 28
  20785314.284     -512608.52249   -392776.41449  20785317.8194   20785322.7744
  20597935.084    -9925766.55949  -7717342.19949  20597938.3244   20597943.9004
  19625348.980   -15359915.20049 -11956521.54149  19625351.8034   19625356.6874
  22156451.336   -17373002.46749 -13289767.67749  22156453.4084   22156460.2154
  22908298.024   -15521725.45449 -12081779.52349  22908301.7694   22908307.8614
  22624685.435   -14217369.014 9 -10870506.895 9  22624687.589    22624693.006
 96  2 16 19  5 29.9980000  0  6 29 19 18 31 27 28
  20793282.749     -470737.26049   -360149.47649  20793285.3444   20793290.6044
  20587687.832    -9979617.15449  -7759303.68949  20587690.9504   20587696.3404
  19621676.711   -15379215.20049 -11971560.50749  19621679.2434   19621684.0004
  22140099.898   -17458927.21849 -13356722.00149  22140102.2554   22140108.9644
  22891329.568   -15610900.48949 -12151266.51449  22891331.1554   22891338.0704
  22618813.637   -14248224.420 9 -10894550.033 9  22618816.170    22618821.263
 96  2 16 19  5 59.9980000  0  6 29 19 18 31 27 28
  20801320.302     -428496.35149   -327234.50749  20801323.8104   20801328.6574
  20577480.392   -10033256.01549  -7801100.19149  20577483.7964   20577489.0764
  19618093.143   -15398044.97749 -11986233.06649  19618095.9044   19618100.1824
  22123817.789   -17544493.87849 -13423397.28549  22123820.3804   22123826.4754
  22874366.727   -15700035.37049 -12220722.22249  22874369.8504   22874376.0374
  22613039.252   -14278566.924 9 -10918193.508 9  22613042.021    22613047.399
 96  2 16 19  6 29.9980000  0  6 29 19 18 31 27 28
  20809428.680     -385886.80649   -294032.28549  20809432.2674   20809436.9304
  20567313.779   -10086682.25849  -7842731.01649  20567316.9624   20567322.5184
  19614598.103   -15416413.44549 -12000546.16149  19614600.6344   19614605.3424
  22107602.345   -17629700.68349 -13489792.14749  22107605.6294   22107612.2404
  22857414.518   -15789120.93649 -12290139.50549  22857418.0074   22857423.5454
  22607364.455   -14308392.011 9 -10941433.802 9  22607366.580    22607372.088
 96  2 16 19  6 59.9980000  0  6 29 19 18 31 27 28
  20817605.087     -342921.58449   -260552.92449  20817607.9384   20817613.1524
  20557186.680   -10139901.91349  -7884200.86649  20557189.4474   20557195.2154
  19611188.119   -15434329.13349 -12014506.44349  19611191.2244   19611196.1594
  22091454.908   -17714557.38749 -13555914.21349  22091458.1684   22091463.6814
  22840472.537   -15878150.30249 -12359512.98949  22840475.3734   22840482.1874
  22601787.073   -14337702.674 9 -10964273.246 9  22601788.972    22601794.050
 96  2 16 19  7 29.9980000  0  6 29 19 18 31 27 28
  20825846.227     -299614.04149   -226806.81249  20825849.5334   20825854.2474
  20547093.708   -10192942.72949  -7925531.36249  20547096.2324   20547102.0294
  19607864.278   -15451796.17049 -12028117.12749  19607867.5504   19607872.3554
  22075369.526   -17799087.68649 -13621781.93549  22075373.0244   22075378.5974
  22823539.850   -15967130.41649 -12428848.10349  22823543.0074   22823549.7904
  22596305.295   -14366506.700 9 -10986717.906 9  22596308.041    22596312.964
 96  2 16 19  7 59.9980000  0  6 29 19 18 31 27 28
  20834158.026     -255933.01749   -192769.67149  20834161.6834   20834166.5164
  20537029.460   -10245827.37449  -7966740.16149  20537032.6684   20537038.1464
  19604625.603   -15468814.46949 -12041378.14349  19604628.7244   19604633.8934
  22059347.309   -17883290.68049 -13687394.61349  22059349.6234   22059355.7074
  22806616.266   -16056061.92749 -12498145.33149  22806620.0714   22806625.8894
  22590920.887   -14394806.918 9 -11008769.988 9  22590922.142    22590927.569
 96  2 16 19  8 29.9980000  0  6 29 19 18 31 27 28
  20842544.988     -211861.78949   -158428.48549  20842548.1644   20842552.9774
  20526996.092   -10298553.64849  -8007825.55849  20526999.4354   20527004.8664
  19601475.562   -15485368.85149 -12054277.66449  19601478.7894   19601483.5144
  22043390.858   -17967141.88149 -13752733.19349  22043392.9894   22043399.0624
  22789705.498   -16144928.99549 -12567392.35149  22789709.3154   22789715.2924
  22585632.631   -14422591.117 9 -11030419.978 9  22585635.201    22585640.119
 96  2 16 19  8 59.9980000  0  6 29 19 18 31 27 28
  20851004.780     -167406.93449   -123788.36049  20851007.3504   20851012.2414
  20516991.826   -10351129.60749  -8048793.82849  20516994.4464   20516999.9304
  19598414.829   -15501457.09649 -12066813.96449  19598417.4574   19598422.1674
  22027500.482   -18050639.35249 -13817796.11849  22027503.8634   22027509.4834
  22772805.444   -16233742.64349 -12636597.74849  22772809.1174   22772814.9154
  22580442.674   -14449863.860 9 -11051671.427 9  22580445.271    22580449.947
 96  2 16 19  9 29.9980000  0  6 29 19 18 31 27 28
  20859538.210     -122560.88549    -88843.41049  20859541.6594   20859546.2944
  20507015.273   -10403553.81749  -8089643.84949  20507018.2334   20507023.9524
  19595444.506   -15517066.02949 -12078976.77249  19595447.2364   19595452.0714
  22011682.363   -18133768.99749 -13882572.42749  22011684.5674   22011690.3674
  22755914.603   -16322505.79449 -12705763.79949  22755917.6384   22755924.1494
  22575351.867   -14476616.163 9 -11072517.341 9  22575354.496    22575359.462
 96  2 16 19  9 59.9980000  0  6 29 19 18 31 27 28
  20868146.816      -77322.29049    -53592.58449  20868149.9264   20868155.1864
  20497073.410   -10455800.36249  -8130355.43649  20497076.1774   20497081.6674
  19592569.357   -15532173.23149 -12090748.62549  19592572.0814   19592576.8884
  21995935.670   -18216517.68349 -13947051.88649  21995937.8324   21995943.7274
  22739037.474   -16411193.81249 -12774871.30049  22739040.5524   22739046.8344
  22570362.440   -14502835.650 9 -11092948.076 9  22570364.894    22570370.003
 96  2 16 19 10 29.9980000  0  6 29 19 18 31 27 28
  20876819.770      -31748.01449    -18080.18549  20876822.6684   20876827.4764
  20487161.236   -10507888.89549  -8170943.89349  20487164.1404   20487169.7714
  19589785.259   -15546802.55849 -12102148.10349  19589788.4144   19589793.2844
  21980253.930   -18298922.06549 -14011263.05049  21980257.0074   21980262.8204
  22722170.896   -16499830.82949 -12843939.06649  22722173.8614   22722179.7254
  22565469.695   -14528549.914 9 -11112985.134 9  22565471.870    22565476.642
 96  2 16 19 10 59.9980000  0  7 29  2 19 18 31 27 28
  20885557.793       14171.16849     17700.96849  20885560.8144   20885565.9034
  24468595.889    -4794566.85359  -3713688.72959  24468601.4674   24468610.3974
  20477279.895   -10559814.01949  -8211405.02149  20477283.0744   20477288.7704
  19587093.511   -15560949.21549 -12113171.47849  19587096.4594   19587101.2094
  21964641.178   -18380976.33749 -14075201.41049  21964642.4124   21964648.7284
  22705315.036   -16588412.16749 -12912963.43449  22705317.7064   22705323.5504
  22560673.327   -14553751.785 9 -11132622.916 9  22560675.918    22560680.873
 96  2 16 19 11 29.9980000  0  7 29  2 19 18 31 27 28
  20894364.024       60448.88849     53761.49649  20894367.2754   20894372.0724
  24447437.642    -4905778.49949  -3800347.00449  24447438.1294   24447447.5884
  20467432.401   -10611561.97649  -8251728.09049  20467435.8274   20467441.0394
  19584493.948   -15574610.62949 -12123816.74149  19584496.8474   19584501.4674
  21949095.218   -18462667.99049 -14138857.20849  21949097.1724   21949103.0604
  22688471.822   -16676918.69749 -12981929.52949  22688474.9394   22688481.0194
  22555978.177   -14578424.166 9 -11151848.110 9  22555980.648    22555985.968
 96  2 16 19 11 59.9980000  0  7 29  2 19 18 31 27 28
  20903233.946      107061.24549     90082.78549  20903237.5374   20903242.3574
  24426288.501    -5016920.77949  -3886951.22949  24426288.3054   24426296.9394
  20457616.128   -10663148.44649  -8291925.32749  20457618.9684   20457624.6824
  19581978.688   -15587827.39649 -12134115.52549  19581981.7764   19581986.6644
  21933613.327   -18544024.05349 -14202251.50849  21933615.8994   21933620.9614
  22671637.818   -16765380.95649 -13050861.11749  22671641.0754   22671646.6914
  22551379.193   -14602594.535 9 -11170682.124 9  22551381.417    22551386.636
 96  2 16 19 12 29.9980000  0  7 29  2 19 18 31 27 28
  20912175.953      154050.86849    126698.04149  20912179.1254   20912183.8864
  24405153.962    -5127953.56349  -3973470.15849  24405159.1774   24405168.0994
  20447834.259   -10714550.85749  -8331979.14549  20447837.2924   20447842.9244
  19579549.926   -15600593.51749 -12144063.15949  19579552.2854   19579557.1744
  21918203.218   -18625004.62649 -14265353.21949  21918205.6564   21918211.1664
  22654814.558   -16853790.49349 -13119751.62949  22654816.9704   22654823.6514
  22546880.477   -14626232.802 9 -11189101.514 9  22546883.152    22546888.079
 96  2 16 19 12 59.9980000  0  7 29  2 19 18 31 27 28
  20921193.304      201436.16349    163621.61949  20921196.3474   20921201.1614
  24384052.291    -5238859.08349  -4059889.95649  24384055.0274   24384062.9144
  20438088.562   -10765766.47649  -8371887.41249  20438091.6054   20438097.0924
  19577206.862   -15612903.38049 -12153655.26349  19577209.8094   19577214.6474
  21902868.671   -18705585.88249 -14328143.76449  21902871.6314   21902876.5724
  22638000.626   -16942143.59249 -13188598.16049  22638004.6684   22638010.6204
  22542486.594   -14649325.755 9 -11207095.983 9  22542488.606    22542493.921
 96  2 16 19 13 29.9980000  0  7 29  2 19 18 31 27 28
  20930284.628      249214.00049    200851.08449  20930288.1344   20930292.9524
  24362967.390    -5349654.37349  -4146223.85849  24362970.7044   24362979.9804
  20428378.303   -10816792.97649  -8411648.30949  20428381.5174   20428387.0414
  19574951.625   -15624756.06649 -12162891.13049  19574954.3904   19574959.0614
  21887611.544   -18785765.65549 -14390621.48549  21887613.8324   21887619.1134
  22621198.795   -17030444.28049 -13257403.85749  22621200.9154   22621207.2004
  22538195.843   -14671875.658 9 -11224667.298 9  22538197.632    22538202.310
 96  2 16 19 13 59.9980000  0  7 29  2 19 18 31 27 28
  20939449.487      297373.66049    238378.06549  20939452.6734   20939457.5824
  24341905.169    -5460342.05249  -4232473.89349  24341907.6104   24341917.3394
  20418703.255   -10867638.19149  -8451267.94349  20418706.0514   20418711.2704
  19572784.877   -15636140.94649 -12171762.47049  19572787.9024   19572792.6564
  21872430.579   -18865537.42749 -14452781.26449  21872433.9274   21872439.0144
  22604403.393   -17118701.23849 -13326175.47849  22604406.3914   22604412.8704
  22534006.175   -14693889.554 9 -11241820.942 9  22534008.201    22534013.371
 96  2 16 19 14 29.9980000  0  7 29  2 19 18 31 27 28
  20948683.947      345903.64449    276193.61249  20948687.7154   20948692.8204
  24320865.302    -5570920.97949  -4318639.19649  24320864.3604   24320874.1764
  20409058.946   -10918318.80649  -8490759.32349  20409061.9424   20409067.4664
  19570713.140   -15647029.89449 -12180247.37449  19570715.6704   19570720.4644
  21857330.433   -18944889.13249 -14514613.73449  21857332.8114   21857339.4044
  22587620.047   -17206897.55749 -13394899.85149  22587623.0544   22587628.8794
  22529919.299   -14715365.158 9 -11258555.140 9  22529921.641    22529926.438
 96  2 16 19 14 59.9980000  0  7 29  2 19 18 31 27 28
  20957989.344      394800.58349    314295.09149  20957992.1114   20957997.3724
  24299839.395    -5681388.96549  -4404718.06649  24299844.5384   24299851.9974
  20399446.884   -10968827.71849  -8530116.90649  20399450.0924   20399455.5774
  19568739.318   -15657401.13249 -12188328.86749  19568742.3304   19568747.1004
  21842309.003   -19023828.98549 -14576125.28449  21842311.9004   21842317.3844
  22570851.092   -17295019.11049 -13463565.97449  22570854.2384   22570859.7424
  22525934.800   -14736305.640 9 -11274872.360 9  22525936.765    22525941.720
 96  2 16 19 15 29.9980000  0  7 29  2 19 18 31 27 28
  20967362.988      444062.13849    352680.69149  20967366.7104   20967371.5674
  24278841.214    -5791739.61649  -4490705.50749  24278844.5284   24278853.1454
  20389873.305   -11019141.17749  -8569322.18649  20389876.0334   20389881.2394
  19566863.226   -15667254.96749 -12196007.18749  19566867.1744   19566871.7284
  21827364.945   -19102364.07449 -14637321.42749  21827367.2694   21827373.2224
  22554096.564   -17383061.71549 -13532170.56849  22554100.2194   22554106.1024
  22522049.857   -14756710.610 9 -11290772.299 9  22522053.453    22522058.787
 96  2 16 19 15 59.9980000  0  7 29  2 19 18 31 27 28
  20976806.501      493683.04849    391346.30649  20976809.2724   20976814.1804
  24257870.887    -5901949.49949  -4576583.25749  24257872.6184   24257880.7964
  20380338.365   -11069250.53849  -8608368.43049  20380340.4494   20380345.7294
  19565087.548   -15676593.28449 -12203283.80549  19565090.2264   19565094.8784
  21812497.301   -19180493.39649 -14698201.39749  21812499.7994   21812504.8544
  22537358.788   -17471019.34449 -13600708.94249  22537362.7034   22537368.7184
  22518271.509   -14776574.247 9 -11306250.423 9  22518273.642    22518278.556
 96  2 16 19 16 29.9980000  0  7 29  2 19 18 31 27 28
  20986317.336      543665.63149    430293.73649  20986320.3964   20986325.3874
  24236922.919    -6012025.59449  -4662356.77049  24236925.5364   24236934.0424
  20370842.278   -11119149.75549  -8647250.92849  20370845.0024   20370850.2584
  19563404.654   -15685435.32849 -12210173.71549  19563407.6834   19563412.4974
  21797703.626   -19258235.71849 -14758779.81749  21797706.0564   21797710.5504
  22520633.963   -17558905.39749 -13669191.54249  22520637.5474   22520643.8324
  22514593.542   -14795902.425 9 -11321311.306 9  22514595.347    22514600.905
 96  2 16 19 16 59.9980000  0  7 29  2 19 18 31 27 28
  20995896.028      594005.01249    469519.19749  20995899.5234   20995904.3844
  24215996.223    -6121987.86549  -4748041.56849  24216000.2124   24216008.9274
  20361385.281   -11168844.82749  -8685974.34749  20361388.3604   20361393.6274
  19561808.289   -15693820.37849 -12216707.52749  19561811.9124   19561816.7374
  21782980.168   -19335610.17249 -14819071.57049  21782981.7024   21782986.6264
  22503920.282   -17646737.66549 -13737632.23049  22503924.1304   22503930.4944
  22511014.949   -14814708.622 9 -11335965.463 9  22511016.894    22511022.135
 96  2 16 19 17 29.9980000  0  7 29  2 19 18 31 27 28
  21005543.463      644696.72549    509019.20249  21005546.6004   21005551.1804
  24195091.434    -6231848.47949  -4833647.16749  24195094.8244   24195103.1854
  20351966.458   -11218343.10949  -8724544.42649  20351969.1204   20351974.2144
  19560298.755   -15701757.11249 -12222892.00349  19560301.5974   19560306.2684
  21768327.528   -19412604.64849 -14879067.24949  21768329.9884   21768335.5994
  22487217.121   -17734517.23249 -13806031.85349  22487219.7704   22487225.8534
  22507535.487   -14832987.091 9 -11350208.396 9  22507538.901    22507543.883
 96  2 16 19 17 59.9980000  0  7 29  2 19 18 31 27 28
  21015257.188      695745.76049    548797.64249  21015260.5154   21015265.6164
  24174201.950    -6341624.53549  -4919186.89549  24174204.8884   24174213.7304
  20342581.246   -11267660.60449  -8762973.63049  20342584.1224   20342589.5144
  19558875.643   -15709235.47449 -12228719.30649  19558878.5204   19558883.2714
  21753750.622   -19489208.44649 -14938758.50949  21753752.2214   21753758.6164
  22470523.958   -17822240.01349 -13874387.22449  22470527.1214   22470533.4484
  22504158.612   -14850737.947 9 -11364040.206 9  22504160.688    22504166.027
 96  2 16 19 18 29.9980000  0  7 29  2 19 18 31 27 28
  21025043.039      747171.30449    588869.46349  21025046.9084   21025051.6134
  24153329.054    -6451320.98549  -5004664.58849  24153330.2594   24153338.9024
  20333231.929   -11316789.48149  -8801255.86449  20333235.1924   20333240.4764
  19557542.927   -15716237.84449 -12234175.70649  19557546.1014   19557550.5124
  21739250.510   -19565405.56449 -14998132.87249  21739253.0054   21739258.7634
  22453843.956   -17909893.52849 -13942688.62849  22453847.4774   22453853.2484
  22500883.146   -14867952.984 9 -11377454.505 9  22500885.220    22500889.933
 96  2 16 19 18 59.9980000  0  7 29  2 19 18 31 27 28
  21034899.625      798967.11149    629229.80449  21034902.9404   21034907.7804
  24132469.383    -6560931.51249  -5090075.32649  24132471.8274   24132480.5594
  20323917.398   -11365740.58149  -8839399.57249  20323920.0084   20323925.3384
  19556303.609   -15722755.14349 -12239254.13249  19556305.7414   19556310.6094
  21724829.912   -19641185.12449 -15057181.86449  21724832.1724   21724838.3244
  22437179.395   -17997465.17449 -14010926.23949  22437182.6574   22437188.7784
  22497707.291   -14884634.901 9 -11390453.389 9  22497710.678    22497715.526
 96  2 16 19 19 29.9980000  0  7 29  2 19 18 31 27 28
  21044830.614      851151.92649    669893.26549  21044833.6624   21044838.4464
  24111634.584    -6670423.64549  -5175393.81049  24111636.7354   24111645.0214
  20314639.061   -11414497.51249  -8877391.98149  20314642.0324   20314647.4974
  19555161.439   -15728754.36749 -12243928.85849  19555164.3034   19555169.0824
  21710493.016   -19716524.79649 -15115888.09149  21710496.0714   21710501.6304
  22420532.429   -18084948.50649 -14079095.02949  22420535.3314   22420541.7364
  22494637.515   -14900768.548 9 -11403025.048 9  22494640.400    22494645.337
 96  2 16 19 19 59.9980000  0  7 29  2 19 18 31 27 28
  21054830.841      903704.66749    710843.42249  21054833.6884   21054838.8174
  24090820.338    -6779799.75149  -5260621.88949  24090822.6434   24090830.7814
  20305393.129   -11463086.72849  -8915253.69549  20305395.6414   20305401.0584
  19554115.288   -15734251.19449 -12248212.10849  19554118.0894   19554123.1094
  21696238.448   -19791437.38449 -15174261.52149  21696241.1444   21696245.8434
  22403897.499   -18172366.89649 -14147213.21249  22403899.6204   22403905.9994
  22491668.182   -14916375.521 9 -11415186.311 9  22491670.549    22491675.346
 96  2 16 19 20 29.9980000  0  7 29  2 19 18 31 27 28
  21064898.831      956617.69349    752074.32449  21064902.8094   21064907.9554
  24070033.223    -6889028.96349  -5345735.49149  24070037.5074   24070045.7934
  20296177.312   -11511514.38649  -8952989.52749  20296180.2734   20296185.8434
  19553164.992   -15739242.52249 -12252101.46149  19553168.3564   19553173.0724
  21682064.370   -19865921.18049 -15232300.82849  21682066.9164   21682072.8034
  22387273.196   -18259729.07849 -14215287.60149  22387275.3954   22387281.4134
  22488798.776   -14931451.140 9 -11426933.533 9  22488801.655    22488806.814
 96  2 16 19 20 59.9980000  0  7 29  2 19 18 31 27 28
  21075036.929     1009889.59049    793584.86049  21075040.4904   21075045.0554
  24049280.157    -6998095.62549  -5430722.41149  24049282.5614   24049290.4464
  20286990.126   -11559793.42049  -8990609.55049  20286993.0154   20286998.2524
  19552312.588   -15743722.66149 -12255592.48649  19552315.6584   19552320.5124
  21667974.325   -19939962.97549 -15289995.71649  21667976.6524   21667982.8374
  22370659.556   -18347032.88949 -14283316.49949  22370661.9634   22370667.9914
  22486034.311   -14945984.476 9 -11438258.196 9  22486036.027    22486040.902
 96  2 16 19 21 29.9980000  0  7 29  2 19 18 31 27 28
  21085239.414     1063500.24549    835359.36149  21085242.0674   21085247.0404
  24028551.949    -7107029.07049  -5515605.53649  24028553.5044   24028561.3244
  20277829.601   -11607931.49749  -9028119.73249  20277832.8684   20277837.8864
  19551552.557   -15747717.60249 -12258705.43649  19551555.5774   19551560.5254
  21653967.613   -20013568.33249 -15347350.52349  21653970.3474   21653976.3994
  22354051.550   -18434306.24149 -14351321.66149  22354054.4294   22354060.5264
  22483369.862   -14959985.323 9 -11449167.941 9  22483371.779    22483376.661
 96  2 16 19 21 59.9980000  0  7 29  2 19 18 31 27 28
  21095499.950     1117427.26849    877380.38749  21095503.6984   21095508.9354
  24007842.892    -7215846.16249  -5600398.00349  24007846.3064   24007853.6734
  20268697.547   -11655922.95949  -9065515.67149  20268700.3774   20268705.5734
  19550883.749   -15751233.36549 -12261444.99949  19550886.2844   19550891.0804
  21640043.085   -20086741.47349 -15404368.53749  21640045.9034   21640051.3684
  22337449.938   -18521547.33749 -14419301.69349  22337453.1394   22337459.2244
  22480806.837   -14973451.371 9 -11459660.954 9  22480809.303    22480814.237
 96  2 16 19 22 29.9980000  0  7 29  2 19 18 31 27 28
  21105824.345     1171677.15949    919653.00049  21105827.5154   21105832.7194
  23987154.323    -7324559.38349  -5685109.51849  23987158.3604   23987166.0264
  20259596.219   -11703750.36749  -9102783.77249  20259598.8814   20259604.5134
  19550307.664   -15754259.23749 -12263802.82749  19550310.9284   19550315.9174
  21626201.762   -20159480.52949 -15461048.29949  21626204.8854   21626210.1814
  22320857.516   -18608742.91949 -14487246.25249  22320860.5704   22320866.3374
  22478346.764   -14986375.549 9 -11469731.725 9  22478349.889    22478354.576
 96  2 16 19 22 59.9980000  0  7 29  2 19 18 31 27 28
  21116214.125     1226277.60749    962198.77249  21116217.6304   21116222.5604
  23966489.432    -7433164.23049  -5769736.57449  23966491.6094   23966499.6634
  20250532.188   -11751380.90149  -9139898.46549  20250535.1204   20250540.5224
  19549826.882   -15756788.17449 -12265773.43849  19549829.6914   19549834.3784
  21612448.800   -20231754.23749 -15517365.45449  21612451.3274   21612456.8484
  22304280.513   -18695858.03049 -14555128.12049  22304283.1854   22304288.6774
  22475993.584   -14998743.104 9 -11479368.774 9  22475996.234    22476000.933
 96  2 16 19 23 29.9980000  0  7 29  2 19 18 31 27 28
  21126666.575     1281203.77949   1004998.35349  21126669.9264   21126674.8994
  23945836.663    -7541679.76649  -5854294.04949  23945841.5994   23945848.9074
  20241503.696   -11798826.96249  -9176869.41049  20241506.2564   20241511.5584
  19549436.590   -15758839.38649 -12267371.79349  19549439.1524   19549444.1904
  21598778.711   -20303591.40549 -15573342.44049  21598781.2174   21598786.0884
  22287712.075   -18782921.28449 -14622969.57849  22287715.4574   22287720.7464
  22473741.177   -15010584.315 9 -11488595.671 9  22473742.907    22473748.006
 96  2 16 19 23 59.9980000  0  8 29  2 16 19 18 31 27 28
  21137188.614     1336500.38449   1048086.59249  21137192.3704   21137197.3324
  23925217.044    -7650051.95549  -5938739.81649  23925217.5394   23925226.7944
  24168279.513    -5854909.36359  -4544689.63859  24168281.0984   24168283.1164
  20232516.344   -11846058.14549  -9213672.91549  20232518.8354   20232523.9354
  19549145.982   -15760364.84049 -12268560.46249  19549148.9454   19549153.7404
  21585197.022   -20374963.70349 -15628957.19349  21585198.9704   21585204.8614
  22271162.787   -18869885.93149 -14690734.20349  22271166.5624   22271171.7094
  22471594.046   -15021864.875 9 -11497385.705 9  22471596.487    22471601.058
 96  2 16 19 24 29.9980000  0  8 29  2 16 19 18 31 27 28
  21147784.943     1392180.17249   1091473.40749  21147787.9924   21147792.7494
  23904625.027    -7758267.40649  -6023063.44149  23904626.9044   23904634.0094
  24151988.320    -5940514.50049  -4611394.91249  24151990.1164   24151997.6344
  20223566.515   -11893088.69149  -9250320.08949  20223568.9794   20223574.2074
  19548952.512   -15761385.61049 -12269355.87749  19548954.9174   19548959.5374
  21571703.067   -20445872.77349 -15684210.97749  21571705.4914   21571710.5624
  22254632.725   -18956758.59249 -14758427.14849  22254635.2644   22254641.2794
  22469552.671   -15032593.378 9 -11505745.566 9  22469554.825    22469559.763
 96  2 16 19 24 59.9980000  0  8 29  2 16 19 18 31 27 28
  21158456.298     1448263.47149   1135174.65049  21158460.3624   21158465.4464
  23884068.969    -7866290.92549  -6107237.50349  23884069.9194   23884078.5494
  24135776.571    -6025706.06449  -4677778.03149  24135780.7484   24135785.0274
  20214657.121   -11939903.91949  -9286799.47349  20214660.4754   20214665.8334
  19548855.835   -15761890.03049 -12269748.93349  19548858.6454   19548863.6434
  21558299.323   -20516309.81249 -15739096.94349  21558301.7274   21558307.5644
  22238118.522   -19043535.76549 -14826045.68849  22238121.7474   22238127.9414
  22467619.445   -15042752.346 9 -11513661.627 9  22467621.636    22467626.577
 96  2 16 19 25 29.9980000  0  8 29  2 16 19 18 31 27 28
  21169204.112     1504738.55049   1179181.17249  21169206.8734   21169212.3074
  23863544.902    -7974135.49749  -6191272.13049  23863547.9944   23863555.9464
  24119643.444    -6110489.03649  -4743842.68749  24119644.3794   24119652.7454
  20205788.392   -11986510.85849  -9323116.55749  20205791.5314   20205796.5434
  19548856.802   -15761886.60449 -12269746.27349  19548859.2914   19548864.2674
  21544980.554   -20586298.65949 -15793633.67549  21544983.2324   21544988.7884
  22221620.019   -19130237.81849 -14893605.69149  22221622.6424   22221628.6264
  22465793.750   -15052347.150 9 -11521138.084 9  22465795.583    22465800.502
 96  2 16 19 25 59.9980000  0  8 29  2 16 19 18 31 27 28
  21180019.607     1561576.06949   1223470.11049  21180022.5224   21180028.1674
  23843052.508    -8081825.40249  -6275186.25549  23843055.0074   23843062.8754
  24103583.953    -6194874.72349  -4809597.76249  24103588.3114   24103593.3224
  20196956.042   -12032924.02849  -9359282.64749  20196959.1504   20196964.2504
  19548947.474   -15761407.91149 -12269373.27349  19548950.5084   19548955.4624
  21531744.692   -20655852.15549 -15847831.17049  21531747.7394   21531752.9484
  22205132.282   -19216877.88849 -14961117.39849  22205136.1084   22205141.8844
  22464072.320   -15061392.845 9 -11528186.667 9  22464074.240    22464079.349
 96  2 16 19 26 29.9980000  0  8 29  2 16 19 18 31 27 28
  21190904.359     1618777.70149   1268042.77549  21190908.0794   21190913.0934
  23822590.208    -8189361.52149  -6358980.51549  23822590.8804   23822598.7734
  24087603.582    -6278850.68549  -4875033.54049  24087607.0314   24087613.4394
  20188160.389   -12079146.49949  -9395300.14449  20188163.3694   20188168.7544
  19549129.228   -15760451.29949 -12268627.86849  19549132.4264   19549137.3414
  21518597.921   -20724941.98049 -15901667.35149  21518600.5354   21518606.1124
  22188658.610   -19303450.19749 -15028576.30749  22188661.9464   22188667.5354
  22462456.152   -15069881.696 9 -11534801.341 9  22462458.994    22462463.951
 96  2 16 19 26 59.9980000  0  8 29  2 16 19 18 31 27 28
  21201855.925     1676326.96449   1312886.32349  21201859.3574   21201864.4944
  23802150.869    -8296762.05249  -6442669.14749  23802153.3304   23802161.7464
  24071702.191    -6362416.51849  -4940149.76349  24071704.9434   24071711.6544
  20179401.256   -12125178.19249  -9431168.98649  20179403.9264   20179408.8324
  19549406.658   -15758998.13149 -12267495.54149  19549409.0994   19549414.0934
  21505538.799   -20793565.42749 -15955140.12149  21505541.9944   21505546.4354
  22172197.585   -19389957.85449 -15095984.83749  22172199.9404   22172205.8244
  22460946.245   -15077819.007 9 -11540986.254 9  22460948.562    22460953.260
 96  2 16 19 27 29.9980000  0  8 29  2 16 19 18 31 27 28
  21212869.182     1734198.58649   1357981.06249  21212871.6884   21212877.3114
  23781735.437    -8404051.61849  -6526271.31349  23781737.0204   23781744.7534
  24055877.647    -6445567.20949  -5004942.50949  24055882.4164   24055889.4104
  20170673.379   -12171039.62349  -9466905.15549  20170676.7244   20170681.8704
  19549774.680   -15757061.95349 -12265986.84149  19549777.4594   19549782.3224
  21492571.067   -20861715.99849 -16008244.41149  21492572.8024   21492578.4024
  22155746.240   -19476406.45549 -15163347.35049  22155749.0574   22155754.7944
  22459537.971   -15085217.580 9 -11546751.364 9  22459540.421    22459545.580
 96  2 16 19 27 59.9980000  0  8 29  2 16 19 18 31 27 28
  21223946.325     1792409.10549   1403339.86749  21223949.2354   21223954.4404
  23761343.736    -8511207.89649  -6609769.62149  23761345.8244   23761353.9744
  24040138.974    -6528279.58349  -5069393.70649  24040142.8544   24040149.5614
  20161979.420   -12216729.67949  -9502507.78949  20161982.2414   20161987.1354
  19550241.828   -15754607.21149 -12264074.06549  19550244.4904   19550249.3794
  21479696.983   -20929363.80749 -16060956.94049  21479699.9234   21479705.2784
  22139311.876   -19562774.05449 -15230646.74249  22139314.0634   22139319.7764
  22458236.198   -15092058.780 9 -11552082.158 9  22458238.789    22458243.382
 96  2 16 19 28 29.9980000  0  8 29  2 16 19 18 31 27 28
  21235089.477     1850968.02949   1448970.16449  21235092.5954   21235097.6834
  23740979.246    -8618227.89949  -6693161.74849  23740980.6604   23740988.5744
  24024482.997    -6610567.33249  -5133514.01849  24024483.8494   24024491.2714
  20153316.768   -12262249.05049  -9537977.41949  20153320.1734   20153325.2084
  19550808.445   -15751625.93449 -12261751.00149  19550811.9304   19550816.6204
  21466917.324   -20996523.55249 -16113289.16449  21466919.8444   21466925.4124
  22122890.601   -19649065.67249 -15297886.92749  22122893.5354   22122898.9624
  22457038.821   -15098350.123 9 -11556984.495 9  22457041.892    22457046.548
 96  2 16 19 28 59.9980000  0  8 29  2 16 19 18 31 27 28
  21246297.749     1909867.27749   1494865.64649  21246300.5854   21246305.8604
  23720638.850    -8725111.46749  -6776447.57449  23720642.2574   23720649.0334
  24008899.395    -6692448.86349  -5197317.79449  24008902.7654   24008907.7594
  20144688.772   -12307590.70049  -9573308.56349  20144691.6964   20144697.1334
  19551476.527   -15748117.49349 -12259017.16149  19551479.4484   19551484.7094
  21454223.497   -21063228.37549 -16165266.90149  21454226.0284   21454231.9694
  22106481.514   -19735293.29049 -15365077.24249  22106484.8544   22106490.5974
  22455945.799   -15104098.297 9 -11561463.573 9  22455947.933    22455952.843
 96  2 16 19 29 29.9980000  0  8 29  2 16 19 18 31 27 28
  21257569.717     1969101.39049   1541022.05949  21257572.5914   21257577.7714
  23700326.780    -8831851.74149  -6859621.74749  23700329.3514   23700336.8724
  23993394.089    -6773940.71349  -5260817.92749  23993395.9964   23993401.3954
  20136090.728   -12352776.38749  -9608518.17449  20136093.2474   20136098.6404
  19552241.333   -15744096.74649 -12255884.12349  19552244.7114   19552249.5174
  21441614.574   -21129488.24849 -16216897.93249  21441617.3574   21441622.9314
  22090081.369   -19821476.11049 -15432232.65049  22090084.4014   22090090.1864
  22454953.558   -15109312.018 9 -11565526.202 9  22454955.757    22454960.351
 96  2 16 19 29 59.9970000  0  8 29  2 16 19 18 31 27 28
  21268903.473     2028663.41549   1587433.99449  21268907.0534   21268912.4854
  23680047.049    -8938422.19649  -6942663.59449  23680049.7444   23680056.5204
  23977955.686    -6855057.22349  -5324025.59249  23977959.0854   23977964.9864
  20127522.710   -12397799.45249  -9643601.07649  20127525.7994   20127531.0314
  19553103.802   -15739567.10249 -12252354.53549  19553106.6204   19553111.5404
  21429091.121   -21195304.42949 -16268183.21849  21429093.2994   21429098.4324
  22073690.307   -19907609.27549 -15499349.36549  22073694.0534   22073699.8324
  22454061.823   -15113997.341 9 -11569177.093 9  22454063.914    22454068.931
 96  2 16 19 30 29.9970000  0  8 29  2 16 19 18 31 27 28
  21280303.677     2088570.56049   1634114.84649  21280306.8334   21280312.0494
  23659802.810    -9044812.31449  -7025564.92149  23659803.7744   23659811.5734
  23962592.417    -6935793.30849  -5386936.82649  23962594.8254   23962602.1044
  20118992.282   -12442627.61549  -9678532.09849  20118995.3424   20119000.5724
  19554063.442   -15734527.17049 -12248427.32849  19554065.8494   19554070.4314
  21416653.738   -21260662.06049 -16319111.19949  21416656.0134   21416661.0744
  22057312.209   -19993674.54749 -15566413.17749  22057316.2864   22057322.7334
  22453273.948   -15118139.986 9 -11572405.114 9  22453275.753    22453280.528
 96  2 16 19 30 59.9970000  0  8 29  2 16 19 18 31 27 28
  21291765.720     2148806.00649   1681051.52549  21291769.5264   21291774.6234
  23639588.399    -9151034.99649  -7108335.80049  23639590.6214   23639597.5444
  23947305.861    -7016132.74149  -5449538.98749  23947307.3254   23947313.6654
  20110497.298   -12487269.49749  -9713317.96649  20110500.2454   20110505.5364
  19555117.490   -15728985.76149 -12244109.35249  19555120.3124   19555125.1084
  21404307.240   -21325543.94449 -16369668.46949  21404309.0134   21404314.3864
  22040947.631   -20079671.04449 -15633423.39549  22040951.3614   22040957.7384
  22452588.523   -15121741.534 9 -11575211.498 9  22452590.140    22452595.041
 96  2 16 19 31 29.9970000  0  8 29  2 16 19 18 31 27 28
  21303290.093     2209362.98349   1728238.74249  21303292.9514   21303297.9254
  23619406.230    -9257089.94549  -7190975.98049  23619408.8364   23619415.8344
  23932096.811    -7096052.24649  -5511813.91549  23932098.6574   23932105.8864
  20102039.318   -12531713.70349  -9747949.80949  20102042.8224   20102047.6154
  19556264.747   -15722957.99049 -12239412.39449  19556267.0474   19556272.0894
  21392057.634   -21389915.42449 -16419828.02349  21392059.5154   21392065.1984
  22024602.489   -20165571.56149 -15700358.82849  22024605.4954   22024610.8964
  22452006.915   -15124793.843 9 -11577589.904 9  22452009.443    22452014.510
 96  2 16 19 31 59.9970000  0  8 29  2 16 19 18 31 27 28
  21314871.357     2270227.71549   1775665.77249  21314874.8984   21314880.2374
  23599249.517    -9363020.19749  -7273518.99649  23599250.8154   23599257.8714
  23916967.701    -7175556.09349  -5573764.96349  23916970.3074   23916977.1034
  20093623.724   -12575943.50349  -9782414.58249  20093626.2314   20093631.4354
  19557499.212   -15716469.22449 -12234356.22249  19557502.3204   19557506.9204
  21379902.653   -21453788.21949 -16469598.99149  21379905.4944   21379909.9004
  22008276.625   -20251360.95049 -15767207.67249  22008280.0194   22008285.7724
  22451528.706   -15127305.802 9 -11579547.257 9  22451531.438    22451536.355
 96  2 16 19 32 29.9970000  0  8 29  2 16 19 18 31 27 28
  21326515.597     2331413.81249   1823343.20949  21326518.6014   21326523.8344
  23579107.667    -9468855.96649  -7355988.39349  23579111.1424   23579118.4394
  23901919.199    -7254634.30549  -5635384.35649  23901921.5644   23901929.2994
  20085246.619   -12619961.08949  -9816713.99249  20085249.8834   20085255.2004
  19558820.705   -15709523.32149 -12228943.83749  19558823.5374   19558828.7654
  21367842.367   -21517162.74349 -16518981.70149  21367845.4104   21367850.4664
  21991968.999   -20337062.37049 -15833987.96949  21991971.0854   21991977.4794
  22451154.689   -15129277.385 9 -11581083.536 9  22451156.286    22451161.196
 96  2 16 19 32 59.9970000  0  8 29  2 16 19 18 31 27 28
  21338220.195     2392923.67849   1871272.94149  21338223.2694   21338228.6664
  23558988.305    -9574577.63249  -7438368.89349  23558991.9074   23559000.2724
  23886956.912    -7333269.89949  -5696658.84649  23886958.1194   23886965.1674
  20076908.988   -12663775.40149  -9850855.00249  20076912.1534   20076917.4024
  19560230.998   -15702112.42049 -12223169.11249  19560234.0554   19560239.2064
  21355878.269   -21580038.02649 -16567975.37849  21355880.4054   21355885.4794
  21975674.384   -20422689.45149 -15900710.33349  21975677.1044   21975682.9544
  22450881.822   -15130704.274 9 -11582195.372 9  22450884.898    22450889.629
 96  2 16 19 33 29.9970000  0  8 29  2 16 19 18 31 27 28
  21349991.537     2454781.92749   1919474.13149  21349994.6514   21349999.9844
  23538899.921    -9680152.59349  -7520635.07149  23538902.4194   23538909.7074
  23872076.491    -7411461.05649  -5757587.02449  23872079.0504   23872085.3684
  20068612.597   -12707373.58749  -9884827.60549  20068615.8264   20068621.1654
  19561732.491   -15694224.19449 -12217022.45049  19561735.2924   19561740.1724
  21344008.416   -21642412.88949 -16616579.12749  21344010.7114   21344016.1104
  21959395.218   -20508238.23949 -15967371.69149  21959397.8084   21959403.7914
  22450716.297   -15131572.292 9 -11582871.723 9  22450719.482    22450724.368
 96  2 16 19 33 59.9970000  0  8 29  2 16 19 18 31 27 28
  21361831.858     2517002.02049   1967957.28949  21361834.7024   21361840.0734
  23518839.273    -9785570.91349  -7602779.18949  23518842.4114   23518850.5094
  23857277.889    -7489230.49949  -5818186.57649  23857280.4104   23857286.8914
  20060352.820   -12750778.75249  -9918649.80349  20060355.8694   20060361.5014
  19563329.270   -15685833.37249 -12210484.14849  19563331.9364   19563336.8324
  21332229.625   -21704312.40249 -16664812.47449  21332231.6484   21332236.6784
  21943121.318   -20593751.22449 -16034005.14749  21943124.6924   21943131.1284
  22450656.733   -15131891.346 9 -11583120.313 9  22450658.615    22450663.628
 96  2 16 19 34 29.9970000  0  8 29  2 16 19 18 31 27 28
  21373740.042     2579583.66949   2016722.17149  21373743.7554   21373748.6174
  23498816.134    -9890787.33349  -7684765.99049  23498819.8144   23498828.4474
  23842558.223    -7566576.20149  -5878455.97249  23842561.8994   23842568.7734
  20052124.923   -12794016.48949  -9952341.53549  20052127.8694   20052133.3384
  19565024.957   -15676920.54549 -12203539.09749  19565027.8674   19565032.9104
  21320540.380   -21765736.22949 -16712675.15249  21320543.0274   21320548.5864
  21926854.934   -20679237.12449 -16100617.49649  21926857.8344   21926863.2764
  22450699.435   -15131662.327 9 -11582941.829 9  22450702.437    22450706.845
 96  2 16 19 34 59.9970000  0  8 29  2 16 19 18 31 27 28
  21385713.107     2642499.94449   2065747.80249  21385716.3424   21385721.7794
  23478837.635    -9995788.04249  -7766584.69549  23478839.4154   23478846.7214
  23827918.846    -7643506.44649  -5938401.61649  23827922.0014   23827929.0894
  20043929.797   -12837086.56949  -9985902.62849  20043932.0654   20043937.4074
  19566821.205   -15667481.86049 -12196184.28149  19566824.3334   19566829.1104
  21308941.598   -21826693.49049 -16760174.28049  21308943.8944   21308948.4394
  21910597.604   -20764666.85249 -16167186.07249  21910600.9354   21910606.4964
  22450846.992   -15130883.310 9 -11582334.773 9  22450850.467    22450855.144
 96  2 16 19 35 29.9970000  0  8 29  2 16 19 18 31 27 28
  21397748.646     2705749.54149   2115033.16549  21397752.5654   21397758.1234
  23458893.444   -10100588.51349  -7848247.38049  23458896.2174   23458903.4574
  23813359.958    -7720020.20349  -5998022.72649  23813361.6604   23813368.2464
  20035766.123   -12879984.36249 -10019329.46449  20035768.9124   20035774.1914
  19568718.538   -15657509.59249 -12188413.68949  19568721.8944   19568726.6254
  21297434.234   -21887162.09049 -16807292.62649  21297436.7584   21297441.6594
  21894355.641   -20850021.54749 -16233696.18949  21894358.1914   21894363.9154
  22451101.478   -15129551.646 9 -11581297.083 9  22451104.046    22451108.757
 96  2 16 19 35 59.9970000  0  8 29  2 16 19 18 31 27 28
  21409841.513     2769294.07149   2164548.34149  21409844.5494   21409849.7624
  23438983.048   -10205223.61149  -7929781.19849  23438984.9294   23438992.7244
  23798877.095    -7796124.39449  -6057324.66849  23798880.5174   23798886.7494
  20027632.340   -12922725.50849 -10052634.24149  20027635.4464   20027640.7454
  19570713.578   -15647026.04549 -12180244.69449  19570716.5454   19570721.6964
  21286020.883   -21947142.11449 -16854030.27349  21286022.9574   21286027.8464
  21878126.019   -20935306.73449 -16300152.14849  21878129.0864   21878134.8504
  22451455.428   -15127689.842 9 -11579846.307 9  22451458.016    22451462.993
 96  2 16 19 36 29.9970000  0  8 29  2 16 19 18 31 27 28
  21421988.135     2833129.93649   2214290.54149  21421992.3474   21421997.3364
  23419102.619   -10309694.42649  -8011186.99549  23419104.8554   23419112.1954
  23784479.766    -7871785.70749  -6116281.52649  23784481.6154   23784488.2674
  20019534.119   -12965283.01149 -10085795.91549  20019536.9174   20019542.3104
  19572803.145   -15636049.03149 -12171691.18049  19572805.7014   19572810.6064
  21274705.298   -22006603.84749 -16900364.05049  21274707.4174   21274712.4964
  21861917.072   -21020484.44849 -16366524.35449  21861920.2074   21861925.9254
  22451913.659   -15125284.289 9 -11577971.821 9  22451916.007    22451920.985
 96  2 16 19 36 59.9970000  0  8 29  2 16 19 18 31 27 28
  21434193.627     2897262.39349   2264263.84849  21434196.0394   21434201.5004
  23399250.235   -10414020.70249  -8092480.16449  23399252.0904   23399259.9564
  23770168.177    -7946990.37749  -6174882.56249  23770170.7014   23770178.2364
  20011473.890   -13007639.24049 -10118800.75549  20011476.9304   20011482.1744
  19574985.829   -15624576.67949 -12162751.69149  19574988.6344   19574993.7554
  21263492.395   -22065524.48549 -16946276.19949  21263495.2314   21263500.2044
  21845729.044   -21105556.66749 -16432814.36449  21845731.7634   21845737.2124
  22452475.812   -15122326.071 9 -11575666.705 9  22452478.620    22452483.423
 96  2 16 19 37 29.9970000  0  8 29  2 16 19 18 31 27 28
  21446457.794     2961716.96349   2314488.13949  21446461.7154   21446466.5724
  23379423.450   -10518200.50549  -8173659.19449  23379426.5434   23379434.7264
  23755948.709    -8021716.66349  -6233110.83449  23755951.4874   23755957.8724
  20003452.676   -13049790.83749 -10151646.14349  20003455.4564   20003460.9864
  19577264.382   -15612604.68249 -12153422.86649  19577267.0104   19577272.0124
  21252386.869   -22123885.79449 -16991752.50549  21252389.5344   21252394.5154
  21829558.835   -21190529.99249 -16499027.31149  21829561.7044   21829567.0604
  22453144.657   -15118812.695 9 -11572928.991 9  22453147.359    22453152.086
 96  2 16 19 37 59.9970000  0  8 29  2 16 19 18 31 27 28
  21458785.213     3026496.31449   2364965.51349  21458788.4874   21458793.7514
  23359626.614   -10622240.92649  -8254729.62449  23359629.3024   23359636.0584
  23741815.589    -8095982.30849  -6290980.15749  23741818.3214   23741826.2464
  19995469.675   -13091741.95949 -10184335.31249  19995472.8074   19995477.9344
  19579633.466   -15600152.39649 -12143719.79249  19579636.6324   19579641.5704
  21241382.120   -22181711.95849 -17036811.82349  21241385.4574   21241390.4524
  21813404.608   -21275419.06849 -16565174.61249  21813407.2344   21813413.8204
  22453917.696   -15114754.358 9 -11569766.638 9  22453919.724    22453924.610
 96  2 16 19 38 29.9970000  0  8 29  2 16 19 18 31 27 28
  21471176.638     3091616.31849   2415708.32449  21471180.1754   21471185.8944
  23339857.876   -10726125.69349  -8335678.75949  23339860.6064   23339868.3524
  23727770.802    -8169790.39149  -6348492.94349  23727773.4844   23727780.8174
  19987524.544   -13133495.89349 -10216870.82949  19987527.1564   19987532.5414
  19582095.952   -15587210.21549 -12133634.98149  19582099.1514   19582104.2654
  21230480.392   -22239002.54749 -17081453.79949  21230483.4104   21230488.7094
  21797266.130   -21360229.08649 -16631260.31449  21797268.9284   21797274.4464
  22454793.891   -15110144.802 9 -11566174.771 9  22454796.716    22454801.914
 96  2 16 19 38 59.9970000  0  8 29  2 16 19 18 31 27 28
  21483628.773     3157052.62949   2466697.62449  21483632.3714   21483638.1684
  23320112.856   -10829881.16949  -8416527.14849  23320116.1044   23320124.5694
  23713808.368    -8243167.90649  -6405670.22349  23713809.9334   23713817.2204
  19979610.129   -13175085.81649 -10249278.54849  19979612.9204   19979618.2164
  19584650.956   -15573787.17149 -12123175.47149  19584653.6954   19584658.9144
  21219674.266   -22295792.19449 -17125705.43149  21219676.7484   21219682.0674
  21781133.790   -21445002.22349 -16697317.27049  21781137.2024   21781142.4424
  22455771.197   -15105012.404 9 -11562175.491 9  22455773.415    22455778.332
 96  2 16 19 39 29.9970000  0  8 29  2 16 19 18 31 27 28
  21496149.356     3222844.54449   2517964.00549  21496152.4064   21496157.7694
  23300403.752   -10933456.82349  -8497235.41349  23300406.0544   23300414.0294
  23699931.075    -8316088.70449  -6462491.61249  23699934.3984   23699940.2334
  19971734.074   -13216471.95049 -10281527.47049  19971737.3474   19971742.6154
  19587302.733   -15559851.27949 -12112316.34349  19587305.6094   19587310.5334
  21208969.116   -22352048.91449 -17169541.80149  21208971.5824   21208976.0584
  21765018.239   -21529691.75549 -16763309.08849  21765021.0694   21765026.6564
  22456854.184   -15099321.096 9 -11557740.706 9  22456856.433    22456861.201
 96  2 16 19 39 59.9970000  0  8 29  2 16 19 18 31 27 28
  21508732.468     3288969.50949   2569489.91649  21508735.8544   21508740.8314
  23280728.096   -11036855.57549  -8577805.81949  23280730.2054   23280737.7644
  23686135.052    -8388588.64149  -6518985.07149  23686137.5504   23686143.6694
  19963894.915   -13257667.29649 -10313627.72349  19963897.9954   19963903.2534
  19590050.437   -15545413.62949 -12101066.23049  19590053.0844   19590058.0764
  21198362.402   -22407788.44049 -17212975.15549  21198364.5754   21198369.4924
  21748914.178   -21614317.62949 -16829251.30149  21748917.3594   21748923.0274
  22458040.323   -15093087.856 9 -11552883.638 9  22458042.478    22458047.790
 96  2 16 19 40 29.9970000  0  8 29  2 16 19 18 31 27 28
  21521378.305     3355423.73649   2621272.38749  21521381.1324   21521386.8784
  23261086.375   -11140057.43849  -8658222.80949  23261091.5764   23261098.6294
  23672426.869    -8460630.97649  -6575121.95049  23672429.2834   23672435.8394
  19956096.318   -13298650.58649 -10345562.74049  19956099.2024   19956104.4764
  19592899.646   -15530437.24049 -12089396.32549  19592903.1774   19592907.8284
  21187856.179   -22462997.68849 -17255995.31249  21187858.7874   21187863.7314
  21732826.296   -21698866.17249 -16895133.25749  21732828.0214   21732833.8524
  22459331.852   -15086299.001 9 -11547593.623 9  22459334.636    22459339.443
 96  2 16 19 40 59.9970000  0  8 29  2 16 19 18 31 27 28
  21534083.815     3422185.74349   2673294.69149  21534086.2464   21534091.6184
  23241484.792   -11243082.65949  -8738502.13949  23241486.8364   23241493.8624
  23658799.916    -8532237.34849  -6630919.11249  23658802.2534   23658809.2904
  19948335.706   -13339433.11549 -10377341.32249  19948338.3574   19948343.7204
  19595847.764   -15514947.40849 -12077326.33049  19595850.5754   19595855.4644
  21177446.660   -22517698.97049 -17298619.65649  21177449.3914   21177454.2654
  21716749.354   -21783343.28449 -16960959.54749  21716752.9744   21716758.4984
  22460726.156   -15078976.218 9 -11541887.556 9  22460728.157    22460732.691
 96  2 16 19 41 29.9970000  0  8 29  2 16 19 18 31 27 28
  21546846.320     3489262.68149   2725562.39649  21546850.0764   21546855.1314
  23221912.555   -11345923.76149  -8818638.00749  23221917.2454   23221924.2664
  23645255.490    -8603414.09949  -6686381.51349  23645257.9984   23645263.9674
  19940613.819   -13380012.94249 -10408961.95849  19940616.3924   19940621.7364
  19598893.155   -15498946.22949 -12064857.88849  19598895.4374   19598900.3054
  21167136.788   -22571875.86649 -17340835.38349  21167139.3584   21167144.9874
  21700690.421   -21867737.63749 -17026721.35249  21700693.2444   21700698.6934
  22462220.710   -15071117.516 9 -11535763.899 9  22462223.476    22462228.430
 96  2 16 19 41 59.9970000  0  8 29  2 16 19 18 31 27 28
  21559667.325     3556626.14549   2778053.36149  21559669.4304   21559674.6714
  23202374.275   -11448606.85349  -8898650.74549  23202375.5994   23202383.9334
  23631792.314    -8674159.94149  -6741508.13649  23631796.0124   23631801.7984
  19932926.422   -13420410.98649 -10440440.94049  19932929.0354   19932934.3764
  19602030.708   -15482453.52549 -12052006.43649  19602033.7794   19602038.7074
  21156924.132   -22625542.27549 -17382653.33449  21156927.1924   21156932.3764
  21684641.621   -21952074.29949 -17092438.20549  21684644.5324   21684649.9534
  22463815.926   -15062742.091 9 -11529237.600 9  22463817.495    22463822.067
 96  2 16 19 42 29.9970000  0  8 29  2 16 19 18 31 27 28
  21572535.655     3624266.25849   2830759.89349  21572540.0804   21572546.8484
  23182865.299   -11551127.97349  -8978537.26849  23182867.3414   23182874.7484
  23618419.550    -8744440.83049  -6796272.47049  23618421.9824   23618427.4504
  19925271.802   -13460635.53849 -10471784.73949  19925274.5374   19925279.5954
  19605261.187   -15465475.94449 -12038777.16049  19605264.7964   19605269.6634
  21146809.976   -22678690.88749 -17424067.80449  21146812.9284   21146818.1504
  21668605.529   -22036342.86149 -17158101.98949  21668608.6714   21668614.5484
  22465508.431   -15053840.105 9 -11522300.987 9  22465511.451    22465516.477
 96  2 16 19 42 59.9970000  0  8 29  2 16 19 18 31 27 28
  21585464.028     3692186.70849   2883684.87949  21585466.2504   21585470.9814
  23163387.553   -11653484.14449  -9058295.24949  23163389.9014   23163396.2814
  23605130.079    -8814271.36949  -6850685.87949  23605133.2014   23605140.2394
  19917646.838   -13500704.82149 -10503007.55049  19917649.5444   19917654.9864
  19608578.032   -15448052.37349 -12025200.36249  19608580.4084   19608585.2504
  21136797.771   -22731311.76349 -17465071.05849  21136799.9524   21136805.0214
  21652582.507   -22120544.42649 -17223713.57649  21652585.4454   21652590.9214
  22467302.618   -15044414.387 9 -11514956.270 9  22467304.769    22467309.759
 96  2 16 19 43 29.9970000  0  8 29  2 16 19 18 31 27 28
  21598438.189     3760380.08349   2936822.52749  21598442.8474   21598447.4584
  23143940.235   -11755676.66849  -9137925.72049  23143942.2404   23143950.1664
  23591931.301    -8883635.90649  -6904736.15249  23591932.1614   23591939.8284
  19910051.100   -13540617.96949 -10534108.69549  19910054.1264   19910059.3614
  19611979.633   -15430176.11749 -12011270.81749  19611981.9684   19611986.8764
  21126884.821   -22783403.12749 -17505661.70149  21126887.2894   21126892.3544
  21636569.434   -22204688.34549 -17289280.24949  21636573.6024   21636579.2584
  22469196.427   -15034460.002 9 -11507199.610 9  22469199.186    22469203.925
 96  2 16 19 43 59.9970000  0  8 29  2 16 19 18 31 27 28
  21611467.515     3828840.39449   2990168.17449  21611469.7794   21611475.5294
  23124526.413   -11857696.95549  -9217421.99149  23124529.7184   23124536.4334
  23578820.751    -8952530.74349  -6958420.44649  23578823.3124   23578830.1004
  19902486.419   -13580370.41049 -10565084.61649  19902489.4854   19902494.5294
  19615467.409   -15411844.22149 -11996986.22949  19615470.4654   19615475.4384
  21117069.510   -22834982.35449 -17545853.28449  21117072.0214   21117076.7204
  21620570.792   -22288769.77149 -17354798.21849  21620573.3254   21620578.7504
  22471191.972   -15023976.774 9 -11499030.860 9  22471194.270    22471199.107
 96  2 16 19 44 29.9970000  0  8 29  2 16 19 18 31 27 28
  21624548.979     3897587.08149   3043736.97749  21624551.9684   21624557.8434
  23105150.762   -11959521.06049  -9296765.38949  23105152.5794   23105160.0804
  23565797.030    -9020963.68449  -7011744.81549  23565800.0094   23565807.6124
  19894955.503   -13619947.35149 -10595923.78449  19894958.4624   19894963.6704
  19619044.453   -15393043.09649 -11982336.01049  19619048.3384   19619053.2424
  21107351.863   -22886048.69349 -17585645.20949  21107354.2174   21107359.6564
  21604585.542   -22372767.60549 -17420251.05749  21604588.7814   21604594.7074
  22473289.423   -15012954.878 9 -11490442.368 9  22473291.621    22473296.240
 96  2 16 19 44 59.9970000  0  8 29  2 16 19 18 31 27 28
  21637689.186     3966640.41249   3097544.71849  21637692.8484   21637698.2694
  23085808.594   -12061156.53149  -9375961.79449  23085811.8614   23085819.0274
  23552859.217    -9088958.12149  -7064727.50549  23552863.4174   23552867.8414
  19887462.214   -13659323.04649 -10626606.13449  19887465.5224   19887470.7574
  19622715.580   -15373756.00349 -11967307.11149  19622718.4014   19622723.3254
  21097734.765   -22936589.76949 -17625027.83349  21097736.7354   21097741.7634
  21588620.883   -22456667.14649 -17485627.29949  21588623.7644   21588628.9124
  22475488.735   -15001396.003 9 -11481435.450 9  22475491.137    22475495.829
 96  2 16 19 45 29.9970000  0  8 29  2 16 19 18 31 27 28
  21650885.201     4035981.22549   3151576.47849  21650887.7004   21650893.6114
  23066504.108   -12162613.39449  -9455019.01049  23066505.1904   23066512.9454
  23539998.570    -9156532.74149  -7117383.05649  23540001.4624   23540010.3034
  19880008.514   -13698496.47449 -10657130.87349  19880010.9394   19880016.0884
  19626481.871   -15353966.56849 -11951886.78249  19626484.0874   19626488.9474
  21088213.675   -22986618.25349 -17664011.03649  21088216.5214   21088221.6664
  21572671.063   -22540482.20749 -17550937.72249  21572674.1904   21572679.6404
  22477787.105   -14989317.301 9 -11472023.470 9  22477789.461    22477794.482
 96  2 16 19 45 59.9970000  0  8 29  2 16 19 18 31 27 28
  21664139.889     4105637.75549   3205854.23749  21664143.1004   21664148.3504
  23047234.441   -12263860.00149  -9533912.38349  23047238.0064   23047245.9444
  23527225.106    -9223666.72549  -7169695.24849  23527226.5364   23527234.4924
  19872596.122   -13737445.34649 -10687480.63649  19872599.3604   19872604.3814
  19630346.374   -15333657.19149 -11936061.30049  19630349.1104   19630354.0564
  21078797.042   -23036100.90949 -17702568.92049  21078800.2494   21078805.1524
  21556742.157   -22624190.06549 -17616164.59849  21556745.1124   21556750.2534
  22480187.345   -14976699.047 9 -11462191.061 9  22480190.710    22480195.589
 96  2 16 19 46 29.9970000  0  8 29  2 16 19 18 31 27 28
  21677454.866     4175608.68649   3260376.99049  21677458.0194   21677463.7574
  23028007.725   -12364903.92049  -9612647.82349  23028010.9374   23028018.1524
  23514535.490    -9290351.67849  -7221657.56449  23514538.3834   23514543.6114
  19865226.961   -13776172.75949 -10717657.83349  19865229.7624   19865234.8854
  19634309.763   -15312825.54449 -11919828.85549  19634313.1474   19634318.1424
  21069490.704   -23085008.07949 -17740678.36949  21069493.7774   21069498.8754
  21540830.909   -22707797.94649 -17681313.57349  21540834.8654   21540840.7624
  22482693.099   -14963538.505 9 -11451936.088 9  22482695.232    22482699.899
 96  2 16 19 46 59.9970000  0  8 29  2 16 19 18 31 27 28
  21690827.749     4245886.06949   3315138.54449  21690831.5834   21690836.9044
  23008813.096   -12465764.25249  -9691240.22149  23008817.4104   23008824.6924
  23501932.168    -9356578.95749  -7273263.22649  23501935.0764   23501941.3154
  19857896.179   -13814694.16449 -10747674.50349  19857899.4624   19857904.5634
  19638372.472   -15291478.07149 -11903194.46249  19638375.5874   19638380.4744
  21060295.679   -23133329.20149 -17778331.16449  21060298.3624   21060303.2144
  21524935.879   -22791333.92349 -17746406.51249  21524938.4214   21524944.1054
  22485297.960   -14949843.798 9 -11441264.877 9  22485301.298    22485305.754
 96  2 16 19 47 29.9970000  0  8 29  2 16 19 18 31 27 28
  21704255.794     4316448.33349   3370122.08449  21704258.9614   21704264.9164
  22989657.593   -12566440.24049  -9769688.96849  22989659.3704   22989666.2064
  23489418.568    -9422336.58449  -7324502.95249  23489422.2254   23489428.3914
  19850600.607   -13853033.86649 -10777549.58249  19850603.3554   19850608.8694
  19642529.518   -15269634.22949 -11886173.29249  19642532.2314   19642537.2694
  21051207.884   -23181086.26049 -17815544.41549  21051210.7084   21051215.4044
  21509046.500   -22874830.39549 -17811468.67249  21509049.6174   21509055.4594
  22488004.477   -14935625.651 9 -11430185.799 9  22488006.648    22488011.268
 96  2 16 19 47 59.9970000  0  8 29  2 16 19 18 31 27 28
  21717742.905     4387328.08849   3425353.00849  21717747.1974   21717752.3194
  22970537.249   -12666913.01349  -9847979.36949  22970539.8334   22970547.2634
  23477005.029    -9487577.28849  -7375339.85849  23477007.1054   23477013.1434
  19843342.566   -13891175.54749 -10807270.36849  19843345.5424   19843350.5704
  19646783.587   -15247274.61749 -11868750.22849  19646786.7844   19646791.9364
  21042233.313   -23228246.46149 -17852292.58449  21042236.1654   21042241.2204
  21493170.842   -22958260.91049 -17876479.44049  21493173.4664   21493178.8054
  22490816.174   -14920850.385 9 -11418672.600 9  22490818.438    22490822.897
 96  2 16 19 48 29.9970000  0  8 29  2 16 19 18 31 27 28
  21731284.307     4458488.84249   3480802.89349  21731288.5724   21731293.9154
  22951448.798   -12767225.30949  -9926144.73349  22951451.2354   22951458.6344
  23464682.731    -9552329.85249  -7425796.40749  23464685.4874   23464691.8434
  19836116.671   -13929148.31749 -10836859.52949  19836119.5674   19836124.4384
  19651132.970   -15224421.42649 -11850942.54949  19651135.8924   19651140.8184
  21033367.511   -23274835.36949 -17888595.59149  21033370.8044   21033375.3864
  21477303.341   -23041645.64349 -17941454.52549  21477305.9844   21477311.1294
  22493728.045   -14905546.870 9 -11406747.773 9  22493730.571    22493735.172
 96  2 16 19 48 59.9970000  0  8 29  2 16 19 18 31 27 28
  21744883.916     4529948.90349   3536486.01549  21744886.7914   21744892.4814
  22932394.088   -12867354.47449 -10004167.40949  22932397.3264   22932404.2834
  23452458.171    -9616575.03249  -7475857.59149  23452459.8864   23452466.0074
  19828928.623   -13966923.70249 -10866294.88049  19828931.0744   19828936.1244
  19655577.328   -15201068.62549 -11832745.56649  19655579.7364   19655584.7534
  21024611.639   -23320853.82549 -17924454.08749  21024613.7634   21024618.6564
  21461450.121   -23124949.54649 -18006366.63049  21461453.0324   21461458.8894
  22496743.816   -14889697.648 9 -11394397.723 9  22496746.692    22496751.197
 96  2 16 19 49 29.9970000  0  8 29  2 16 19 18 31 27 28
  21758535.016     4601684.33949   3592383.69949  21758537.3134   21758543.0354
  22913375.045   -12967309.28549 -10082054.21649  22913376.3654   22913383.6924
  23440322.114    -9680339.03749  -7525543.81549  23440325.5444   23440332.5744
  19821775.719   -14004506.93049 -10895580.50549  19821778.9684   19821784.0324
  19660114.462   -15177224.38049 -11814165.64049  19660117.0304   19660122.0294
  21015957.330   -23366326.29349 -17959887.14149  21015960.0574   21015965.3084
  21445615.286   -23208163.71849 -18071208.81049  21445618.3714   21445623.8754
  22499861.858   -14873316.450 9 -11381633.143 9  22499864.081    22499868.635
 96  2 16 19 49 59.9970000  0  8 29  2 16 19 18 31 27 28
  21772237.948     4673698.66449   3648498.70849  21772241.9584   21772247.6684
  22894384.219   -13067091.85349 -10159806.80349  22894388.5164   22894394.8984
  23428280.696    -9743624.55049  -7574857.20249  23428282.6184   23428289.7284
  19814662.752   -14041891.03049 -10924710.95749  19814665.2404   19814670.4694
  19664746.781   -15152878.71949 -11795194.99749  19664750.0594   19664754.8664
  21007408.179   -23411251.62849 -17994893.86149  21007411.1484   21007416.2044
  21429801.054   -23291268.17949 -18135965.50249  21429804.0184   21429809.3444
  22503079.870   -14856402.144 9 -11368453.153 9  22503082.632    22503087.211
 96  2 16 19 50 29.9970000  0  8 29  2 16 19 18 31 27 28
  21785996.124     4745993.78949   3704832.53049  21785999.1284   21786004.2304
  22875433.676   -13166693.44249 -10237418.39149  22875434.9404   22875442.7414
  23416327.971    -9806438.98749  -7623803.51049  23416329.5374   23416335.5114
  19807590.126   -14079056.48749 -10953671.04349  19807592.8124   19807598.0304
  19669474.911   -15128031.05949 -11775833.18949  19669478.6484   19669483.2434
  20998962.451   -23455634.63349 -18029477.98949  20998965.3964   20998970.7244
  21414010.725   -23374246.83449 -18200624.16049  21414013.6344   21414019.5004
  22506399.939   -14838956.009 9 -11354858.759 9  22506402.341    22506406.731
 96  2 16 19 50 59.9970000  0  8 29  2 16 19 18 31 27 28
  21799808.757     4818580.89549   3761393.85149  21799812.1794   21799817.7014
  22856516.094   -13266088.60449 -10314869.11749  22856519.8034   22856527.0104
  23404465.687    -9868772.74849  -7672375.27749  23404468.1484   23404473.9004
  19800561.490   -14115991.16549 -10982451.30349  19800564.2864   19800569.5864
  19674301.307   -15102672.36549 -11756073.17749  19674303.7734   19674308.7664
  20990620.704   -23499473.82949 -18063638.37049  20990623.2924   20990627.9764
  21398243.851   -23457102.36049 -18265186.87549  21398246.6984   21398252.0964
  22509821.813   -14820972.563 9 -11340845.684 9  22509824.509    22509829.291
 96  2 16 19 51 29.9970000  0  8 29  2 16 19 18 31 27 28
  21813677.914     4891469.99549   3818190.52149  21813682.1474   21813687.4644
  22837645.009   -13365271.10549 -10392154.12949  22837646.2314   22837653.8554
  23392696.314    -9930616.10949  -7720564.90849  23392700.4774   23392705.3454
  19793575.333   -14152703.84349 -11011058.57149  19793577.9664   19793583.4074
  19679225.774   -15076790.80549 -11735905.72549  19679228.9914   19679233.9744
  20982385.705   -23542749.82349 -18097359.89449  20982388.4444   20982392.7774
  21382499.992   -23539841.57849 -18329658.96249  21382501.9564   21382507.1084
  22513346.787   -14802450.356 9 -11326412.784 9  22513349.106    22513353.788
 96  2 16 19 51 59.9970000  0  8 29  2 16 19 18 31 27 28
  21827610.076     4964677.24749   3875235.06749  21827612.5334   21827618.7864
  22818811.604   -13464227.19849 -10469262.73149  22818816.2874   22818822.7784
  23381028.251    -9991939.14449  -7768349.08349  23381030.1924   23381036.5214
  19786632.257   -14189188.19049 -11039487.91949  19786635.5294   19786640.4204
  19684250.881   -15050386.32049 -11715330.80449  19684253.8164   19684258.6144
  20974263.344   -23585429.78349 -18130616.97549  20974265.6854   20974270.8504
  21366776.354   -23622464.18049 -18394040.17749  21366779.4594   21366784.9864
  22516975.590   -14783383.166 9 -11311555.233 9  22516977.345    22516982.142
 96  2 16 19 52 29.9970000  0  8 29  2 16 19 18 31 27 28
  21841598.922     5038194.00649   3932520.79249  21841603.1514   21841608.1454
  22800025.546   -13562961.69049 -10546198.64549  22800027.2954   22800034.4004
  23369456.999   -10052745.49549  -7815730.63949  23369459.6324   23369465.7634
  19779731.132   -14225452.61649 -11067745.90349  19779734.4744   19779739.8294
  19689370.115   -15023483.09349 -11694367.25749  19689373.0724   19689378.1374
  20966257.571   -23627498.58749 -18163397.83449  20966260.7344   20966265.5664
  21351074.602   -23704981.36449 -18458339.24549  21351076.8564   21351082.1374
  22520705.382   -14763781.104 9 -11296280.896 9  22520707.635    22520712.598
 96  2 16 19 52 59.9970000  0  8 29  2 16 19 18 31 27 28
  21855645.345     5112007.76849   3990037.96449  21855649.2754   21855654.6844
  22781277.391   -13661477.70249 -10622964.31749  22781280.2074   22781287.8644
  23357983.601   -10113038.36849  -7862712.10149  23357985.6494   23357991.2474
  19772866.819   -14261526.61249 -11095855.49749  19772869.7384   19772874.9884
  19694582.231   -14996095.32849 -11673026.14349  19694584.6804   19694589.7064
  20958368.534   -23668957.95149 -18195703.80449  20958371.0494   20958375.8304
  21335388.481   -23787411.00849 -18522570.10849  21335390.9654   21335396.4064
  22524534.680   -14743653.805 9 -11280597.285 9  22524537.566    22524542.493
 96  2 16 19 53 29.9970000  0  8 29  2 16 19 18 31 27 28
  21869750.472     5186116.04649   4047784.61549  21869751.5044   21869757.2694
  22762568.857   -13759790.94949 -10699571.99449  22762572.0064   22762578.8764
  23346607.728   -10172818.80249  -7909294.25749  23346610.5934   23346617.2234
  19766037.085   -14297417.74049 -11123822.60249  19766039.7784   19766045.0154
  19699882.549   -14968240.24949 -11651320.89649  19699885.5684   19699890.5754
  20950593.762   -23709811.65949 -18227537.82749  20950596.8634   20950601.7174
  21319720.551   -23869742.63549 -18586724.59149  21319723.8084   21319729.3144
  22528465.145   -14723001.852 9 -11264504.853 9  22528467.440    22528472.397
 96  2 16 19 53 59.9970000  0  8 29  2 16 19 18 31 27 28
  21883906.688     5260523.41349   4105764.33649  21883911.0574   21883916.9444
  22743903.883   -13857879.46849 -10776004.56049  22743906.7924   22743913.1884
  23335330.325   -10232077.43849  -7955469.80649  23335333.6924   23335340.0854
  19759248.782   -14333089.02349 -11151618.39549  19759252.0334   19759257.0964
  19705275.884   -14939900.50949 -11629237.98549  19705278.3694   19705283.5434
  20942937.968   -23750050.86749 -18258893.02449  20942940.1644   20942944.6104
  21304077.465   -23951949.31249 -18650781.70649  21304080.1964   21304085.8334
  22532499.570   -14701800.584 9 -11247984.390 9  22532501.998    22532506.988
 96  2 16 19 54 29.9970000  0  8 29  2 16 19 18 31 27 28
  21898117.002     5335193.93549   4163949.10749  21898120.5394   21898125.7624
  22725276.303   -13955765.29549 -10852279.19149  22725279.5054   22725286.1404
  23324145.594   -10290855.24449  -8001270.68949  23324148.4314   23324154.2054
  19752499.441   -14368559.62149 -11179257.81649  19752502.2504   19752507.4284
  19710754.977   -14911103.74149 -11606798.95049  19710758.1974   19710763.3574
  20935389.225   -23789716.81749 -18289801.53049  20935391.4324   20935396.5224
  21288453.342   -24034054.25549 -18714759.55549  21288456.4574   21288461.6354
  22536635.300   -14680070.755 9 -11231052.060 9  22536637.421    22536641.866
 96  2 16 19 54 59.9970000  0  8 29  2 16 19 18 31 27 28
  21912377.652     5410124.38849   4222336.42549  21912379.0294   21912384.6324
  22706688.557   -14053447.74949 -10928395.34049  22706690.6704   22706698.1394
  23313051.839   -10349155.76049  -8046699.65049  23313053.8114   23313059.7864
  19745787.081   -14403828.90349 -11206740.36449  19745790.3894   19745795.5754
  19716324.756   -14881836.73849 -11583993.49649  19716327.5664   19716332.5164
  20927948.084   -23828819.95549 -18320271.47349  20927950.2884   20927955.4494
  21272847.614   -24116058.90049 -18778659.25349  21272851.0984   21272856.4554
  22540871.236   -14657807.705 9 -11213704.225 9  22540873.943    22540878.348
 96  2 16 19 55 29.9970000  0  8 29  2 16 19 18 31 27 28
  21926685.637     5485326.29649   4280935.26449  21926690.4254   21926695.1234
  22688141.593   -14150914.80549 -11004343.64849  22688144.0094   22688150.7574
  23302050.903   -10406965.51549  -8091746.21149  23302053.2784   23302059.9904
  19739121.771   -14438858.14649 -11234035.87249  19739124.7974   19739129.8094
  19721987.784   -14852076.80749 -11560803.94449  19721990.6564   19721995.7504
  20920616.930   -23867343.24749 -18350289.59349  20920619.6904   20920624.5354
  21257266.157   -24197944.72049 -18842466.36049  21257268.9504   21257274.0974
  22545212.183   -14634993.811 9 -11195927.168 9  22545215.040    22545219.746
 96  2 16 19 55 59.9970000  0  8 29  2 16 19 18 31 27 28
  21941044.600     5560775.53049   4339726.82849  21941048.2964   21941053.0514
  22669633.859   -14248167.68249 -11080125.07049  22669636.7754   22669644.0424
  23291141.140   -10464299.06749  -8136421.69649  23291143.4854   23291149.8554
  19732498.980   -14473660.91749 -11261154.90849  19732502.0324   19732506.7904
  19727744.881   -14821822.13749 -11537228.88449  19727747.9534   19727753.0644
  20913394.061   -23905295.54949 -18379862.79349  20913397.8384   20913402.1584
  21241699.678   -24279747.92449 -18906209.09149  21241702.1024   21241707.9034
  22549654.096   -14611652.878 9 -11177739.432 9  22549656.734    22549661.658
 96  2 16 19 56 29.9970000  0  8 29  2 16 19 18 31 27 28
  21955454.471     5636504.93649   4398736.70949  21955458.7214   21955464.2384
  22651172.134   -14345184.06949 -11155722.21449  22651175.2504   22651182.3274
  23280328.265   -10521115.54849  -8180694.27749  23280330.4174   23280337.9364
  19725921.327   -14508226.47049 -11288089.09649  19725924.1184   19725929.5504
  19733601.077   -14791047.90649 -11513248.96849  19733604.1964   19733609.2664
  20906284.808   -23942658.84049 -18408977.01249  20906287.4114   20906292.2614
  21226151.191   -24361453.97949 -18969876.11749  21226153.9434   21226159.4634
  22554199.163   -14587769.951 9 -11159129.364 9  22554201.479    22554206.575
 96  2 16 19 56 59.9970000  0  8 29  2 16 19 18 31 27 28
  21969916.573     5712503.65449   4457956.42949  21969919.9474   21969925.9414
  22632751.874   -14441987.54549 -11231153.44649  22632754.2094   22632761.2484
  23269614.501   -10577418.96149  -8224567.07549  23269617.4374   23269623.9594
  19719384.754   -14542579.79649 -11314857.91749  19719387.2314   19719392.2064
  19739554.832   -14759763.95049 -11488871.86749  19739557.4424   19739562.4894
  20899280.908   -23979460.12449 -18437653.31349  20899284.5694   20899289.4364
  21210617.718   -24443082.65949 -19033482.86349  21210620.8414   21210625.9294
  22558842.538   -14563369.202 9 -11140115.807 9  22558844.769    22558849.342
 96  2 16 19 57 29.9970000  0  8 29  2 16 19 18 31 27 28
  21984433.594     5788790.43649   4517400.63849  21984437.0704   21984442.5804
  22614374.980   -14538557.60649 -11306402.80449  22614377.2964   22614384.2564
  23259003.697   -10633188.91049  -8268024.16849  23259003.9074   23259011.8034
  19712889.485   -14576708.44249 -11341451.65849  19712892.7244   19712897.8924
  19745608.832   -14727951.88949 -11464083.25449  19745610.9474   19745616.0314
  20892389.595   -24015680.79349 -18465877.17649  20892391.5824   20892396.7224
  21195102.138   -24524614.28649 -19097013.97349  21195105.6594   21195110.8234
  22563586.213   -14538441.693 9 -11120691.776 9  22563588.170    22563593.363
 96  2 16 19 57 59.9970000  0  8 29  2 16 19 18 31 27 28
  21999007.910     5865370.91549   4577073.67949  21999010.4074   21999015.4714
  22596044.960   -14634882.62349 -11381461.20549  22596047.3134   22596054.2984
  23248494.046   -10688410.52149  -8311054.00849  23248496.4984   23248502.2694
  19706437.057   -14610616.58049 -11367873.57749  19706439.9614   19706445.2774
  19751762.811   -14695609.97749 -11438881.76849  19751765.2614   19751770.3734
  20885608.041   -24051314.53649 -18493643.69949  20885611.2824   20885615.8324
  21179606.447   -24606044.32949 -19160465.93049  21179610.3124   21179615.4594
  22568430.184   -14512983.439 9 -11100854.177 9  22568432.957    22568437.373
 96  2 16 19 58 29.9970000  0  8 29  2 16 19 18 31 27 28
  22013629.089     5942213.56649   4636951.03749  22013633.6484   22013637.8504
  22577750.663   -14731015.56949 -11456369.94149  22577754.0934   22577760.7174
  23238081.285   -10743123.28149  -8353687.32249  23238084.5214   23238092.4184
  19700018.317   -14644347.37749 -11394157.30949  19700021.4084   19700026.5654
  19758005.766   -14662799.73149 -11413315.34949  19758009.0374   19758014.2094
  20878933.861   -24086389.71349 -18520974.98049  20878936.5244   20878941.2964
  21164128.469   -24687385.84849 -19223848.90249  21164131.3424   21164136.5544
  22573369.846   -14487024.635 9 -11080626.531 9  22573372.429    22573377.266
 96  2 16 19 58 59.9970000  0  8 29  2 16 19 18 31 27 28
  22028298.487     6019307.78849   4697024.40949  22028303.2674   22028309.8364
  22559494.285   -14826955.62549 -11531128.36649  22559496.9144   22559503.6084
  23227762.095   -10797351.24649  -8395942.87449  23227764.9554   23227771.1614
  19693633.761   -14677898.27549 -11420300.85649  19693636.8164   19693642.0404
  19764338.525   -14629521.79749 -11387384.49849  19764341.6784   19764346.6994
  20872370.387   -24120879.94449 -18547850.45349  20872373.3924   20872378.1894
  21148669.019   -24768623.86949 -19287151.22949  21148672.2934   21148677.4814
  22578406.272   -14460562.221 9 -11060006.473 9  22578408.310    22578412.979
 96  2 16 19 59 29.9970000  0  8 29  2 16 19 18 31 27 28
  22043021.043     6096659.54249   4757298.44549  22043022.9084   22043029.0044
  22541276.212   -14922688.74249 -11605725.53049  22541278.9494   22541287.0034
  23217535.399   -10851096.89449  -8437822.60049  23217538.9834   23217544.2014
  19687287.147   -14711251.06649 -11446290.04249  19687289.9554   19687294.9074
  19770759.262   -14595781.78549 -11361093.58749  19770761.9614   19770767.1384
  20865923.986   -24154755.36949 -18574246.86149  20865926.6704   20865931.5024
  21133232.807   -24849744.95249 -19350362.43149  21133235.4204   21133240.6334
  22583539.370   -14433587.619 9 -11038987.294 9  22583541.195    22583545.959
 96  2 16 19 59 59.9970000  0  8 29  2 16 19 18 31 27 28
  22057788.252     6174261.07549   4817767.12749  22057790.1054   22057796.0974
  22523098.148   -15018221.17949 -11680166.32149  22523100.1004   22523106.8424
  23207400.154   -10904363.59449  -8479329.12949  23207401.0144   23207409.1374
  19680977.953   -14744405.33349 -11472124.52449  19680980.9854   19680986.3264
  19777263.683   -14561602.03649 -11334460.02149  19777266.3644   19777271.3714
  20859595.114   -24188018.82649 -18600166.40749  20859597.2184   20859601.6404
  21117816.636   -24930755.94349 -19413487.84649  21117819.3464   21117824.5714
  22588769.329   -14406104.687 9 -11017572.024 9  22588771.243    22588776.060
 96  2 16 20  0 29.9970000  0  8 29  2 16 19 18 31 27 28
  22072603.911     6252125.87749   4878440.94749  22072607.5644   22072613.5524
  22504959.104   -15113541.13749 -11754441.56749  22504961.3434   22504967.7654
  23197354.651   -10957151.51349  -8520462.55349  23197356.2444   23197363.2364
  19674708.448   -14777352.15549 -11497797.36549  19674711.5924   19674716.5204
  19783852.792   -14526972.20949 -11307475.74849  19783856.2184   19783861.2144
  20853385.191   -24220647.25149 -18625591.12849  20853388.2004   20853392.5794
  21102425.166   -25011636.00449 -19476511.24049  21102428.4344   21102433.9204
  22594096.818   -14378103.895 9 -10995753.227 9  22594099.517    22594104.029
 96  2 16 20  0 59.9970000  0  8 29  2 16 19 18 31 27 28
  22087468.668     6330246.92449   4939314.43949  22087472.6554   22087479.4224
  22486861.876   -15208634.78349 -11828540.46349  22486865.7024   22486872.0924
  23187399.889   -11009454.86949  -8561218.41049  23187403.3004   23187410.5294
  19668480.866   -14810080.32649 -11523299.83049  19668483.4794   19668488.4874
  19790530.742   -14491878.21949 -11280129.79349  19790534.3114   19790539.3114
  20847294.689   -24252653.39149 -18650530.94849  20847297.1874   20847302.1674
  21087055.912   -25092399.72549 -19539443.98649  21087059.6334   21087064.7244
  22599521.802   -14349595.742 9 -10973539.091 9  22599524.400    22599529.180
 96  2 16 20  1 29.9970000  0  8 29  2 16 19 18 31 27 28
  22102385.978     6408625.29149   5000388.43549  22102387.8984   22102393.8514
  22468809.817   -15303502.39949 -11902463.23549  22468812.9724   22468819.1494
  23177544.711   -11061250.55449  -8601578.68149  23177546.6374   23177553.0104
  19662295.339   -14842586.94149 -11548629.64849  19662297.8734   19662302.8504
  19797296.381   -14456324.63649 -11252425.70549  19797299.9144   19797305.0054
  20841320.150   -24284052.84349 -18674998.02749  20841322.0984   20841327.0214
  21071706.757   -25173062.03049 -19602297.69849  21071709.4954   21071715.3704
  22605042.737   -14320583.552 9 -10950932.204 9  22605045.258    22605049.895
 96  2 16 20  1 59.9970000  0  8 29  2 16 19 18 31 27 28
  22117345.313     6487245.71549   5061651.03849  22117348.5014   22117354.7804
  22450800.370   -15398148.60449 -11976213.47349  22450802.7124   22450808.9934
  23167784.900   -11112527.43149  -8641534.68149  23167789.2924   23167795.9494
  19656148.376   -14874884.85049 -11573796.84649  19656151.7954   19656156.5044
  19804154.035   -14420288.93949 -11224345.95049  19804157.3604   19804162.3624
  20835457.203   -24314857.28649 -18699001.46549  20835460.3744   20835465.1584
  21056376.357   -25253624.59549 -19665073.70149  21056379.7194   21056384.5334
  22610659.489   -14291068.240 9 -10927933.269 9  22610661.774    22610666.435
 96  2 16 20  2 29.9970000  0  8 29  2 16 19 18 31 27 28
  22132347.793     6566093.11649   5123090.49549  22132352.5004   22132359.3434
  22432827.493   -15492591.20649 -12049805.05949  22432830.3984   22432836.9834
  23158128.359   -11163294.26849  -8681093.23949  23158129.0714   23158134.9944
  19650041.992   -14906976.51349 -11598803.33049  19650044.6914   19650050.0134
  19811107.270   -14383751.62249 -11195875.32049  19811110.2904   19811115.2424
  20829707.914   -24345075.64949 -18722548.22049  20829710.3854   20829714.9474
  21041064.815   -25334088.06749 -19727772.48149  21041067.8944   21041073.0464
  22616369.816   -14261058.541 9 -10904549.114 9  22616372.535    22616377.322
 96  2 16 20  2 59.9970000  0  8 29  2 16 19 18 31 27 28
  22147398.072     6645159.28749   5184700.46149  22147399.5334   22147405.5764
  22414892.361   -15586842.46849 -12123247.53549  22414894.4434   22414902.0364
  23148567.773   -11213534.87049  -8720241.75249  23148567.7294   23148574.5044
  19643976.935   -14938847.62449 -11623637.95549  19643979.7364   19643985.0244
  19818157.034   -14346702.50749 -11167005.88449  19818160.1064   19818165.1804
  20824064.842   -24374729.19049 -18745654.85249  20824066.9724   20824071.7304
  21025769.705   -25414464.67749 -19790403.58049  21025772.3204   21025777.9644
  22622174.261   -14230556.054 9 -10880780.955 9  22622177.216    22622181.570
 96  2 16 20  3 29.9970000  0  8 29  2 16 19 18 31 27 28
  22162484.374     6724438.90049   5246476.73849  22162485.4054   22162491.1874
  22396991.684   -15680911.98149 -12196548.37649  22396993.9534   22397001.2664
  23139104.536   -11263251.23049  -8758981.75549  23139107.3074   23139114.6154
  19637951.787   -14970509.75949 -11648309.74149  19637954.6764   19637959.9114
  19825303.343   -14309144.46249 -11137739.88249  19825307.4204   19825312.7074
  20818529.796   -24403814.29049 -18768318.53649  20818532.1814   20818536.9374
  21010492.298   -25494748.35549 -19852962.26449  21010495.2864   21010500.2994
  22628071.652   -14199562.936 9 -10856630.491 9  22628074.900    22628079.706
 96  2 16 20  3 59.9970000  0  8 29  2 16 19 18 31 27 28
  22177610.044     6803929.89049   5308417.70849  22177611.3284   22177618.0484
  22379124.586   -15774802.17549 -12269709.50249  22379127.4044   22379134.1024
  23129740.157   -11312456.44749  -8797323.46449  23129743.9194   23129750.7374
  19631966.372   -15001965.10749 -11672820.39549  19631968.9094   19631973.8914
  19832547.359   -14271084.80149 -11108083.00949  19832549.8974   19832555.1784
  20813104.118   -24432326.83049 -18790536.07549  20813106.7094   20813111.1974
  20995232.365   -25574938.58649 -19915448.13749  20995235.5904   20995240.6164
  22634063.460   -14168083.508 9 -10832101.082 9  22634065.230    22634069.713
 96  2 16 20  4 29.9970000  0  8 29  2 16 19 18 31 27 28
  22192778.377     6883643.16649   5370531.90449  22192780.8894   22192786.9324
  22361292.762   -15868508.73549 -12342727.54149  22361295.3394   22361302.5434
  23120476.850   -11361145.52249  -8835262.99349  23120479.0974   23120484.6714
  19626023.051   -15033198.26349 -11697157.91349  19626025.6044   19626030.7574
  19839880.548   -14232543.79549 -11078051.06549  19839883.8714   19839888.9754
  20807787.226   -24460269.33249 -18812309.42749  20807789.3184   20807793.8824
  20979989.166   -25655041.51949 -19977865.98449  20979992.0664   20979997.5734
  22640145.497   -14136117.733 9 -10807192.711 9  22640147.866    22640152.926
 96  2 16 20  4 59.9970000  0  8 29  2 16 19 18 31 27 28
  22207989.809     6963580.93449   5432821.02849  22207992.8354   22207998.9884
  22343500.960   -15962008.11749 -12415584.13849  22343503.0314   22343509.8414
  23111309.068   -11409317.52249  -8872799.61649  23111313.6884   23111318.4984
  19620119.176   -15064219.99549 -11721330.68349  19620122.1194   19620127.2724
  19847300.700   -14193555.25349 -11047670.39349  19847303.0894   19847308.3584
  20802577.534   -24487641.92749 -18833638.70349  20802580.4634   20802585.0244
  20964761.300   -25735065.94449 -20040222.65549  20964764.2174   20964769.4214
  22646320.133   -14103668.063 9 -10781907.285 9  22646322.893    22646327.554
 96  2 16 20  5 29.9970000  0  8 29  2 16 19 18 31 27 28
  22223245.165     7043750.25949   5495290.58149  22223249.3044   22223254.8904
  22325751.603   -16055277.47349 -12488261.49249  22325754.4004   22325761.2534
  23102240.301   -11456978.46549  -8909937.99749  23102242.0194   23102249.3194
  19614255.614   -15095033.26249 -11745341.01549  19614258.7764   19614263.9654
  19854802.781   -14154126.75249 -11016946.89649  19854805.8884   19854811.5424
  20797482.848   -24514419.21549 -18854504.10349  20797485.0934   20797489.8534
  20949550.409   -25814997.87549 -20102507.25949  20949553.6014   20949558.9274
  22652588.577   -14070725.047 9 -10756237.423 9  22652591.999    22652596.610
 96  2 16 20  5 59.9970000  0  8 29  2 16 19 18 31 27 28
  22238538.264     7124110.54149   5557908.93749  22238541.2014   22238546.9504
  22308040.029   -16148353.99849 -12560788.59649  22308041.7664   22308049.6444
  23093255.028   -11504184.06549  -8946721.58449  23093259.3594   23093265.7634
  19608425.139   -15125673.07349 -11769216.18949  19608428.1014   19608433.1504
  19862379.540   -14114312.03649 -10985922.45049  19862382.7854   19862388.3724
  20792490.517   -24540650.25249 -18874943.85849  20792492.9814   20792497.7264
  20934349.774   -25894882.53149 -20164755.02449  20934351.8974   20934357.3104
  22658944.193   -14037331.158 9 -10730216.234 9  22658946.908    22658951.378
 96  2 16 20  6 29.9970000  0  8 29  2 16 19 18 31 27 28
  22253858.790     7204615.65449   5620640.14349  22253860.6034   22253866.0404
  22290356.298   -16241281.68349 -12633199.71949  22290358.5164   22290365.7084
  23084353.370   -11550980.60349  -8983186.40749  23084354.4394   23084361.1494
  19602618.078   -15156191.94649 -11792997.12749  19602620.5624   19602625.8104
  19870020.197   -14074161.39149 -10954636.24149  19870023.4284   19870028.5624
  20787593.637   -24566386.08149 -18894997.74249  20787595.7684   20787600.3654
  20919149.789   -25974755.21649 -20226993.46649  20919153.0844   20919158.0644
  22665375.442   -14003537.341 9 -10703883.419 9  22665377.605    22665381.880
 96  2 16 20  6 59.9970000  0  8 29  2 16 19 18 31 27 28
  22269230.914     7285404.45249   5683592.40149  22269233.3374   22269240.2054
  22272727.535   -16333920.63049 -12705385.84849  22272730.4054   22272736.8444
  23075546.903   -11597246.64049  -9019237.86049  23075549.8074   23075557.4834
  19596858.273   -15186458.42149 -11816581.38549  19596861.0564   19596866.1104
  19877752.977   -14033525.87849 -10922972.21949  19877755.6414   19877760.8054
  20782821.098   -24591467.50649 -18914541.69049  20782823.0314   20782827.3704
  20903982.139   -26054459.95149 -20289101.03449  20903985.2384   20903990.5914
  22671908.124   -13969205.554 9 -10677131.398 9  22671910.523    22671915.262
 96  2 16 20  7 29.9970000  0  8 29  2 16 19 18 31 27 28
  22284647.719     7366420.22849   5746721.53949  22284650.4314   22284656.3964
  22255138.441   -16426350.53549 -12777409.07849  22255141.2704   22255148.0824
  23066829.566   -11643051.68549  -9054930.09549  23066833.9614   23066839.9374
  19591135.772   -15216530.91649 -11840014.49049  19591138.4224   19591143.2524
  19885568.943   -13992452.12749 -10890966.70749  19885571.9714   19885577.3224
  20778160.427   -24615954.31149 -18933622.30449  20778163.4354   20778168.1294
  20888835.711   -26134057.27549 -20351124.90149  20888838.5924   20888843.9064
  22678531.384   -13934402.999 9 -10650012.536 9  22678533.186    22678537.620
 96  2 16 20  7 59.9970000  0  8 29  2 16 19 18 31 27 28
  22300110.134     7447678.05349   5810039.28249  22300113.9244   22300119.5124
  22237592.552   -16518560.96249 -12849261.29049  22237593.7844   22237600.7244
  23058210.108   -11688360.94349  -9090236.00849  23058211.5204   23058218.5034
  19585451.314   -15246402.84049 -11863291.30049  19585454.0144   19585459.0614
  19893473.753   -13950913.21749 -10858598.73549  19893476.6904   19893481.5834
  20773616.555   -24639831.68049 -18952228.02749  20773619.4544   20773624.1664
  20873711.419   -26213535.36549 -20413055.85349  20873714.5344   20873719.3754
  22685245.750   -13899116.913 9 -10622516.903 9  22685247.802    22685252.995
 96  2 16 20  8 29.9970000  0  8 29  2 16 19 18 31 27 28
  22315621.951     7529194.49949   5873558.57049  22315626.5684   22315632.7094
  22220089.318   -16610531.84049 -12920926.84549  22220092.9004   22220099.3294
  23049689.199   -11733137.21349  -9125126.59049  23049692.3954   23049697.6034
  19579810.588   -15276046.44249 -11886390.20549  19579813.2064   19579818.1334
  19901473.859   -13908871.90449 -10825839.28149  19901476.8334   19901481.7774
  20769195.898   -24663063.30449 -18970330.57649  20769198.6954   20769203.4954
  20858613.325   -26292874.24249 -20474878.33249  20858616.6784   20858621.8374
  22692056.914   -13863325.772 9 -10594627.731 9  22692058.998    22692063.239
 96  2 16 20  8 59.9970000  0  8 29  2 16 19 18 31 27 28
  22331180.147     7610956.59649   5937269.23949  22331183.5814   22331191.5024
  22202631.709   -16702279.19249 -12992418.21649  22202633.9184   22202640.7054
  23041268.086   -11777385.36949  -9159605.66749  23041271.1364   23041277.3844
  19574213.244   -15305459.54149 -11909309.49249  19574215.9994   19574220.9654
  19909569.997   -13866328.49649 -10792688.58649  19909572.6454   19909577.7624
  20764897.359   -24685654.48149 -18987934.07449  20764899.9084   20764904.6124
  20843539.028   -26372094.24249 -20536608.18149  20843541.3274   20843546.9064
  22698961.539   -13827040.138 9 -10566353.219 9  22698963.731    22698968.531
 96  2 16 20  9 29.9970000  0  8 29  2 16 19 18 31 27 28
  22346783.076     7692949.50449   6001159.75049  22346787.0524   22346794.3224
  22185214.160   -16793804.73649 -13063736.76049  22185217.2444   22185223.6624
  23032951.261   -11821086.56149  -9193658.52449  23032954.3774   23032961.4294
  19568660.276   -15334640.89549 -11932048.20249  19568662.9504   19568668.0774
  19917758.380   -13823296.75549 -10759157.36949  19917761.2454   19917766.4564
  20760717.675   -24707618.58749 -19005048.94549  20760720.1494   20760724.6904
  20828484.267   -26451205.89449 -20598253.59549  20828486.9374   20828492.4754
  22705959.065   -13790265.113 9 -10537697.383 9  22705961.819    22705966.806
 96  2 16 20  9 59.9970000  0  8 29  2 16 19 18 31 27 28
  22362425.091     7775140.61549   6065204.72849  22362427.9244   22362434.4664
  22167838.603   -16885114.52149 -13134887.18349  22167841.2084   22167848.3184
  23024739.275   -11864247.38449  -9227290.32549  23024741.5764   23024748.3754
  19563149.494   -15363598.53249 -11954612.58749  19563152.6404   19563157.5924
  19926035.306   -13779796.89249 -10725261.38549  19926038.9034   19926043.9204
  20756656.123   -24728963.56949 -19021681.38049  20756658.6344   20756663.0754
  20813450.875   -26530211.56749 -20659816.43349  20813452.8764   20813458.0734
  22713048.612   -13753011.429 9 -10508668.541 9  22713051.077    22713055.772
 96  2 16 20 10 29.9970000  0  8 29  2 16 19 18 31 27 28
  22378106.089     7857551.87249   6129421.25749  22378110.0194   22378116.5694
  22150507.869   -16976192.58349 -13205857.03949  22150509.7684   22150516.0054
  23016627.241   -11906877.72649  -9260508.76549  23016629.2654   23016635.7854
  19557687.098   -15392303.83649 -11976980.34649  19557689.9154   19557695.0944
  19934401.803   -13735835.93249 -10691006.09949  19934404.4094   19934409.4874
  20752713.151   -24749679.66349 -19037823.77849  20752716.3114   20752720.7474
  20798438.935   -26609090.81949 -20721280.75849  20798442.4554   20798447.6674
  22720230.185   -13715269.732 9 -10479259.440 9  22720232.843    22720237.720
 96  2 16 20 10 59.9970000  0  8 29  2 16 19 18 31 27 28
  22393833.659     7940190.48649   6193814.93449  22393835.5984   22393842.0644
  22133222.470   -17067020.11149 -13276631.67449  22133225.3354   22133232.3374
  23008617.399   -11948975.18149  -9293311.97449  23008619.2504   23008624.9944
  19552272.044   -15420763.35149 -11999156.58249  19552274.5914   19552279.4244
  19942854.858   -13691415.25249 -10656392.59649  19942857.5274   19942862.4794
  20748893.380   -24769757.59149 -19053468.89849  20748895.6244   20748900.0054
  20783455.948   -26687826.49949 -20782633.20749  20783459.7224   20783464.8784
  22727506.537   -13677032.239 9 -10449464.003 9  22727509.171    22727514.042
 96  2 16 20 11 29.9970000  0  8 29  2 16 19 18 31 27 28
  22409602.582     8023055.71149   6258385.18449  22409604.2064   22409610.7504
  22115990.844   -17157576.82149 -13347195.29749  22115993.3504   22116000.0794
  23000708.862   -11990531.07149  -9325693.17949  23000710.8764   23000717.9314
  19546902.856   -15448977.19349 -12021141.38649  19546905.6744   19546910.6194
  19951395.327   -13646535.29249 -10621421.21049  19951397.7714   19951403.1094
  20745193.505   -24789196.96249 -19068616.43849  20745196.3054   20745200.8404
  20768503.189   -26766407.64649 -20843865.23849  20768506.2134   20768511.5204
  22734879.570   -13638288.814 9 -10419274.331 9  22734881.758    22734886.701
 96  2 16 20 11 59.9970000  0  8 29  2 16 19 18 31 27 28
  22425413.988     8106144.37049   6323129.55249  22425416.4804   22425422.7294
  22098808.927   -17247870.57349 -13417554.00849  22098811.0494   22098817.6464
  22992899.647   -12031568.93649  -9357670.70849  22992901.9884   22992907.7224
  19541577.500   -15476961.95549 -12042947.68749  19541580.2824   19541584.9534
  19960022.277   -13601197.01649 -10586092.69949  19960025.5434   19960030.3034
  20741613.389   -24808012.76049 -19083278.08449  20741615.7604   20741620.3034
  20753577.795   -26844841.34849 -20904982.38049  20753580.8724   20753585.7324
  22742344.324   -13599053.786 9 -10388701.603 9  22742348.108    22742353.059
 96  2 16 20 12 29.9970000  0  9 29  2 16 12 19 18 31 27 28
  22441264.535     8189442.29949   6388036.97849  22441267.2084   22441273.4234
  22081672.994   -17337916.69649 -13487719.75649  22081675.3854   22081682.5084
  22985185.249   -12072102.01349  -9389254.92349  22985188.7074   22985194.5024
  23353306.912    -5502456.40519  -4265206.87619  23353309.979    23353318.697
  19536292.858   -15504731.55449 -12064586.32949  19536295.7544   19536300.6074
  19968735.021   -13555409.02349 -10550413.75849  19968738.3494   19968743.5994
  20738145.694   -24826235.95749 -19097477.95949  20738147.8904   20738152.7884
  20738676.598   -26923146.62349 -20965999.44949  20738679.5344   20738684.8164
  22749901.366   -13559348.868 9 -10357762.706 9  22749903.794    22749908.198
 96  2 16 20 12 59.9970000  0  9 29  2 16 12 19 18 31 27 28
  22457152.480     8272933.90649   6453095.31949  22457155.2344   22457161.2314
  22064585.170   -17427712.64049 -13557690.56549  22064588.3654   22064594.8794
  22977571.141   -12112108.88049  -9420429.09249  22977575.1844   22977581.3194
  23336205.861    -5592324.168 9  -4335233.645 9  23336208.477    23336217.808
  19531049.370   -15532285.66449 -12086057.05349  19531052.5224   19531057.4784
  19977537.714   -13509153.33249 -10514370.37549  19977540.7194   19977545.5504
  20734789.552   -24843871.12049 -19111219.63149  20734792.1984   20734796.5344
  20723799.267   -27001327.70149 -21026919.74549  20723802.1854   20723807.3554
  22757547.223   -13519171.601 9 -10326455.765 9  22757549.353    22757553.920
 96  2 16 20 13 29.9970000  0  9 29  2 16 12 19 18 31 27 28
  22473073.688     8356606.47449   6518294.66749  22473077.7044   22473084.3894
  22047540.944   -17517289.83949 -13627490.91749  22047541.7404   22047548.4944
  22970056.691   -12151602.95649  -9451203.69049  22970060.0944   22970066.5024
  23319131.134    -5682062.897 9  -4405159.860 9  23319132.040    23319141.291
  19525846.313   -15559630.07649 -12107364.37749  19525849.0894   19525854.0214
  19986425.883   -13462446.96849 -10477975.82149  19986428.5744   19986433.5304
  20731541.339   -24860941.22349 -19124520.98949  20731543.4024   20731548.5224
  20708942.742   -27079399.66349 -21087755.01349  20708945.3354   20708950.6364
  22765277.965   -13478542.772 9 -10294796.938 9  22765280.846    22765285.131
 96  2 16 20 13 59.9970000  0  9 29  2 16 12 19 18 31 27 28
  22489037.129     8440489.04049   6583657.65449  22489040.2964   22489046.0194
  22030536.943   -17606632.52549 -13697108.54049  22030540.3244   22030546.9364
  22962640.268   -12190571.96449  -9481569.13749  22962643.7244   22962651.0224
  23302080.273    -5771655.249 9  -4474972.019 9  23302083.126    23302091.624
  19520686.788   -15586742.08049 -12128490.60349  19520689.9594   19520694.8944
  19995403.876   -13415264.37149 -10441210.17349  19995407.1774   19995412.4594
  20728405.406   -24877421.46749 -19137362.72349  20728407.6954   20728412.1244
  20694110.593   -27157342.99549 -21148490.05149  20694113.3184   20694118.7424
  22773099.027   -13437446.813 9 -10262774.119 9  22773101.302    22773105.409
 96  2 16 20 14 29.9970000  0  9 29  2 16 12 19 18 31 27 28
  22505038.602     8524566.76049   6649172.70749  22505039.6454   22505045.5144
  22013578.336   -17695761.86149 -13766559.90749  22013579.7144   22013586.3594
  22955325.131   -12229028.00949  -9511534.87549  22955327.3894   22955333.3564
  23285056.439    -5861114.164 9  -4544680.195 9  23285059.118    23285068.122
  19515570.729   -15613629.94149 -12149442.16949  19515573.1364   19515578.1484
  20004467.834   -13367637.64049 -10404098.44449  20004470.2244   20004475.5054
  20725378.793   -24893325.42149 -19149755.39849  20725381.4384   20725385.6294
  20679297.315   -27235187.38149 -21209147.98649  20679300.2134   20679305.4254
  22781004.797   -13395898.239 9 -10230398.605 9  22781007.504    22781012.056
 96  2 16 20 14 59.9970000  0  9 29  2 16 12 19 18 31 27 28
  22521073.606     8608836.53249   6714837.41849  22521076.1324   22521081.8274
  21996655.717   -17784684.89749 -13835850.53349  21996658.3784   21996664.6674
  22948104.713   -12266973.33149  -9541102.64849  22948105.6304   22948111.7494
  23268057.228    -5950442.462 9  -4614286.599 9  23268060.604    23268069.588
  19510492.561   -15640311.73249 -12170233.16149  19510495.6664   19510500.6694
  20013610.961   -13319586.08049 -10366655.68649  20013614.3784   20013619.3434
  20722464.049   -24908645.39549 -19161693.01749  20722466.0334   20722470.5464
  20664500.887   -27312939.94749 -21269734.37249  20664504.4294   20664509.2364
  22788997.480   -13353901.414 9 -10197673.817 9  22788998.760    22789003.520
 96  2 16 20 15 29.9970000  0  9 29  2 16 12 19 18 31 27 28
  22537147.525     8693301.86349   6780654.51649  22537148.8964   22537155.3694
  21979771.476   -17873403.92049 -13904982.19349  21979776.2534   21979782.3474
  22940980.548   -12304412.20349  -9570275.79349  22940981.0684   22940987.5504
  23251084.750    -6039642.829 9  -4683793.314 9  23251086.618    23251095.025
  19505453.551   -15666793.35649 -12190868.18449  19505456.4944   19505461.2964
  20022834.052   -13271123.74049 -10328892.84249  20022836.3324   20022841.5834
  20719661.742   -24923369.94849 -19173166.67949  20719663.9494   20719668.8344
  20649723.111   -27390601.92049 -21330250.17849  20649725.5554   20649730.5184
  22797073.734   -13311461.089 9 -10164603.431 9  22797075.500    22797079.540
 96  2 16 20 15 59.9960000  0  9 29  2 16 12 19 18 31 27 28
  22553258.391     8777964.61849   6846625.43549  22553260.7544   22553266.0574
  21962935.550   -17961890.17949 -13973932.46749  21962937.4274   21962943.6494
  22933953.864   -12341322.77349  -9599037.27249  22933956.9104   22933962.6964
  23234134.013    -6128697.742 9  -4753186.714 9  23234139.608    23234147.538
  19500455.900   -15693057.34549 -12211333.61749  19500458.6564   19500463.5264
  20032133.031   -13222252.69149 -10290811.52249  20032136.1734   20032141.1964
  20716975.697   -24937483.30849 -19184164.08149  20716978.1684   20716982.8014
  20634962.743   -27468166.58149 -21390690.14449  20634965.6854   20634970.8154
  22805235.169   -13268565.424 9 -10131178.258 9  22805237.772    22805242.740
 96  2 16 20 16 29.9960000  0  9 29  2 16 12 19 18 31 27 28
  22569405.247     8862823.39549   6912749.11149  22569407.2544   22569413.8404
  21946137.988   -18050153.47249 -14042709.01149  21946141.6804   21946147.9754
  22927033.598   -12377698.86149  -9627382.27549  22927034.9014   22927041.9354
  23217218.075    -6217610.920 9  -4822469.635 9  23217219.885    23217229.120
  19495500.148   -15719098.29849 -12231625.25949  19495503.2094   19495508.0294
  20041510.616   -13172974.92749 -10252413.28349  20041513.5594   20041518.5424
  20714407.968   -24950977.51949 -19194679.03449  20714410.5104   20714415.3504
  20620223.877   -27545622.34849 -21451045.26049  20620226.3694   20620231.4154
  22813486.347   -13225211.486 9 -10097395.986 9  22813488.254    22813492.675
 96  2 16 20 16 59.9960000  0  9 29  2 16 12 19 18 31 27 28
  22585584.270     8947850.91349   6979004.25649  22585587.5954   22585595.2574
  21929383.986   -18138203.38949 -14111319.28049  21929385.5864   21929392.3314
  22920211.340   -12413550.78049  -9655318.82149  22920212.4144   22920219.0634
  23200322.711    -6306392.774 9  -4891650.259 9  23200324.984    23200333.942
  19490585.286   -15744928.29849 -12251752.52249  19490587.8524   19490592.6404
  20050965.237   -13123290.61349 -10213698.24549  20050968.0814   20050973.1204
  20711956.056   -24963863.36349 -19204719.93849  20711958.3874   20711962.8834
  20605506.057   -27622962.04949 -21511309.93349  20605508.8674   20605514.0494
  22821818.999   -13181415.727 9 -10063269.419 9  22821822.319    22821826.508
 96  2 16 20 17 29.9960000  0  9 29  2 16 12 19 18 31 27 28
  22601798.860     9033057.42849   7045398.88649  22601802.0244   22601807.6354
  21912668.919   -18226034.57449 -14179759.10549  21912671.9214   21912678.3014
  22913486.904   -12448883.36349  -9682850.70549  22913488.5074   22913495.2854
  23183452.604    -6395042.411 9  -4960727.865 9  23183455.640    23183464.838
  19485712.270   -15770535.74149 -12271706.36249  19485714.8914   19485719.8004
  20060498.469   -13073196.43549 -10174663.83849  20060500.5454   20060505.7504
  20709619.163   -24976143.17049 -19214288.60049  20709621.6194   20709626.1214
  20590812.233   -27700180.13749 -21571479.84649  20590814.7374   20590819.9804
  22830237.766   -13137178.884 9 -10028799.173 9  22830240.181    22830244.953
 96  2 16 20 17 59.9960000  0  9 29  2 16 12 19 18 31 27 28
  22618046.335     9118438.21849   7111929.33849  22618049.7674   22618056.4044
  21895996.442   -18313648.14449 -14248029.37549  21895999.6984   21896006.3664
  22906863.747   -12483702.33949  -9709982.37249  22906862.7934   22906870.1134
  23166608.353    -6483560.406 9  -5029702.888 9  23166611.471    23166620.302
  19480882.242   -15795916.96149 -12291483.92549  19480884.8464   19480889.9874
  20070110.680   -13022679.78449 -10135300.23149  20070113.2194   20070118.3114
  20707396.491   -24987819.62849 -19223387.12949  20707399.2744   20707404.1554
  20576141.918   -27777269.85849 -21631549.73349  20576145.1844   20576150.0934
  22838740.161   -13092502.822 9  -9993986.672 9  22838741.758    22838746.531
 96  2 16 20 18 29.9960000  0  9 29  2 16 12 19 18 31 27 28
  22634327.162     9203996.60649   7178598.16249  22634329.9064   22634336.0174
  21879367.542   -18401035.13149 -14316123.08749  21879370.6014   21879376.9854
  22900331.864   -12518008.86849  -9736714.72949  22900334.8474   22900341.2114
  23149790.467    -6571938.832 9  -5098569.155 9  23149793.262    23149802.229
  19476095.694   -15821070.56849 -12311084.12849  19476098.4524   19476103.0964
  20079808.884   -12971712.76949 -10095585.68949  20079812.4634   20079817.3084
  20705290.828   -24998888.22149 -19232011.99949  20705293.4074   20705297.9094
  20561499.964   -27854213.29749 -21691505.63049  20561503.2834   20561508.4274
  22847325.629   -13047381.789 9  -9958827.441 9  22847328.228    22847332.731
 96  2 16 20 18 59.9960000  0  9 29  2 16 12 19 18 31 27 28
  22650641.744     9289716.09649   7245392.51949  22650643.3864   22650650.0154
  21862781.279   -18488197.87849 -14384042.06849  21862783.9264   21862790.0384
  22893898.945   -12551816.43649  -9763058.28449  22893901.6704   22893908.0974
  23132995.643    -6660191.295 9  -5167337.251 9  23132999.798    23133008.188
  19471348.946   -15846014.38549 -12330520.85449  19471351.9144   19471356.7664
  20089590.677   -12920310.08149 -10055531.66049  20089594.4124   20089598.8004
  20703297.783   -25009361.57949 -19240173.04849  20703300.2484   20703304.6304
  20546880.675   -27931041.18949 -21751371.50049  20546883.3114   20546888.4944
  22855993.592   -13001830.987 9  -9923333.317 9  22855996.076    22856000.608
 96  2 16 20 19 29.9960000  0  9 29  2 16 12 19 18 31 27 28
  22666982.178     9375594.50849   7312310.68349  22666984.4784   22666991.7894
  21846238.057   -18575129.81449 -14451781.19549  21846241.3774   21846247.4744
  22887558.635   -12585128.54149  -9789015.75949  22887562.8684   22887569.2994
  23116228.409    -6748318.089 9  -5236007.399 9  23116229.638    23116238.421
  19466643.833   -15870740.20949 -12349787.71849  19466646.6774   19466651.1974
  20099455.727   -12868471.91049 -10015138.29449  20099458.2734   20099463.4114
  20701419.998   -25019230.75549 -19247863.30849  20701422.1664   20701426.5144
  20532280.562   -28007758.96349 -21811151.55849  20532284.4374   20532289.1644
  22864743.219   -12955852.504 9  -9887505.943 9  22864745.485    22864750.210
 96  2 16 20 19 59.9960000  0  9 29  2 16 12 19 18 31 27 28
  22683350.199     9461606.33249   7379332.83749  22683351.8384   22683359.1914
  21829739.438   -18661838.57349 -14519346.42749  21829741.0964   21829747.3244
  22881315.835   -12617951.49249  -9814592.09149  22881316.3874   22881323.7954
  23099477.811    -6836327.209 9  -5304585.855 9  23099481.519    23099490.327
  19461979.849   -15895249.01849 -12368885.48249  19461982.6874   19461987.8944
  20109402.055   -12816201.97749  -9974408.49249  20109405.1604   20109410.3494
  20699655.302   -25028502.05849 -19255087.69649  20699657.7854   20699662.4924
  20517701.319   -28084379.28249 -21870855.68349  20517704.1284   20517708.8214
  22873572.643   -12909456.333 9  -9851353.079 9  22873574.355    22873579.032
 96  2 16 20 20 29.9960000  0  9 29  2 16 12 19 18 31 27 28
  22699749.601     9547783.06849   7446483.48749  22699751.3464   22699756.9844
  21813286.364   -18748295.15949 -14586715.15449  21813289.0804   21813295.0184
  22875166.832   -12650254.25549  -9839763.07349  22875169.6974   22875175.7974
  23082759.211    -6924186.844 9  -5373047.838 9  23082762.726    23082771.287
  19457362.675   -15919512.08749 -12387791.75749  19457365.2904   19457370.2664
  20119433.454   -12763489.07949  -9933333.52249  20119436.0994   20119441.1654
  20698009.187   -25037152.90049 -19261828.60849  20698011.6584   20698016.1194
  20503146.116   -28160869.83449 -21930458.68349  20503148.3844   20503153.4744
  22882485.663   -12862612.140 9  -9814851.105 9  22882488.341    22882493.078
 96  2 16 20 20 59.9960000  0  9 29  2 16 12 19 18 31 27 28
  22716182.267     9634137.93149   7513772.95249  22716184.5964   22716190.5594
  21796880.534   -18834508.95049 -14653894.68749  21796882.7434   21796889.3324
  22869119.783   -12682029.96549  -9864523.37849  22869122.5504   22869128.6854
  23066071.235    -7011894.423 9  -5441391.331 9  23066072.613    23066081.134
  19452792.142   -15943529.03949 -12406506.25549  19452795.0774   19452800.0494
  20129544.769   -12710351.91049  -9891927.95149  20129547.8894   20129552.8754
  20696481.995   -25045177.57149 -19268081.59049  20696484.7284   20696489.0704
  20488614.754   -28237227.71849 -21989958.31549  20488617.8584   20488622.6664
  22891485.597   -12815319.126 9  -9777999.394 9  22891488.103    22891492.602
 96  2 16 20 21 29.9960000  0  9 29  2 16 12 19 18 31 27 28
  22732646.103     9720666.74349   7581197.92849  22732650.1754   22732656.2794
  21780518.858   -18920493.24949 -14720895.39849  21780521.0554   21780527.2334
  22863171.042   -12713285.01449  -9888877.96049  22863175.6514   22863182.4054
  23049405.703    -7099461.000 9  -5509624.957 9  23049409.320    23049417.904
  19448266.666   -15967312.64549 -12425038.92649  19448269.1224   19448273.9024
  20139735.091   -12656804.31749  -9850202.57049  20139737.6354   20139742.5384
  20695071.595   -25052590.17849 -19273857.64849  20695074.0564   20695078.6504
  20474111.480   -28313443.70349 -22049347.37249  20474114.2474   20474119.3784
  22900568.549   -12767590.314 9  -9740808.105 9  22900570.470    22900575.279
 96  2 16 20 21 59.9960000  0  9 29  2 16 12 19 18 31 27 28
  22749150.380     9807380.97349   7648767.39049  22749150.7964   22749157.0194
  21764199.294   -19006252.94949 -14787721.09949  21764201.2634   21764207.9034
  22857321.582   -12744029.19449  -9912834.46749  22857324.8634   22857331.6864
  23032769.482    -7186888.177 9  -5577749.936 9  23032772.250    23032780.183
  19443779.888   -15990889.54349 -12443410.52949  19443782.6494   19443787.7714
  20150000.727   -12602856.72149  -9808165.49649  20150003.5744   20150008.6874
  20693775.343   -25059401.84949 -19279165.43749  20693777.6104   20693782.3394
  20459636.114   -28389511.97949 -22108621.33749  20459639.1424   20459644.5034
  22909732.265   -12719429.137 9  -9703279.912 9  22909735.298    22909739.944
 96  2 16 20 22 29.9960000  0  9 29  2 16 12 19 18 31 27 28
  22765689.591     9894307.47949   7716502.26549  22765692.7664   22765699.2164
  21747925.055   -19091773.22049 -14854360.23049  21747927.1054   21747933.5334
  22851571.628   -12774250.85149  -9936383.81749  22851572.9234   22851579.4394
  23016161.940    -7274160.550 9  -5645754.276 9  23016164.708    23016173.222
  19439333.011   -16014258.32849 -12461619.96649  19439335.8594   19439340.6864
  20160345.607   -12548491.68649  -9765803.14749  20160349.0114   20160354.1784
  20692595.188   -25065599.11249 -19283994.47949  20692598.5394   20692603.1234
  20445192.150   -28465413.06849 -22167765.02349  20445195.5664   20445200.6084
  22918982.799   -12670821.879 9  -9665404.133 9  22918984.913    22918989.806
 96  2 16 20 22 59.9960000  0  9 29  2 16 12 19 18 31 27 28
  22782267.350     9981429.84649   7784389.75949  22782272.2254   22782278.2064
  21731695.032   -19177061.38549 -14920818.50249  21731697.5084   21731703.3574
  22845916.885   -12803958.75049  -9959532.82949  22845919.1644   22845926.6574
  22999579.851    -7361294.297 9  -5713650.598 9  22999583.592    22999592.242
  19434923.998   -16037426.56149 -12479673.12749  19434927.4914   19434932.2674
  20170771.322   -12493706.61049  -9723113.49549  20170774.0954   20170779.1974
  20691533.864   -25071182.49949 -19288345.16649  20691536.1124   20691540.6194
  20430778.506   -28541158.97949 -22226787.79549  20430781.8044   20430786.5534
  22928312.959   -12621786.694 9  -9627194.901 9  22928315.964    22928320.745
 96  2 16 20 23 29.9960000  0  9 29  2 16 12 19 18 31 27 28
  22798882.210    10068727.74349   7852414.04949  22798884.2774   22798890.7884
  21715509.738   -19262115.57049 -14987094.44349  21715512.1824   21715518.5124
  22840359.911   -12833166.19549  -9982291.87849  22840361.9754   22840368.6074
  22983022.800    -7448299.802 9  -5781446.975 9  22983026.857    22983035.595
  19430553.716   -16060393.36049 -12497569.32949  19430556.5924   19430561.8614
  20181276.531   -12438501.75949  -9680096.74249  20181279.2854   20181284.6564
  20690586.717   -25076157.27549 -19292221.61549  20690589.5644   20690593.9454
  20416390.693   -28616765.18149 -22285701.69449  20416394.2304   20416399.2704
  22937723.704   -12572335.724 9  -9588661.680 9  22937726.127    22937730.945
 96  2 16 20 23 59.9960000  0  9 29  2 16 12 19 18 31 27 28
  22815526.808    10156197.91549   7920572.54549  22815528.9284   22815536.1494
  21699372.899   -19346919.72349 -15053175.56249  21699374.5764   21699380.8044
  22834901.681   -12861861.37549 -10004651.76149  22834901.8674   22834909.0484
  22966494.178    -7535163.178 9  -5849132.613 9  22966497.149    22966506.078
  19426227.354   -16083130.47049 -12515286.55249  19426229.9424   19426234.8394
  20191864.305   -12382861.17349  -9636740.45849  20191867.2534   20191872.6504
  20689756.704   -25080518.18249 -19295619.72549  20689759.4914   20689764.0474
  20402030.123   -28692235.53549 -22344509.74249  20402032.8694   20402037.6114
  22947215.630   -12522456.932 9  -9549795.107 9  22947217.644    22947222.907
 96  2 16 20 24 29.9960000  0  9 29  2 16 12 19 18 31 27 28
  22832196.564    10243800.97249   7988834.58849  22832200.1524   22832206.0384
  21683278.490   -19431490.90749 -15119075.13249  21683281.0294   21683287.2574
  22829538.936   -12890040.03249 -10026609.15749  22829539.0784   22829547.2794
  22949987.863    -7621904.235 9  -5916722.923 9  22949990.961    22949999.578
  19421947.074   -16105621.79449 -12532812.25249  19421949.9434   19421954.8224
  20202530.806   -12326806.82149  -9593061.76049  20202533.9874   20202539.3144
  20689042.317   -25084273.80549 -19298546.18249  20689044.9364   20689049.3414
  20387690.009   -28767590.65349 -22403227.99749  20387693.1854   20387698.0684
  22956784.490   -12472171.983 9  -9510612.049 9  22956786.801    22956791.733
 96  2 16 20 24 59.9960000  0  9 29  2 16 12 19 18 31 27 28
  22848897.835    10331550.90949   8057211.10349  22848898.8594   22848904.5434
  21667232.890   -19515810.11549 -15184778.36549  21667235.5844   21667241.9504
  22824279.436   -12917664.19649 -10048134.49449  22824282.8724   22824290.1004
  22933507.257    -7708497.848 9  -5984198.334 9  22933512.525    22933520.890
  19417722.370   -16127822.13249 -12550111.21449  19417725.5504   19417730.2834
  20213278.376   -12270330.20749  -9549054.03249  20213281.2884   20213286.5604
  20688447.579   -25087397.73749 -19300980.40949  20688450.1754   20688454.9194
  20373377.492   -28842803.93749 -22461835.73949  20373380.3644   20373385.5194
  22966434.660   -12421457.660 9  -9471094.411 9  22966437.328    22966442.349
 96  2 16 20 25 29.9960000  0  9 29  2 16 12 19 18 31 27 28
  22865616.026    10419422.04549   8125682.04649  22865619.7194   22865625.8324
  21651232.435   -19599895.48549 -15250299.38549  21651234.6174   21651240.8234
  22819124.559   -12944753.31349 -10069242.89149  22819128.1904   22819135.1534
  22917055.634    -7794966.173 9  -6051576.122 9  22917058.023    22917066.620
  19413548.926   -16149756.13249 -12567202.63649  19413551.3704   19413556.2624
  20224099.454   -12213460.93449  -9504740.32949  20224102.9794   20224108.0804
  20687966.831   -25089927.40249 -19302951.57149  20687968.9394   20687973.4344
  20359085.105   -28917911.43849 -22520361.04749  20359088.1544   20359092.7974
  22976163.605   -12370337.985 9  -9431260.930 9  22976165.235    22976170.137
 96  2 16 20 25 59.9960000  0  9 29  2 16 12 19 18 31 27 28
  22882362.744    10507418.64149   8194250.76549  22882364.4424   22882370.2484
  21635274.306   -19683753.51049 -15315643.25249  21635276.9994   21635283.0484
  22814073.475   -12971297.28149 -10089926.51949  22814076.9564   22814083.6984
  22900624.274    -7881303.778 9  -6118852.059 9  22900628.298    22900636.632
  19409424.934   -16171425.40549 -12584087.77749  19409428.0544   19409432.8994
  20234997.153   -12156195.94849  -9460118.28149  20235000.3954   20235005.6094
  20687597.753   -25091862.88349 -19304459.74049  20687600.5664   20687605.0514
  20344815.644   -28992898.80049 -22578792.73849  20344818.5384   20344823.4084
  22985968.129   -12318809.382 9  -9391108.800 9  22985971.022    22985975.681
 96  2 16 20 26 29.9960000  0  9 29  2 16 12 19 18 31 27 28
  22899134.287    10595566.54349   8262937.35949  22899138.6514   22899145.0724
  21619361.665   -19767372.77849 -15380801.07549  21619364.3104   21619371.0164
  22809131.119   -12997280.79449 -10110173.42149  22809133.1454   22809139.3554
  22884224.688    -7967488.380 9  -6186008.775 9  22884227.908    22884236.515
  19405353.462   -16192824.06649 -12600762.05449  19405356.0564   19405360.7314
  20245972.586   -12098523.91549  -9415179.05349  20245974.9984   20245980.1164
  20687348.123   -25093176.44049 -19305483.28249  20687350.6814   20687354.9064
  20330574.324   -29067734.40549 -22637106.18149  20330577.5194   20330582.3974
  22995855.958   -12266851.658 9  -9350622.277 9  22995857.842    22995862.991
 96  2 16 20 26 59.9960000  0  9 29  2 16 12 19 18 31 27 28
  22915937.971    10683865.03549   8331741.31849  22915941.8634   22915946.9074
  21603494.405   -19850757.98649 -15445776.50649  21603496.8724   21603502.8844
  22804286.584   -13022738.70549 -10130010.76149  22804288.5054   22804294.3124
  22867851.576    -8053527.182 9  -6253051.894 9  22867855.037    22867863.985
  19401324.643   -16213991.47549 -12617256.13449  19401327.8364   19401332.7724
  20257021.515   -12040455.88549  -9369931.25049  20257024.9604   20257030.0124
  20687212.081   -25093893.96249 -19306042.39149  20687214.2794   20687218.5904
  20316361.833   -29142424.45749 -22695306.20249  20316364.7244   20316369.2964
  23005822.694   -12214473.476 9  -9309808.147 9  23005825.378    23005830.308
 96  2 16 20 27 29.9960000  0  9 29  2 16 12 19 18 31 27 28
  22932767.823    10772300.44949   8400651.97549  22932770.2584   22932776.5084
  21587669.102   -19933916.47549 -15510575.27649  21587672.5634   21587678.3284
  22799537.307   -13047701.08849 -10149461.96949  22799537.1184   22799543.8664
  22851505.540    -8139434.347 9  -6319992.435 9  22851507.660    22851516.327
  19397335.473   -16234958.56249 -12633594.11749  19397338.1844   19397342.9104
  20268147.179   -11981992.27649  -9324375.20749  20268150.2494   20268155.4074
  20687186.939   -25094025.08649 -19306144.56049  20687189.1134   20687193.9204
  20302174.033   -29216980.19149 -22753401.55749  20302177.2504   20302181.8044
  23015867.427   -12161691.044 9  -9268679.003 9  23015869.436    23015874.114
 96  2 16 20 27 59.9960000  0  9 29  2 16 12 19 18 31 27 28
  22949618.010    10860873.24049   8469669.66649  22949624.9224   22949631.4814
  21571887.063   -20016853.50849 -15575201.48749  21571890.0534   21571896.3074
  22794876.095   -13072187.07149 -10168541.96549  22794879.3094   22794885.0254
  22835181.974    -8225208.398 9  -6386829.262 9  22835185.031    22835193.598
  19393384.566   -16255717.95149 -12649770.26249  19393387.5244   19393392.5554
  20279346.839   -11923141.07749  -9278517.14449  20279349.3364   20279354.2804
  20687273.356   -25093570.10949 -19305790.03449  20687275.8904   20687280.7674
  20288015.566   -29291385.31549 -22811379.55949  20288018.1124   20288022.9804
  23025987.742   -12108505.079 9  -9227235.409 9  23025990.387    23025995.327
 96  2 16 20 28 29.9960000  0  9 29  2 16 12 19 18 31 27 28
  22966507.470    10949597.73649   8538805.56849  22966509.1704   22966515.2544
  21556155.098   -20099530.22849 -15639624.84949  21556156.9754   21556163.1504
  22790309.481   -13096187.14349 -10187243.32949  22790312.4194   22790316.8584
  22818889.243    -8310835.190 9  -6453551.344 9  22818891.063    22818899.615
  19389479.848   -16276239.83249 -12665761.33249  19389482.4234   19389487.2384
  20290620.851   -11863893.16949  -9232349.95749  20290623.7034   20290628.8154
  20687473.805   -25092516.58349 -19304969.09949  20687476.0904   20687480.9724
  20273887.329   -29365625.19449 -22869228.79249  20273890.6784   20273895.4364
  23036187.771   -12054903.078 9  -9185467.635 9  23036190.484    23036195.660
 96  2 16 20 28 59.9960000  0  9 29  2 16 12 19 18 31 27 28
  22983417.626    11038474.78549   8608060.33749  22983421.9974   22983429.0474
  21540472.513   -20181940.58649 -15703840.65949  21540474.9274   21540480.8234
  22785836.787   -13119689.64849 -10205556.97849  22785838.6464   22785845.4894
  22802620.097    -8396321.669 9  -6520164.095 9  22802623.063    22802632.054
  19385620.804   -16296517.33349 -12681561.97749  19385623.8664   19385628.6134
  20301970.967   -11804246.20649  -9185871.82149  20301974.0564   20301979.4294
  20687787.024   -25090868.99249 -19303685.25749  20687789.7994   20687794.0964
  20259789.642   -29439711.30349 -22926958.20149  20259792.7544   20259797.5594
  23046465.207   -12000894.064 9  -9143382.700 9  23046468.250    23046472.973
 96  2 16 20 29 29.9960000  0  9 29  2 16 12 19 18 31 27 28
  23000366.275    11127506.56449   8677435.64949  23000364.1834   23000369.9874
  21524841.421   -20264083.59249 -15767848.14849  21524843.3124   21524849.4794
  22781462.112   -13142673.07449 -10223466.14549  22781465.1064   22781472.2974
  22786378.859    -8481663.114 9  -6586663.822 9  22786382.977    22786392.186
  19381814.673   -16316521.64149 -12697149.74949  19381817.0584   19381821.9274
  20313398.997   -11744196.03349  -9139079.49349  20313401.4384   20313406.5254
  20688217.373   -25088610.76649 -19301925.60449  20688219.5794   20688224.1444
  20245722.741   -29513634.46949 -22984560.65149  20245725.7574   20245730.1704
  23056821.745   -11946475.398 9  -9100978.529 9  23056823.953    23056828.607
 96  2 16 20 29 59.9960000  0  9 29  2 16 12 19 18 31 27 28
  23017332.261    11216687.19549   8746926.98449  23017334.5754   23017341.8974
  21509261.470   -20345957.11049 -15831645.64249  21509263.3404   21509269.5444
  22777189.140   -13165129.60349 -10240964.75749  22777192.1464   22777198.2164
  22770167.545    -8566859.016 9  -6653050.149 9  22770171.185    22770179.497
  19378059.379   -16336252.90949 -12712524.75849  19378062.3774   19378066.9824
  20324899.842   -11683754.73549  -9091982.39649  20324903.0174   20324908.0924
  20688761.757   -25085746.23149 -19299693.49749  20688764.7314   20688769.4734
  20231688.108   -29587386.12849 -23042029.45549  20231691.2754   20231695.9454
  23067254.986   -11891648.228 9  -9058256.074 9  23067257.256    23067261.596
 96  2 16 20 30 29.9960000  0  9 29  2 16 12 19 18 31 27 28
  23034325.725    11305995.33049   8816517.68649  23034329.0134   23034334.8914
  21493728.634   -20427579.59949 -15895247.52749  21493731.1754   21493737.2374
  22773018.175   -13187048.74549 -10258044.61349  22773021.1054   22773027.2744
  22753980.893    -8651921.008 9  -6719332.126 9  22753984.523    22753992.886
  19374349.030   -16355750.21449 -12727717.46349  19374352.3474   19374357.0174
  20336474.610   -11622929.61349  -9044586.20949  20336477.7564   20336482.9164
  20689423.153   -25082271.58349 -19296985.97749  20689426.1204   20689430.3494
  20217684.278   -29660978.10149 -23099373.82749  20217687.2074   20217691.9074
  23077762.620   -11836426.261 9  -9015225.976 9  23077765.336    23077769.800
 96  2 16 20 30 59.9960000  0  9 29  2 16 12 19 18 31 27 28
  23051352.519    11395441.61049   8886216.01449  23051350.3374   23051358.3134
  21478241.595   -20508965.03549 -15958664.69749  21478244.0834   21478250.3804
  22768950.898   -13208427.99949 -10274703.78849  22768952.8764   22768959.4234
  22737822.650    -8736836.709 9  -6785500.139 9  22737825.455    22737833.837
  19370682.202   -16375020.66449 -12742733.39549  19370685.0224   19370689.6344
  20348124.226   -11561710.20049  -8996882.78249  20348127.2124   20348132.5644
  20690203.380   -25078169.46849 -19293789.52349  20690206.4644   20690210.6004
  20203711.966   -29734403.30749 -23156588.25449  20203714.7314   20203719.5094
  23088348.592   -11780799.206 9  -8971880.222 9  23088350.846    23088355.433
 96  2 16 20 31 29.9960000  0  9 29  2 16 12 19 18 31 27 28
  23068394.000    11485015.73149   8956013.98149  23068395.9494   23068403.1634
  21462799.358   -20590118.64049 -16021901.21449  21462800.9364   21462807.0384
  22764981.308   -13229288.75949 -10290958.92749  22764982.6864   22764989.8194
  22721690.516    -8821605.144 9  -6851553.396 9  22721694.357    22721702.754
  19367057.707   -16394067.77849 -12757575.29949  19367060.6924   19367065.1454
  20359848.531   -11500096.87449  -8948872.41049  20359851.9164   20359857.0734
  20691103.631   -25073441.78749 -19290105.61149  20691105.6894   20691110.2224
  20189772.688   -29807653.41449 -23213666.23449  20189775.6844   20189780.4654
  23099010.536   -11724767.781 9  -8928219.371 9  23099013.112    23099017.584
 96  2 16 20 31 59.9960000  0  9 29  2 16 12 19 18 31 27 28
  23085456.822    11574697.64749   9025895.89749  23085461.7804   23085467.9924
  21447397.108   -20671055.87349 -16084969.13549  21447398.9974   21447404.8954
  22761106.840   -13249644.64849 -10306820.67349  22761109.9994   22761115.8424
  22705582.813    -8906241.374 9  -6917503.613 9  22705588.642    22705597.027
  19363471.750   -16412911.52949 -12772258.73949  19363474.6064   19363479.4074
  20371647.303   -11438097.64549  -8900561.33149  20371650.0764   20371655.3264
  20692118.103   -25068107.02249 -19285948.65349  20692120.7024   20692125.7854
  20175862.637   -29880751.48149 -23270625.74849  20175865.3594   20175870.3654
  23109747.852   -11668349.343 9  -8884256.947 9  23109749.278    23109753.961
 96  2 16 20 32 29.9960000  0  9 29  2 16 12 19 18 31 27 28
  23102548.096    11664508.53749   9095878.32949  23102552.1984   23102558.7664
  21432038.756   -20751761.34249 -16147856.45849  21432041.0674   21432047.3994
  22757333.575   -13269477.81949 -10322275.11449  22757334.7874   22757342.0694
  22689507.245    -8990734.888 9  -6983342.625 9  22689510.150    22689518.194
  19359929.816   -16431525.59649 -12786763.20449  19359932.5994   19359937.3804
  20383521.340   -11375698.33249  -8851938.50549  20383524.3204   20383529.6994
  20693251.126   -25062157.75649 -19281312.86249  20693253.4264   20693257.6344
  20161981.289   -29953700.01749 -23327468.74749  20161983.8964   20161988.4544
  23120557.698   -11611535.381 9  -8839986.341 9  23120560.397    23120565.215
 96  2 16 20 32 59.9960000  0  9 29  2 16 12 19 18 31 27 28
  23119668.064    11754469.92049   9165978.03149  23119672.4314   23119677.4434
  21416731.016   -20832208.71749 -16210542.66749  21416732.7414   21416738.7644
  22753657.712   -13288790.42049 -10337323.89849  22753661.1234   22753667.0864
  22673456.739    -9075078.383 9  -7049064.747 9  22673459.921    22673468.241
  19356439.606   -16449866.31349 -12801054.66749  19356442.2344   19356447.1984
  20395472.791   -11312889.81849  -8802996.81949  20395476.0704   20395481.4034
  20694500.776   -25055587.47049 -19276193.16449  20694503.4744   20694507.8274
  20148129.459   -30026490.98549 -23384188.96749  20148131.9644   20148136.9964
  23131446.957   -11554320.513 9  -8795403.349 9  23131448.281    23131453.195
 96  2 16 20 33 29.9960000  0  9 29  2 16 12 19 18 31 27 28
  23136813.961    11844572.46749   9236187.73249  23136817.4684   23136822.9204
  21401472.539   -20912389.32349 -16273021.00749  21401474.7454   21401480.3084
  22750085.861   -13307566.92849 -10351954.97149  22750087.7964   22750093.9074
  22657434.492    -9159276.872 9  -7114673.874 9  22657437.357    22657445.510
  19353002.251   -16467931.52949 -12815131.45649  19353004.6184   19353009.3784
  20407503.728   -11249671.37649  -8753735.71249  20407506.3354   20407511.4564
  20695866.289   -25048411.41649 -19270601.43349  20695868.9744   20695873.6634
  20134309.379   -30099113.94749 -23440778.27149  20134312.4144   20134317.1424
  23142408.722   -11496711.795 9  -8750513.457 9  23142411.050    23142415.127
 96  2 16 20 33 59.9960000  0  9 29  2 16 12 19 18 31 27 28
  23153986.969    11934814.96849   9306506.50949  23153989.8264   23153996.5934
  21386265.712   -20992297.46049 -16335287.03049  21386268.5634   21386274.3054
  22746615.620   -13325799.15749 -10366161.90849  22746617.4924   22746624.7024
  22641440.025    -9243330.574 9  -7180170.179 9  22641442.504    22641450.894
  19349615.193   -16485728.64849 -12828999.34049  19349617.9074   19349622.7464
  20419610.685   -11186049.42049  -8704160.17549  20419613.3784   20419618.5494
  20697348.477   -25040626.17949 -19264535.01549  20697350.5364   20697355.0054
  20120521.857   -30171566.24449 -23497234.59149  20120524.7644   20120529.5204
  23153445.078   -11438711.489 9  -8705318.445 9  23153448.114    23153452.921
 96  2 16 20 34 29.9960000  0  9 29  2 16 12 19 18 31 27 28
  23171188.207    12025208.71949   9376943.12249  23171191.6754   23171197.7554
  21371113.414   -21071926.09149 -16397335.25749  21371115.4154   21371121.5884
  22743247.156   -13343496.35749 -10379951.94549  22743250.6544   22743256.9854
  22625472.066    -9327238.594 9  -7245552.954 9  22625475.226    22625483.351
  19346279.918   -16503257.61749 -12842658.27149  19346282.4294   19346287.2204
  20431792.398   -11122031.12449  -8654275.80349  20431795.4744   20431800.6834
  20698947.217   -25032223.26749 -19257987.28949  20698949.7974   20698954.4664
  20106768.290   -30243845.52349 -23553556.09349  20106770.9524   20106775.6684
  23164556.312   -11380320.584 9  -8659819.067 9  23164559.363    23164564.331
 96  2 16 20 34 59.9960000  0  9 29  2 16 12 19 18 31 27 28
  23188419.776    12115754.86949   9447498.49149  23188422.2334   23188427.5404
  21356013.887   -21151271.91049 -16459163.11749  21356016.6234   21356022.5264
  22739981.325   -13360662.76949 -10393328.39649  22739983.8874   22739990.6794
  22609534.898    -9410991.295 9  -7310814.706 9  22609537.407    22609545.738
  19342996.999   -16520509.97249 -12856101.66149  19342999.3054   19343003.9794
  20444051.446   -11057612.48249  -8604079.47149  20444053.9704   20444059.3474
  20700666.232   -25023191.61749 -19250949.64549  20700668.5554   20700672.8284
  20093048.836   -30315939.39949 -23609733.12449  20093051.7564   20093056.7204
  23175744.271   -11321531.261 9  -8614009.251 9  23175746.592    23175751.619
 96  2 16 20 35 29.9960000  0  9 29  2 16 12 19 18 31 27 28
  23205678.806    12206439.07649   9518161.41549  23205678.9214   23205685.2004
  21340966.144   -21230350.24049 -16520782.54549  21340968.7534   21340974.3844
  22736815.752   -13377299.76749 -10406292.30549  22736816.9824   22736824.6004
  22593625.676    -9494592.882 9  -7375958.711 9  22593628.748    22593636.431
  19339764.078   -16537496.95949 -12869338.27349  19339766.8294   19339771.5634
  20456383.980   -10992800.53349  -8553576.66349  20456387.3524   20456392.2054
  20702501.114   -25013550.08049 -19243436.75649  20702503.2894   20702507.8864
  20079363.767   -30387856.30749 -23665772.26449  20079366.5664   20079371.3134
  23187005.609   -11262350.030 9  -8567894.052 9  23187008.605    23187013.285
 96  2 16 20 35 59.9960000  0  9 29  2 16 12 19 18 31 27 28
  23222955.790    12297258.35549   9588929.57349  23222961.0804   23222967.7984
  21325968.763   -21309156.77149 -16582190.18449  21325972.3694   21325978.4214
  22733747.936   -13393422.35149 -10418855.36349  22733749.8104   22733757.0114
  22577745.004    -9578049.964 9  -7440990.110 9  22577747.070    22577755.261
  19336583.652   -16554213.00749 -12882363.76149  19336585.9484   19336590.7854
  20468788.410   -10927617.67849  -8502784.84249  20468790.9294   20468796.2704
  20704451.035   -25003295.69749 -19235446.33149  20704454.5464   20704459.0314
  20065706.009   -30459626.05449 -23721696.72749  20065709.1634   20065714.1354
  23198340.926   -11202785.514 9  -8521480.178 9  23198343.272    23198347.727
 96  2 16 20 36 29.9960000  0  9 29  2 16 12 19 18 31 27 28
  23240269.474    12388229.88449   9659816.36549  23240272.7064   23240278.5814
  21311027.726   -21387675.51849 -16643373.57749  21311030.4304   21311036.3464
  22730783.370   -13409004.68049 -10430997.45849  22730783.9484   22730791.4834
  22561893.582    -9661346.814 9  -7505896.662 9  22561896.426    22561903.983
  19333460.045   -16570625.80749 -12895152.95149  19333462.7164   19333467.4044
  20481265.067   -10862050.29649  -8451693.39449  20481268.1704   20481273.4204
  20706522.703   -24992418.49849 -19226970.59449  20706524.3034   20706529.0444
  20052079.440   -30531237.57149 -23777497.89849  20052081.9854   20052086.7684
  23209751.815   -11142823.911 9  -8474756.897 9  23209753.784    23209758.754
 96  2 16 20 36 59.9960000  0  9 29  2 16 12 19 18 31 27 28
  23257607.177    12479347.44249   9730816.95549  23257611.5494   23257618.7064
  21296142.249   -21465901.94449 -16704329.18249  21296144.4004   21296150.4714
  22727924.371   -13424028.21849 -10442704.12649  22727926.2834   22727932.1004
  22546074.962    -9744476.159 9  -7570672.690 9  22546077.261    22546084.341
  19330395.546   -16586729.74449 -12907701.47149  19330398.1254   19330402.6534
  20493816.908   -10796089.80949  -8400295.62649  20493820.0914   20493825.4564
  20708708.935   -24980923.73149 -19218013.63349  20708711.6844   20708716.1154
  20038485.851   -30602669.12149 -23833158.83349  20038489.0074   20038493.8484
  23221238.302   -11082460.193 9  -8427720.292 9  23221240.902    23221245.378
 96  2 16 20 37 29.9960000  0  9 29  2 16 12 19 18 31 27 28
  23274974.260    12570610.65449   9801931.06449  23274977.6574   23274985.3934
  21281312.236   -21543830.92049 -16765053.01849  21281314.9904   21281320.9514
  22725171.696   -13438486.19349 -10453970.09049  22725175.1024   22725182.3264
  22530287.299    -9827434.606 9  -7635315.559 9  22530290.585    22530298.152
  19327387.718   -16602532.25149 -12920015.10749  19327391.0954   19327395.8404
  20506444.800   -10729731.95549  -8348588.22449  20506447.3924   20506452.7044
  20711015.935   -24968801.24349 -19208567.53649  20711018.6544   20711023.1044
  20024930.127   -30673904.45349 -23888666.87449  20024933.2944   20024937.9284
  23232801.572   -11021692.860 9  -8380369.168 9  23232804.351    23232808.885
 96  2 16 20 37 59.9960000  0  9 29  2 16 12 19 18 31 27 28
  23292365.037    12661987.27649   9873133.54149  23292366.5674   23292373.0354
  21266533.417   -21621491.03449 -16825567.35249  21266537.1014   21266542.5714
  22722521.620   -13452404.91249 -10464815.86049  22722524.7624   22722532.3584
  22514529.196    -9910245.003 9  -7699843.055 9  22514532.462    22514539.998
  19324432.445   -16618067.26549 -12932120.30649  19324434.8204   19324439.3074
  20519143.434   -10663000.92149  -8296590.03649  20519145.8854   20519151.4494
  20713440.320   -24956062.96649 -19198641.61149  20713442.6964   20713447.2814
  20011409.972   -30744953.81949 -23944030.00149  20011413.0704   20011417.6754
  23244438.405   -10960546.678 9  -8332722.827 9  23244439.979    23244444.482
 96  2 16 20 38 29.9960000  0  9 29  2 16 12 19 18 31 27 28
  23309771.591    12753453.93249   9944406.15949  23309772.6874   23309780.1634
  21251801.365   -21698912.12849 -16885895.44449  21251804.3934   21251809.8954
  22719975.807   -13465800.70649 -10475254.15849  22719975.6564   22719982.0294
  22498797.058    -9992919.463 9  -7764264.622 9  22498799.732    22498807.578
  19321522.339   -16633359.22949 -12944036.12049  19321524.8234   19321529.5024
  20531912.913   -10595895.13949  -8244299.83149  20531915.8184   20531920.9964
  20715978.199   -24942723.38149 -19188247.13549  20715980.8484   20715985.3504
  19997927.498   -30815806.20349 -23999239.64149  19997930.1314   19997935.1564
  23256142.425   -10899036.002 9  -8284792.465 9  23256145.103    23256149.727
 96  2 16 20 38 59.9960000  0  9 29  2 16 12 19 18 31 27 28
  23327193.279    12845009.21249  10015747.80749  23327195.4564   23327201.6034
  21237113.512   -21776101.23649 -16946042.76949  21237115.5764   21237121.2614
  22717519.844   -13478692.72649 -10485299.91849  22717522.4254   22717529.6634
  22483090.972   -10075458.299 9  -7828580.520 9  22483093.093    22483100.389
  19318656.853   -16648416.22349 -12955768.83949  19318659.6344   19318664.4064
  20544752.145   -10528419.24149  -8191721.22949  20544756.2724   20544761.4474
  20718631.337   -24928785.53749 -19177386.48149  20718633.4714   20718637.4834
  19984484.798   -30886449.60949 -24054286.43649  19984487.4404   19984491.5664
  23267916.367   -10837163.315 9  -8236580.031 9  23267918.950    23267923.971
 96  2 16 20 39 29.9960000  0  9 29  2 16 12 19 18 31 27 28
  23344622.699    12936655.22549  10087160.16649  23344635.4714   23344640.6214
  21222468.796   -21853055.93149 -17006007.43349  21222471.4904   21222477.3504
  22715163.099   -13491087.32249 -10494958.05749  22715165.1384   22715171.6424
  22467409.632   -10157855.860 9  -7892786.344 9  22467413.282    22467420.299
  19315838.942   -16663224.39349 -12967307.66849  19315841.8934   19315846.1904
  20557664.839   -10460572.00549  -8138853.27449  20557667.1794   20557672.3664
  20721397.002   -24914250.14249 -19166060.19949  20721399.2644   20721403.7094
  19971079.094   -30956893.64049 -24109177.87749  19971082.2724   19971086.8434
  23279760.455   -10774925.069 9  -8188082.741 9  23279762.732    23279767.652
 96  2 16 20 39 59.9960000  0  9 29  2 16 12 19 18 31 27 28
  23362083.587    13028390.25249  10158641.92249  23362090.8134   23362098.1824
  21207868.902   -21929775.69449 -17065789.03849  21207871.9914   21207878.2594
  22712898.977   -13502975.75649 -10504221.79749  22712903.1494   22712908.3524
  22451757.874   -10240110.433 9  -7956880.742 9  22451760.472    22451767.621
  19313070.394   -16677771.79749 -12978643.30349  19313073.3404   19313078.2044
  20570645.214   -10392355.28549  -8085697.40649  20570648.0174   20570653.4474
  20724274.290   -24899129.87649 -19154278.17949  20724276.3534   20724280.9944
  19957712.183   -31027141.60049 -24163916.53449  19957714.5884   19957719.2524
  23291674.415   -10712321.532 9  -8139300.805 9  23291675.172    23291680.764
 96  2 16 20 40 29.9960000  0  9 29  2 16 12 19 18 31 27 28
  23379568.063    13120239.64649  10230212.76849  23379571.1074   23379575.9894
  21193321.169   -22006226.11149 -17125360.76249  21193324.2884   21193330.0774
  22710737.423   -13514341.33849 -10513078.11149  22710739.9354   22710746.0694
  22436134.920   -10322204.478 9  -8020850.069 9  22436138.557    22436146.165
  19310357.759   -16692029.28649 -12989753.03549  19310360.1854   19310365.2544
  20583698.847   -10323760.94349  -8032247.29249  20583701.4434   20583706.8464
  20727263.903   -24883418.01649 -19142035.17049  20727266.4934   20727270.7014
  19944384.298   -31097177.83249 -24218490.20849  19944386.7744   19944391.7624
  23303657.084   -10649337.182 9  -8090222.151 9  23303661.195    23303666.344
 96  2 16 20 40 59.9960000  0  9 29  2 16 12 19 18 31 27 28
  23397064.727    13212202.44249  10301872.03949  23397069.3644   23397075.6934
  21178825.250   -22082402.58049 -17184719.02149  21178828.2174   21178833.9124
  22708671.327   -13525198.08049 -10521537.92049  22708673.7364   22708681.3384
  22420542.093   -10404144.639 9  -8084699.469 9  22420545.693    22420553.193
  19307700.140   -16705993.85449 -13000634.51749  19307702.9974   19307707.6994
  20596821.850   -10254797.29549  -7978509.40249  20596824.8974   20596829.9534
  20730365.078   -24867120.41149 -19129335.73749  20730367.6294   20730371.5294
  19931094.463   -31167014.22449 -24272908.16149  19931097.5984   19931102.3604
  23315716.837   -10585980.904 9  -8040853.662 9  23315717.865    23315722.528
 96  2 16 20 41 29.9960000  0  9 29  2 16 12 19 18 31 27 28
  23414583.281    13304247.76649  10373595.59249  23414585.9334   23414592.3684
  21164379.673   -22158317.78249 -17243873.69649  21164382.0954   21164388.0804
  22706701.468   -13535556.61849 -10529609.51949  22706701.7154   22706710.0374
  22404974.597   -10485950.549 9  -8148444.273 9  22404978.694    22404986.333
  19305096.389   -16719680.75949 -13011299.63649  19305098.6064   19305103.2104
  20610014.797   -10185471.10649  -7924489.01849  20610017.3394   20610022.4314
  20733578.483   -24850238.25149 -19116180.81049  20733580.1604   20733584.2314
  19917839.421   -31236672.20149 -24327187.08649  19917842.1984   19917846.6034
  23327837.310   -10522274.364 9  -7991212.247 9  23327840.654    23327845.431
 96  2 16 20 41 59.9960000  0  9 29  2 16 12 19 18 31 27 28
  23432118.335    13396395.59049  10445398.99649  23432120.9494   23432127.8484
  21149986.158   -22233954.74049 -17302811.56149  21149988.5364   21149994.5864
  22704826.553   -13545405.74549 -10537284.17949  22704827.8074   22704835.1704
  22389434.472   -10567615.414 9  -8212079.173 9  22389438.201    22389446.237
  19302544.038   -16733088.10949 -13021746.92149  19302546.9164   19302551.7604
  20623276.962   -10115773.41649  -7870179.14549  20623280.0674   20623285.1394
  20736907.105   -24832741.98949 -19102547.35249  20736909.9854   20736914.0614
  19904622.544   -31306125.93549 -24381306.86349  19904625.4994   19904630.1344
  23340028.716   -10458212.959 9  -7941294.321 9  23340031.115    23340036.438
 96  2 16 20 42 29.9960000  0  9 29  2 16 12 19 18 31 27 28
  23449671.593    13488650.73749  10517286.12249  23449675.6734   23449682.9424
  21135646.404   -22309313.88049 -17361532.94249  21135648.4484   21135654.1954
  22703046.202   -13554758.95149 -10544572.39849  22703048.9474   22703054.1414
  22373921.540   -10649138.206 9  -8275603.355 9  22373924.905    22373932.727
  19300046.207   -16746216.78649 -13031977.05749  19300048.8284   19300053.5494
  20636611.305   -10045702.50549  -7815578.45549  20636614.2394   20636619.5414
  20740356.893   -24814619.24549 -19088425.72949  20740358.4834   20740362.7364
  19891443.617   -31375382.83949 -24435273.26249  19891446.5224   19891450.9944
  23352287.704   -10393797.764 9  -7891100.703 9  23352289.042    23352294.277
 96  2 16 20 42 59.9960000  0  9 29  2 16 12 19 18 31 27 28
  23467251.757    13581008.41749  10589253.07049  23467249.8414   23467258.6114
  21121355.837   -22384409.17649 -17420048.73049  21121358.2734   21121364.0104
  22701363.000   -13563606.74549 -10551466.80249  22701365.3654   22701371.2834
  22358435.589   -10730521.364 9  -8339018.741 9  22358438.091    22358445.905
  19297599.233   -16759077.01649 -13041998.01849  19297601.7114   19297606.3124
  20650017.395    -9975255.03749  -7760684.35549  20650019.7494   20650025.3484
  20743926.303   -24795856.76649 -19073805.61649  20743928.8614   20743933.0524
  19878300.229   -31444449.52349 -24489091.44049  19878303.3314   19878308.0264
  23364609.167   -10329033.206 9  -7840634.861 9  23364613.563    23364618.394
 96  2 16 20 43 29.9960000  0  9 29  2 16 12 19 18 31 27 28
  23484844.659    13673463.02749  10661295.60649  23484844.7254   23484851.0044
  21107114.370   -22459248.30149 -17478364.90749  21107116.9444   21107122.4994
  22699778.150   -13571930.78549 -10557953.07849  22699781.0044   22699787.7864
  22342975.160   -10811762.736 9  -8402323.644 9  22342978.435    22342986.352
  19295202.037   -16771671.06149 -13051811.55649  19295204.6974   19295209.7854
  20663489.880    -9904452.57749  -7705513.62849  20663493.3674   20663498.5744
  20747615.918   -24776465.18049 -19058695.28349  20747618.8214   20747622.8684
  19865194.093   -31513324.55549 -24542760.27849  19865197.0014   19865201.5834
  23377003.050   -10263919.537 9  -7789896.964 9  23377003.906    23377008.824
 96  2 16 20 43 59.9960000  0  9 29  2 16 12 19 18 31 27 28
  23502451.013    13766011.30649  10733411.08249  23502456.6044   23502463.2084
  21092915.916   -22533856.14849 -17536500.86949  21092919.3884   21092925.3064
  22698291.157   -13579749.42149 -10564045.53449  22698292.8214   22698299.9684
  22327538.493   -10892877.144 9  -8465529.621 9  22327543.169    22327550.897
  19292852.524   -16784021.71449 -13061435.44249  19292854.9554   19292859.6554
  20677022.596    -9833337.15949  -7650099.03949  20677026.0964   20677031.4884
  20751418.413   -24756486.34549 -19043127.35649  20751420.5924   20751424.8284
  19852120.847   -31582026.99849 -24596294.63449  19852123.1924   19852128.0454
  23389454.741   -10198473.541 9  -7738900.120 9  23389458.280    23389463.300
 96  2 16 20 44 29.9960000  0  8  2 16 12 19 18 31 27 28
  21078765.078   -22608225.98349 -17594451.36549  21078766.9564   21078772.7354
  22696901.902   -13587046.53549 -10569731.62049  22696904.2554   22696911.0674
  22312131.497   -10973848.274 9  -8528623.945 9  22312134.769    22312142.346
  19290552.744   -16796104.11149 -13070850.29749  19290555.6824   19290560.2344
  20690617.413    -9761900.44249  -7594434.08949  20690620.1284   20690625.4264
  20755330.501   -24735925.96249 -19027106.27349  20755333.1734   20755337.5584
  19839080.927   -31650548.34749 -24649687.87649  19839084.0784   19839088.6524
  23401976.127   -10132681.108 9  -7687633.315 9  23401977.792    23401983.205
 96  2 16 20 44 59.9960000  0  8  2 16 12 19 18 31 27 28
  21064653.996   -22682378.24949 -17652232.33049  21064656.4374   21064662.0784
  22695608.809   -13593844.82449 -10575029.00249  22695611.8874   22695617.2514
  22296745.471   -11054703.169 9  -8591627.702 9  22296748.254    22296756.301
  19288300.266   -16807944.25349 -13080076.38449  19288302.4404   19288307.2304
  20704266.546    -9690172.84449  -7538542.47649  20704269.3224   20704274.6054
  20759347.773   -24714817.21449 -19010657.89549  20759349.9904   20759354.2554
  19826075.096   -31718897.59149 -24702947.01449  19826077.6814   19826082.2934
  23414554.083   -10066571.535 9  -7636119.416 9  23414558.116    23414562.369
 96  2 16 20 45 29.9960000  0  8  2 16 12 19 18 31 27 28
  21050587.871   -22756293.87849 -17709828.90049  21050590.6514   21050596.3294
  22694408.009   -13600146.96449 -10579939.77249  22694412.3634   22694418.1724
  22281384.902   -11135426.367 9  -8654528.833 9  22281387.577    22281395.145
  19286097.041   -16819517.58449 -13089094.56249  19286100.2414   19286104.6224
  20717972.879    -9618143.64849  -7482415.85749  20717975.8394   20717981.4794
  20763467.663   -24693163.97949 -18993785.24749  20763470.4464   20763474.9094
  19813104.499   -31787061.38649 -24756061.64649  19813106.4064   19813110.8904
  23427199.526   -10000131.464 9  -7584347.954 9  23427201.545    23427206.782
 96  2 16 20 45 59.9960000  0  8  2 16 12 19 18 31 27 28
  21036567.748   -22829976.06549 -17767243.56249  21036569.6594   21036575.2704
  22693298.558   -13605986.84849 -10584490.35349  22693300.0134   22693306.8154
  22266043.847   -11216040.641 9  -8717345.091 9  22266046.851    22266054.892
  19283943.652   -16830836.14749 -13097914.22649  19283946.3724   19283951.0284
  20731736.392    -9545816.43549  -7426057.01449  20731739.5794   20731744.8374
  20767689.041   -24670985.74949 -18976503.51449  20767691.0394   20767695.0934
  19800163.454   -31855060.96749 -24809048.31749  19800166.3594   19800171.1224
  23439900.275    -9933385.633 9  -7532338.229 9  23439902.713    23439907.558
 96  2 16 20 46 29.9960000  0  8  2 16 12 19 18 31 27 28
  21022593.702   -22903409.84249 -17824464.66149  21022595.7314   21022601.2534
  22692272.262   -13611371.27849 -10588686.02849  22692274.7764   22692282.3594
  22250722.689   -11296555.079 9  -8780083.566 9  22250725.266    22250733.188
  19281837.592   -16841903.91849 -13106538.46549  19281840.2704   19281844.7264
  20745560.143    -9473177.46449  -7369455.25049  20745562.2414   20745567.7784
  20772008.707   -24648282.99449 -18958813.06549  20772010.9894   20772015.1624
  19787253.826   -31922904.30749 -24861913.24849  19787256.2474   19787260.9824
  23452656.477    -9866345.394 9  -7480099.130 9  23452660.243    23452664.851
 96  2 16 20 46 59.9960000  0  8  2 16 12 19 18 31 27 28
  21008674.134   -22976549.92649 -17881456.90949  21008677.4504   21008683.0684
  22691340.643   -13616272.21649 -10592504.96349  22691343.8504   22691349.9944
  22235425.794   -11376939.444 9  -8842720.675 9  22235428.641    22235436.538
  19279782.882   -16852700.71649 -13114951.55649  19279785.8454   19279790.3474
  20759449.280    -9400188.29749  -7312580.60649  20759451.6604   20759456.7924
  20776434.521   -24625025.07149 -18940690.01649  20776437.1134   20776441.6134
  19774378.971   -31990560.46649 -24914632.32649  19774381.7534   19774386.3504
  23465478.609    -9798982.673 9  -7427608.728 9  23465479.094    23465484.013
 96  2 16 20 47 29.9960000  0  8  2 16 12 19 18 31 27 28
  20994808.900   -23049416.59549 -17938236.10549  20994811.2274   20994816.8304
  22690497.766   -13620704.31949 -10595958.57849  22690499.5204   22690506.5734
  22220151.023   -11457210.693 9  -8905269.651 9  22220153.790    22220161.150
  19277777.926   -16863236.86049 -13123161.54149  19277780.9524   19277785.2174
  20773399.879    -9326872.21349  -7255451.22049  20773403.0964   20773408.5704
  20780961.081   -24601240.07749 -18922156.26049  20780962.9224   20780967.0574
  19761536.229   -32058052.05149 -24967223.16149  19761538.5414   19761543.1664
  23478352.301    -9731316.674 9  -7374881.989 9  23478355.407    23478360.214
 96  2 16 20 47 59.9960000  0  8  2 16 12 19 18 31 27 28
  20980994.511   -23122011.46049 -17994803.50849  20980997.0654   20981002.5394
  22689743.900   -13624662.59849 -10599042.95749  22689747.0174   22689753.1744
  22204896.677   -11537369.159 9  -8967730.741 9  22204900.211    22204907.685
  19275822.488   -16873514.53049 -13131170.10949  19275824.9034   19275829.4844
  20787414.010    -9253231.19349  -7198068.64049  20787416.6334   20787422.1764
  20785589.121   -24576917.25249 -18903203.41649  20785591.4064   20785595.7174
  19748727.077   -32125363.40249 -25019673.55649  19748729.7164   19748734.1704
  23491285.911    -9663349.660 9  -7321920.709 9  23491289.029    23491293.043
 96  2 16 20 48 29.9960000  0  8  2 16 12 19 18 31 27 28
  20967233.827   -23194322.41949 -18051149.68549  20967236.6394   20967242.4664
  22689087.504   -13628109.03249 -10601728.50849  22689090.7234   22689097.9994
  22189671.896   -11617378.602 9  -9030075.714 9  22189674.635    22189682.323
  19273921.242   -16883506.14249 -13138955.78749  19273923.8064   19273928.2784
  20801495.017    -9179236.12949  -7140410.18249  20801497.6994   20801502.7334
  20790329.017   -24552012.29049 -18883796.95649  20790330.8084   20790334.8704
  19735960.449   -32192450.22649 -25071949.00049  19735963.1784   19735968.0994
  23504284.378    -9595047.615 9  -7268698.353 9  23504286.401    23504291.615
